[[{"header":{"parameterUnit":"m.s-1","parameterCategory":1,"la1":31.0,"la2":29.5877,"lo1":-88.7671,"lo2":-86.6584,"dy":0.0162,"dx":0.0185,"nx":115,"ny":88,"refTime":"2023-03-27T06:00:00:Z","depth":0,"parameterNumber":2,"parameterNumberName":"U-component_of_WINDS"},"data":[0.0,0.0,0.0,0.0,0.0,0.0,0.0,0.0,0.0,0.0,0.0,0.0,0.0,0.0,0.0,0.0,0.0,0.0,0.0,0.0,0.0,0.0,0.0,0.0,0.0,0.0,0.0,0.0,0.0,0.0,0.0,0.0,0.0,0.0,0.0,0.0,0.0,0.0,0.0,0.0,0.0,0.0,0.0,0.0,0.0,0.0,0.0,0.0,0.0,0.0,0.0,0.0,0.0,0.0,0.0,0.0,0.0,0.0,0.0,0.0,0.0,0.0,0.0,0.0,0.0,0.0,0.0,0.0,0.0,0.0,0.0,0.0,0.0,0.0,0.0,0.0,0.0,0.0,0.0,0.0,0.0,0.0,0.0,0.0,0.0,0.0,0.0,0.0,0.0,0.0,0.0,0.0,0.0,0.0,0.0,0.0,0.0,0.0,0.0,0.0,0.0,0.0,0.0,0.0,0.0,0.0,0.0,0.0,0.0,0.0,0.0,0.0,0.0,0.0,0.0,0.0,0.0,0.0,0.0,0.0,0.0,0.0,0.0,0.0,0.0,0.0,0.0,0.0,0.0,0.0,0.0,0.0,0.0,0.0,0.0,0.0,0.0,0.0,0.0,0.0,0.0,0.0,0.0,0.0,0.0,0.0,0.0,0.0,0.0,0.0,0.0,0.0,0.0,0.0,0.0,0.0,0.0,0.0,0.0,0.0,0.0,0.0,0.0,0.0,0.0,0.0,0.0,0.0,0.0,0.0,0.0,0.0,0.0,0.0,0.0,0.0,0.0,0.0,0.0,0.0,0.0,0.0,0.0,0.0,0.0,0.0,0.0,0.0,0.0,0.0,0.0,0.0,0.0,0.0,0.0,0.0,0.0,0.0,0.0,0.0,0.0,0.0,0.0,0.0,0.0,0.0,0.0,0.0,0.0,0.0,0.0,0.0,0.0,0.0,0.0,0.0,0.0,0.0,0.0,0.0,0.0,0.0,0.0,0.0,0.0,0.0,0.0,0.0,0.0,0.0,0.0,0.0,0.0,0.0,0.0,0.0,0.0,0.0,0.0,0.0,0.0,0.0,0.0,0.0,0.0,0.0,0.0,0.0,0.0,0.0,0.0,0.0,0.0,0.0,0.0,0.0,0.0,0.0,0.0,0.0,0.0,0.0,0.0,0.0,0.0,0.0,0.0,0.0,0.0,0.0,0.0,0.0,0.0,0.0,0.0,0.0,0.0,0.0,0.0,0.0,0.0,0.0,0.0,0.0,0.0,0.0,0.0,0.0,0.0,0.0,0.0,0.0,0.0,0.0,0.0,0.0,0.0,0.0,0.0,0.0,0.0,0.0,0.0,0.0,0.0,0.0,0.0,0.0,0.0,0.0,0.0,0.0,0.0,0.0,0.0,0.0,0.0,0.0,0.0,0.0,0.0,0.0,0.0,0.0,0.0,0.0,0.0,0.0,0.0,0.0,0.0,0.0,0.0,0.0,0.0,0.0,0.0,0.0,0.0,0.0,0.0,0.0,0.0,0.0,0.0,0.0,0.0,0.0,0.0,0.0,0.0,0.0,0.0,0.0,0.0,0.0,0.0,0.0,0.0,0.0,0.0,0.0,0.0,0.0,0.0,0.0,0.0,0.0,0.0,0.0,0.0,0.0,0.0,0.0,0.0,0.0,0.0,0.0,0.0,0.0,0.0,0.0,0.0,0.0,0.0,0.0,0.0,0.0,0.0,0.0,0.0,0.0,0.0,0.0,0.0,0.0,0.0,0.0,0.0,0.0,0.0,0.0,0.0,0.0,0.0,0.0,0.0,0.0,0.0,0.0,0.0,0.0,0.0,0.0,0.0,0.0,0.0,0.0,0.0,0.0,0.0,0.0,0.0,0.0,0.0,0.0,0.0,0.0,0.0,0.0,0.0,0.0,0.0,0.0,0.0,0.0,0.0,0.0,0.0,0.0,0.0,0.0,0.0,0.0,0.0,0.0,0.0,0.0,0.0,0.0,0.0,0.0,0.0,0.0,0.0,0.0,0.0,0.0,0.0,0.0,0.0,0.0,0.0,0.0,0.0,0.0,0.0,0.0,0.0,0.0,0.0,0.0,0.0,0.0,0.0,0.0,0.0,0.0,0.0,0.0,0.0,0.0,0.0,0.0,0.0,0.0,0.0,0.0,0.0,0.0,0.0,0.0,0.0,0.0,0.0,0.0,0.0,0.0,0.0,0.0,0.0,0.0,0.0,0.0,0.0,0.0,0.0,0.0,0.0,0.0,0.0,0.0,0.0,0.0,0.0,0.0,0.0,0.0,0.0,0.0,0.0,0.0,0.0,0.0,0.0,0.0,0.0,0.0,0.0,0.0,0.0,0.0,0.0,0.0,0.0,0.0,0.0,0.0,0.0,0.0,0.0,0.0,0.0,0.0,0.0,0.0,0.0,0.0,0.0,0.0,0.0,0.0,0.0,0.0,0.0,0.0,0.0,0.0,0.0,0.0,0.0,0.0,0.0,0.0,0.0,0.0,0.0,0.0,0.0,0.0,0.0,0.0,0.0,0.0,0.0,0.0,0.0,0.0,0.0,0.0,0.0,0.0,0.0,0.0,0.0,0.0,0.0,0.0,0.0,0.0,0.0,0.0,0.0,0.0,0.0,0.0,0.0,0.0,0.0,0.0,0.0,0.0,0.0,0.0,0.0,0.0,0.0,0.0,0.0,0.0,0.0,0.0,0.0,0.0,0.0,0.0,0.0,0.0,0.0,0.0,0.0,0.0,0.0,0.0,0.0,0.0,0.0,0.0,0.0,0.0,0.0,0.0,0.0,0.0,0.0,0.0,0.0,0.0,0.0,0.0,0.0,0.0,0.0,0.0,0.0,0.0,0.0,0.0,0.0,0.0,0.0,0.0,0.0,0.0,0.0,0.0,0.0,0.0,0.0,0.0,0.0,0.0,0.0,0.0,0.0,0.0,0.0,0.0,0.0,0.0,0.0,0.0,0.0,0.0,0.0,0.0,0.0,0.0,0.0,0.0,0.0,0.0,0.0,0.0,0.0,0.0,0.0,0.0,0.0,0.0,0.0,0.0,0.0,0.0,0.0,0.0,0.0,0.0,0.0,0.0,0.0,0.0,0.0,0.0,0.0,0.0,0.0,0.0,0.0,0.0,0.0,0.0,0.0,0.0,0.0,0.0,0.0,0.0,0.0,0.0,0.0,0.0,0.0,0.0,0.0,0.0,0.0,0.0,0.0,0.0,0.0,0.0,0.0,0.0,0.0,0.0,0.0,0.0,0.0,0.0,0.0,0.0,0.0,0.0,0.0,0.0,0.0,0.0,0.0,0.0,0.0,0.0,0.0,0.0,0.0,0.0,0.0,0.0,0.0,0.0,0.0,0.0,0.0,0.0,0.0,0.0,0.0,0.0,0.0,0.0,0.0,0.0,0.0,0.0,0.0,0.0,0.0,0.0,0.0,0.0,0.0,0.0,0.0,0.0,0.0,0.0,0.0,0.0,0.0,0.0,0.0,0.0,0.0,0.0,0.0,0.0,0.0,0.0,0.0,0.0,0.0,0.0,0.0,0.0,0.0,0.0,0.0,0.0,0.0,0.0,0.0,0.0,0.0,0.0,0.0,0.0,0.0,0.0,0.0,0.0,0.0,0.0,0.0,0.0,0.0,0.0,0.0,0.0,0.0,0.0,0.0,0.0,0.0,0.0,0.0,0.0,0.0,0.0,0.0,0.0,0.0,0.0,0.0,0.0,0.0,0.0,0.0,0.0,0.0,0.0,0.0,0.0,0.0,0.0,0.0,0.0,0.0,0.0,0.0,0.0,0.0,0.0,0.0,0.0,0.0,0.0,0.0,0.0,0.0,0.0,0.0,0.0,0.0,0.0,0.0,0.0,0.0,0.0,0.0,0.0,0.0,0.0,0.0,0.0,0.0,0.0,0.0,0.0,0.0,0.0,0.0,0.0,0.0,0.0,0.0,0.0,0.0,0.0,0.0,0.0,0.0,0.0,0.0,0.0,0.0,0.0,0.0,0.0,0.0,0.0,0.0,0.0,0.0,0.0,0.0,0.0,0.0,0.0,0.0,0.0,0.0,0.0,0.0,0.0,0.0,0.0,0.0,0.0,0.0,0.0,0.0,0.0,0.0,0.0,0.0,0.0,0.0,0.0,0.0,0.0,0.0,0.0,0.0,0.0,0.0,0.0,0.0,0.0,0.0,0.0,0.0,0.0,0.0,0.0,0.0,0.0,0.0,0.0,0.0,0.0,0.0,0.0,0.0,0.0,0.0,0.0,3.6916,0.0,0.0,0.0,0.0,0.0,0.0,0.0,0.0,0.0,0.0,0.0,0.0,0.0,0.0,0.0,0.0,0.0,0.0,0.0,0.0,0.0,0.0,0.0,0.0,0.0,0.0,0.0,0.0,0.0,0.0,0.0,0.0,0.0,0.0,0.0,0.0,0.0,0.0,0.0,0.0,0.0,0.0,0.0,0.0,0.0,0.0,0.0,0.0,0.0,0.0,0.0,0.0,0.0,0.0,0.0,0.0,0.0,0.0,0.0,0.0,0.0,0.0,0.0,0.0,0.0,0.0,0.0,0.0,0.0,0.0,0.0,0.0,0.0,0.0,0.0,0.0,0.0,0.0,0.0,0.0,0.0,0.0,0.0,0.0,0.0,0.0,0.0,0.0,0.0,0.0,0.0,0.0,0.0,0.0,0.0,0.0,0.0,0.0,0.0,0.0,0.0,0.0,0.0,0.0,0.0,0.0,0.0,0.0,0.0,0.0,3.7887,3.7867,3.7048,3.6816,3.7265,0.0,0.0,0.0,0.0,0.0,0.0,0.0,0.0,0.0,0.0,0.0,0.0,0.0,0.0,0.0,0.0,0.0,0.0,0.0,0.0,0.0,0.0,0.0,0.0,0.0,0.0,0.0,0.0,0.0,0.0,0.0,0.0,0.0,0.0,0.0,0.0,0.0,0.0,0.0,0.0,0.0,0.0,0.0,0.0,0.0,0.0,0.0,0.0,0.0,0.0,0.0,0.0,0.0,0.0,0.0,0.0,0.0,0.0,0.0,0.0,0.0,0.0,0.0,0.0,0.0,0.0,0.0,0.0,0.0,0.0,0.0,0.0,0.0,0.0,0.0,0.0,0.0,0.0,0.0,0.0,0.0,0.0,0.0,0.0,0.0,0.0,0.0,0.0,0.0,0.0,0.0,0.0,0.0,0.0,0.0,0.0,0.0,0.0,0.0,0.0,0.0,0.0,0.0,0.0,0.0,0.0,0.0,0.0,0.0,0.0,0.0,0.0,3.7812,3.7575,3.7822,0.0,0.0,0.0,0.0,0.0,0.0,0.0,0.0,0.0,0.0,0.0,0.0,0.0,0.0,0.0,0.0,0.0,0.0,0.0,0.0,0.0,0.0,0.0,0.0,0.0,0.0,0.0,0.0,0.0,0.0,0.0,0.0,0.0,0.0,0.0,0.0,0.0,0.0,0.0,0.0,0.0,0.0,0.0,0.0,0.0,0.0,0.0,0.0,0.0,0.0,0.0,0.0,0.0,0.0,0.0,0.0,0.0,0.0,0.0,0.0,0.0,0.0,0.0,0.0,0.0,0.0,0.0,0.0,0.0,0.0,0.0,0.0,0.0,0.0,0.0,0.0,0.0,0.0,0.0,0.0,0.0,0.0,0.0,0.0,0.0,0.0,0.0,0.0,0.0,0.0,0.0,0.0,0.0,0.0,0.0,0.0,0.0,0.0,0.0,0.0,0.0,0.0,0.0,0.0,0.0,0.0,0.0,0.0,0.0,0.0,4.1127,4.1892,4.1833,0.0,3.9633,0.0,0.0,0.0,0.0,0.0,0.0,0.0,0.0,0.0,0.0,0.0,0.0,0.0,0.0,0.0,0.0,0.0,0.0,0.0,0.0,0.0,0.0,0.0,0.0,0.0,0.0,0.0,0.0,0.0,0.0,0.0,0.0,0.0,0.0,0.0,0.0,0.0,0.0,0.0,0.0,0.0,0.0,0.0,0.0,0.0,0.0,0.0,0.0,0.0,0.0,0.0,0.0,0.0,0.0,0.0,0.0,0.0,0.0,0.0,0.0,0.0,0.0,0.0,0.0,0.0,0.0,0.0,0.0,0.0,0.0,0.0,0.0,0.0,0.0,0.0,0.0,0.0,0.0,0.0,0.0,0.0,0.0,0.0,0.0,0.0,0.0,0.0,0.0,0.0,0.0,0.0,0.0,0.0,0.0,0.0,0.0,0.0,0.0,0.0,0.0,0.0,0.0,0.0,0.0,0.0,0.0,0.0,0.0,0.0,0.0,4.0784,4.1618,4.1631,4.1058,0.0,0.0,0.0,0.0,0.0,0.0,0.0,0.0,0.0,0.0,0.0,0.0,0.0,0.0,0.0,0.0,0.0,0.0,0.0,0.0,0.0,0.0,0.0,0.0,0.0,0.0,0.0,0.0,0.0,0.0,0.0,0.0,0.0,0.0,0.0,0.0,0.0,0.0,0.0,0.0,0.0,0.0,0.0,0.0,0.0,0.0,0.0,0.0,0.0,0.0,0.0,0.0,0.0,0.0,0.0,0.0,0.0,0.0,0.0,0.0,0.0,0.0,0.0,0.0,0.0,0.0,0.0,0.0,0.0,0.0,0.0,0.0,0.0,0.0,0.0,0.0,0.0,0.0,0.0,0.0,0.0,0.0,0.0,0.0,0.0,0.0,0.0,0.0,0.0,0.0,0.0,0.0,0.0,0.0,0.0,0.0,0.0,0.0,0.0,0.0,0.0,0.0,0.0,0.0,0.0,0.0,0.0,0.0,0.0,0.0,4.1142,4.1101,4.2053,4.1241,4.0664,4.0485,0.0,0.0,0.0,0.0,0.0,0.0,0.0,0.0,0.0,0.0,0.0,0.0,0.0,0.0,0.0,0.0,0.0,0.0,0.0,0.0,0.0,0.0,0.0,0.0,0.0,0.0,0.0,0.0,0.0,0.0,0.0,0.0,0.0,0.0,0.0,0.0,0.0,0.0,0.0,0.0,0.0,0.0,0.0,0.0,0.0,0.0,0.0,0.0,0.0,0.0,0.0,0.0,0.0,0.0,0.0,0.0,0.0,0.0,0.0,0.0,0.0,0.0,0.0,0.0,0.0,0.0,0.0,0.0,0.0,0.0,0.0,0.0,0.0,0.0,0.0,0.0,0.0,0.0,0.0,0.0,0.0,0.0,0.0,0.0,0.0,0.0,0.0,0.0,0.0,0.0,0.0,0.0,0.0,0.0,0.0,0.0,0.0,0.0,0.0,0.0,0.0,0.0,0.0,0.0,0.0,0.0,0.0,0.0,4.4582,4.3118,4.3088,4.4583,4.1604,4.0582,0.0,0.0,0.0,0.0,0.0,0.0,0.0,0.0,0.0,0.0,0.0,0.0,0.0,0.0,0.0,0.0,0.0,0.0,0.0,0.0,0.0,0.0,0.0,0.0,0.0,0.0,0.0,0.0,0.0,0.0,0.0,0.0,0.0,0.0,0.0,0.0,0.0,0.0,0.0,0.0,0.0,0.0,0.0,0.0,0.0,0.0,0.0,0.0,0.0,0.0,0.0,0.0,0.0,0.0,0.0,0.0,0.0,0.0,0.0,0.0,0.0,0.0,0.0,0.0,0.0,0.0,0.0,0.0,0.0,0.0,0.0,0.0,0.0,0.0,0.0,0.0,0.0,0.0,0.0,0.0,0.0,0.0,0.0,0.0,0.0,0.0,0.0,0.0,0.0,0.0,0.0,0.0,0.0,0.0,0.0,0.0,0.0,0.0,0.0,0.0,0.0,0.0,0.0,0.0,0.0,0.0,0.0,0.0,0.0,4.2454,4.2435,4.2692,4.3247,4.2109,4.1484,0.0,0.0,0.0,0.0,0.0,0.0,0.0,0.0,0.0,0.0,0.0,0.0,0.0,0.0,0.0,0.0,0.0,0.0,0.0,0.0,0.0,0.0,0.0,0.0,0.0,0.0,0.0,0.0,0.0,0.0,0.0,0.0,0.0,0.0,0.0,0.0,0.0,0.0,0.0,0.0,0.0,0.0,0.0,0.0,0.0,0.0,0.0,0.0,0.0,0.0,0.0,0.0,0.0,0.0,0.0,0.0,0.0,0.0,0.0,0.0,0.0,0.0,0.0,0.0,0.0,0.0,0.0,0.0,0.0,0.0,0.0,0.0,0.0,0.0,0.0,0.0,0.0,0.0,0.0,0.0,0.0,0.0,0.0,0.0,0.0,0.0,0.0,0.0,0.0,0.0,0.0,0.0,0.0,0.0,0.0,0.0,0.0,0.0,0.0,0.0,0.0,0.0,0.0,0.0,0.0,0.0,0.0,0.0,0.0,4.1546,0.0,4.2689,4.2419,4.2103,4.1566,0.0,0.0,0.0,0.0,0.0,0.0,0.0,0.0,0.0,0.0,0.0,0.0,0.0,0.0,0.0,0.0,0.0,0.0,0.0,0.0,0.0,0.0,0.0,0.0,0.0,0.0,0.0,0.0,0.0,0.0,0.0,0.0,0.0,0.0,0.0,0.0,0.0,0.0,0.0,0.0,0.0,0.0,0.0,0.0,0.0,0.0,0.0,0.0,0.0,0.0,0.0,0.0,0.0,0.0,0.0,0.0,0.0,0.0,0.0,0.0,0.0,0.0,0.0,0.0,0.0,0.0,0.0,0.0,0.0,0.0,0.0,0.0,0.0,0.0,0.0,0.0,0.0,0.0,0.0,0.0,0.0,0.0,0.0,0.0,0.0,0.0,0.0,0.0,0.0,0.0,0.0,0.0,0.0,0.0,0.0,0.0,0.0,0.0,0.0,0.0,0.0,0.0,0.0,0.0,0.0,0.0,0.0,0.0,4.1582,4.2357,4.3202,4.3235,4.2435,4.1592,4.0714,0.0,0.0,0.0,0.0,0.0,0.0,0.0,0.0,0.0,0.0,0.0,0.0,0.0,0.0,0.0,0.0,0.0,0.0,0.0,0.0,0.0,0.0,0.0,0.0,0.0,0.0,0.0,0.0,0.0,0.0,0.0,0.0,0.0,0.0,0.0,0.0,0.0,0.0,0.0,0.0,0.0,0.0,0.0,0.0,0.0,0.0,0.0,0.0,0.0,0.0,0.0,0.0,0.0,0.0,0.0,0.0,0.0,0.0,0.0,0.0,0.0,0.0,0.0,0.0,0.0,0.0,0.0,0.0,0.0,0.0,0.0,0.0,0.0,0.0,0.0,0.0,0.0,0.0,0.0,0.0,0.0,0.0,0.0,0.0,0.0,0.0,0.0,0.0,0.0,0.0,0.0,0.0,0.0,0.0,0.0,0.0,0.0,0.0,0.0,0.0,0.0,0.0,0.0,0.0,0.0,0.0,0.0,0.0,0.0,4.1517,4.2366,4.3255,4.4055,4.1596,4.0629,0.0,0.0,0.0,0.0,0.0,0.0,0.0,0.0,0.0,0.0,0.0,0.0,0.0,0.0,0.0,0.0,0.0,0.0,0.0,0.0,0.0,0.0,0.0,0.0,0.0,0.0,0.0,0.0,0.0,0.0,0.0,0.0,0.0,0.0,0.0,0.0,0.0,0.0,0.0,0.0,0.0,0.0,0.0,0.0,0.0,0.0,0.0,0.0,0.0,0.0,0.0,0.0,0.0,0.0,0.0,0.0,0.0,0.0,0.0,0.0,0.0,0.0,0.0,0.0,0.0,0.0,0.0,0.0,0.0,0.0,0.0,0.0,0.0,0.0,0.0,0.0,0.0,0.0,0.0,0.0,0.0,0.0,0.0,0.0,0.0,0.0,0.0,0.0,0.0,0.0,0.0,0.0,0.0,0.0,0.0,0.0,0.0,0.0,0.0,0.0,0.0,0.0,0.0,0.0,0.0,0.0,0.0,0.0,0.0,4.3064,4.3581,4.4214,4.4976,4.2887,4.1452,4.0877,0.0,0.0,0.0,0.0,0.0,0.0,0.0,0.0,0.0,0.0,0.0,0.0,0.0,0.0,0.0,0.0,0.0,0.0,0.0,0.0,0.0,0.0,0.0,0.0,0.0,0.0,0.0,0.0,0.0,0.0,0.0,0.0,0.0,0.0,0.0,0.0,0.0,0.0,0.0,0.0,0.0,0.0,0.0,0.0,0.0,0.0,0.0,0.0,0.0,0.0,0.0,0.0,0.0,0.0,0.0,0.0,0.0,0.0,0.0,0.0,0.0,0.0,0.0,0.0,0.0,0.0,0.0,0.0,0.0,0.0,0.0,0.0,0.0,0.0,0.0,0.0,0.0,0.0,0.0,0.0,0.0,0.0,0.0,0.0,0.0,0.0,0.0,0.0,0.0,0.0,0.0,0.0,0.0,0.0,0.0,0.0,0.0,0.0,0.0,0.0,0.0,0.0,0.0,0.0,0.0,0.0,0.0,0.0,4.6582,4.6729,4.6387,4.5447,4.5116,4.3056,0.0,0.0,0.0,0.0,0.0,0.0,0.0,0.0,0.0,0.0,0.0,0.0,0.0,0.0,0.0,0.0,0.0,0.0,0.0,0.0,0.0,0.0,0.0,0.0,0.0,0.0,0.0,0.0,0.0,0.0,0.0,0.0,0.0,0.0,0.0,0.0,0.0,0.0,0.0,0.0,0.0,0.0,0.0,0.0,0.0,0.0,0.0,0.0,0.0,0.0,0.0,0.0,0.0,0.0,0.0,0.0,0.0,0.0,0.0,0.0,0.0,0.0,0.0,0.0,0.0,0.0,0.0,0.0,0.0,0.0,0.0,0.0,0.0,0.0,0.0,0.0,0.0,0.0,0.0,0.0,0.0,0.0,0.0,0.0,0.0,0.0,0.0,0.0,0.0,0.0,0.0,0.0,0.0,0.0,0.0,0.0,0.0,0.0,0.0,0.0,0.0,0.0,0.0,0.0,0.0,0.0,0.0,0.0,0.0,5.0,5.1933,5.1909,4.9745,4.6658,4.4442,0.0,0.0,0.0,0.0,0.0,0.0,0.0,0.0,0.0,0.0,0.0,0.0,0.0,0.0,0.0,0.0,0.0,0.0,0.0,0.0,0.0,0.0,0.0,0.0,0.0,0.0,0.0,0.0,0.0,0.0,0.0,0.0,0.0,0.0,0.0,0.0,0.0,0.0,0.0,0.0,0.0,0.0,0.0,0.0,0.0,0.0,0.0,0.0,0.0,0.0,0.0,0.0,0.0,0.0,0.0,0.0,0.0,0.0,0.0,0.0,0.0,0.0,0.0,0.0,0.0,0.0,0.0,0.0,0.0,0.0,0.0,0.0,0.0,0.0,0.0,0.0,0.0,0.0,0.0,0.0,0.0,0.0,0.0,0.0,0.0,0.0,0.0,0.0,0.0,0.0,0.0,0.0,0.0,0.0,0.0,0.0,0.0,0.0,0.0,0.0,0.0,0.0,0.0,0.0,0.0,0.0,0.0,0.0,4.9414,5.2441,5.6113,5.7089,5.5228,5.0678,4.7015,0.0,0.0,0.0,0.0,0.0,0.0,0.0,0.0,0.0,0.0,0.0,0.0,0.0,0.0,0.0,0.0,0.0,0.0,0.0,0.0,0.0,0.0,0.0,0.0,0.0,0.0,0.0,0.0,0.0,0.0,0.0,0.0,0.0,0.0,0.0,0.0,0.0,0.0,0.0,0.0,0.0,0.0,0.0,0.0,0.0,0.0,0.0,0.0,0.0,0.0,0.0,0.0,0.0,0.0,0.0,0.0,0.0,0.0,0.0,0.0,0.0,0.0,0.0,0.0,0.0,0.0,0.0,0.0,0.0,0.0,0.0,0.0,0.0,0.0,0.0,0.0,0.0,0.0,0.0,0.0,0.0,0.0,0.0,0.0,0.0,0.0,0.0,0.0,0.0,0.0,0.0,0.0,0.0,0.0,0.0,0.0,0.0,0.0,0.0,0.0,0.0,0.0,0.0,0.0,0.0,0.0,0.0,0.0,5.1601,5.4258,5.914,6.1328,6.041,5.5449,5.0035,0.0,0.0,0.0,0.0,0.0,0.0,0.0,0.0,0.0,0.0,0.0,0.0,0.0,0.0,0.0,0.0,0.0,0.0,0.0,0.0,0.0,0.0,0.0,0.0,0.0,0.0,0.0,0.0,0.0,0.0,0.0,0.0,0.0,0.0,0.0,0.0,0.0,0.0,0.0,0.0,0.0,0.0,0.0,0.0,0.0,0.0,0.0,0.0,0.0,0.0,0.0,0.0,0.0,0.0,0.0,0.0,0.0,0.0,0.0,0.0,0.0,0.0,0.0,0.0,0.0,0.0,0.0,0.0,0.0,0.0,0.0,0.0,0.0,0.0,0.0,0.0,0.0,0.0,0.0,0.0,0.0,0.0,0.0,0.0,0.0,0.0,0.0,0.0,0.0,0.0,0.0,0.0,0.0,0.0,0.0,0.0,0.0,0.0,0.0,0.0,0.0,0.0,0.0,0.0,0.0,0.0,0.0,0.0,5.2734,5.5996,5.9746,6.1601,6.1406,5.5762,5.113,0.0,0.0,0.0,0.0,0.0,0.0,0.0,0.0,0.0,0.0,0.0,0.0,0.0,0.0,0.0,0.0,0.0,0.0,0.0,0.0,0.0,0.0,0.0,0.0,0.0,0.0,0.0,0.0,0.0,0.0,0.0,0.0,0.0,0.0,0.0,0.0,0.0,0.0,0.0,0.0,0.0,0.0,0.0,0.0,0.0,0.0,0.0,0.0,3.6615,0.0,0.0,0.0,0.0,0.0,0.0,0.0,0.0,0.0,0.0,0.0,0.0,0.0,0.0,0.0,0.0,0.0,0.0,0.0,0.0,0.0,0.0,0.0,0.0,0.0,0.0,0.0,0.0,0.0,0.0,0.0,0.0,0.0,0.0,0.0,0.0,0.0,0.0,0.0,0.0,0.0,0.0,0.0,0.0,0.0,0.0,0.0,0.0,0.0,0.0,0.0,0.0,0.0,0.0,0.0,0.0,0.0,0.0,0.0,5.3711,5.7148,6.0566,6.2109,6.1543,5.625,5.2068,0.0,0.0,0.0,0.0,0.0,0.0,0.0,0.0,0.0,0.0,0.0,0.0,0.0,0.0,0.0,0.0,0.0,0.0,0.0,0.0,0.0,0.0,0.0,0.0,0.0,0.0,0.0,0.0,0.0,0.0,0.0,0.0,0.0,0.0,0.0,0.0,0.0,0.0,0.0,0.0,0.0,0.0,0.0,0.0,0.0,0.0,0.0,0.0,0.0,0.0,0.0,0.0,0.0,0.0,0.0,0.0,0.0,0.0,0.0,0.0,0.0,0.0,0.0,0.0,0.0,0.0,0.0,0.0,0.0,0.0,0.0,0.0,0.0,0.0,0.0,0.0,0.0,0.0,0.0,0.0,0.0,0.0,0.0,0.0,0.0,0.0,0.0,0.0,0.0,0.0,0.0,0.0,0.0,0.0,0.0,0.0,0.0,0.0,0.0,0.0,0.0,0.0,0.0,0.0,0.0,0.0,0.0,5.0586,5.4258,5.7832,6.0976,6.2187,6.1269,5.6445,5.2596,4.9985,0.0,0.0,0.0,0.0,0.0,0.0,0.0,0.0,0.0,0.0,0.0,0.0,0.0,0.0,0.0,0.0,0.0,0.0,0.0,0.0,0.0,0.0,0.0,0.0,0.0,0.0,0.0,0.0,0.0,0.0,0.0,0.0,0.0,0.0,0.0,0.0,0.0,0.0,3.5815,3.5916,0.0,0.0,0.0,0.0,0.0,0.0,0.0,0.0,3.592,0.0,0.0,0.0,0.0,0.0,0.0,0.0,0.0,0.0,0.0,0.0,0.0,0.0,0.0,0.0,0.0,0.0,0.0,0.0,0.0,0.0,0.0,0.0,0.0,0.0,0.0,0.0,0.0,0.0,0.0,0.0,0.0,0.0,0.0,0.0,0.0,0.0,0.0,0.0,0.0,0.0,0.0,0.0,0.0,0.0,0.0,0.0,0.0,0.0,0.0,0.0,0.0,0.0,0.0,0.0,0.0,4.9492,5.0918,5.3652,5.7793,5.9824,6.043,5.9531,5.5273,5.1719,4.9081,0.0,0.0,0.0,0.0,0.0,0.0,0.0,0.0,0.0,0.0,0.0,0.0,0.0,0.0,0.0,0.0,0.0,0.0,0.0,0.0,0.0,0.0,0.0,0.0,0.0,0.0,0.0,0.0,0.0,0.0,0.0,0.0,0.0,0.0,0.0,0.0,0.0,0.0,0.0,3.7262,3.7463,0.0,0.0,0.0,0.0,0.0,0.0,0.0,0.0,3.623,0.0,0.0,0.0,0.0,0.0,0.0,0.0,0.0,0.0,0.0,0.0,0.0,0.0,0.0,0.0,0.0,0.0,0.0,0.0,0.0,0.0,0.0,0.0,0.0,0.0,0.0,0.0,0.0,0.0,0.0,0.0,0.0,0.0,0.0,0.0,0.0,0.0,0.0,0.0,0.0,0.0,0.0,0.0,0.0,0.0,0.0,0.0,0.0,0.0,0.0,0.0,0.0,0.0,0.0,0.0,4.9336,5.1211,5.3965,5.7773,5.914,5.916,5.7812,5.3652,4.998,0.0,0.0,0.0,0.0,0.0,0.0,0.0,0.0,0.0,0.0,0.0,0.0,0.0,0.0,0.0,0.0,0.0,0.0,0.0,0.0,0.0,0.0,0.0,0.0,0.0,0.0,0.0,0.0,0.0,0.0,0.0,0.0,0.0,0.0,0.0,0.0,0.0,0.0,0.0,0.0,3.8175,3.8231,3.8156,0.0,0.0,0.0,0.0,0.0,0.0,3.6239,3.5977,0.0,0.0,0.0,0.0,0.0,0.0,0.0,0.0,0.0,0.0,0.0,0.0,0.0,0.0,0.0,0.0,0.0,0.0,0.0,0.0,0.0,0.0,0.0,0.0,0.0,0.0,0.0,0.0,0.0,0.0,0.0,0.0,0.0,0.0,0.0,0.0,0.0,0.0,0.0,0.0,0.0,0.0,0.0,0.0,0.0,0.0,0.0,0.0,0.0,0.0,0.0,0.0,0.0,0.0,0.0,4.8574,5.1133,5.4023,5.7226,5.8223,5.793,5.6328,5.2168,4.8476,0.0,0.0,0.0,0.0,0.0,0.0,0.0,0.0,0.0,0.0,0.0,0.0,0.0,0.0,0.0,0.0,0.0,0.0,0.0,0.0,0.0,0.0,0.0,0.0,0.0,0.0,0.0,0.0,0.0,0.0,0.0,0.0,0.0,0.0,0.0,0.0,0.0,0.0,0.0,0.0,0.0,3.9166,3.8766,3.8266,0.0,0.0,0.0,0.0,3.5955,3.635,0.0,0.0,0.0,0.0,0.0,0.0,0.0,0.0,0.0,0.0,0.0,0.0,0.0,0.0,0.0,0.0,0.0,0.0,0.0,0.0,0.0,0.0,0.0,0.0,0.0,0.0,0.0,0.0,0.0,0.0,0.0,0.0,0.0,0.0,0.0,0.0,0.0,0.0,0.0,0.0,0.0,0.0,0.0,0.0,0.0,0.0,0.0,0.0,0.0,0.0,0.0,0.0,0.0,0.0,0.0,0.0,4.7695,5.0273,5.2871,5.5469,5.6465,5.6445,5.543,5.1289,4.8144,0.0,0.0,0.0,0.0,0.0,0.0,0.0,0.0,0.0,0.0,0.0,0.0,0.0,0.0,0.0,0.0,0.0,0.0,0.0,0.0,0.0,0.0,0.0,0.0,0.0,0.0,0.0,0.0,0.0,0.0,0.0,0.0,0.0,0.0,0.0,0.0,0.0,0.0,0.0,0.0,0.0,4.0691,3.8956,3.8942,3.8584,0.0,0.0,3.7578,3.6875,3.8604,0.0,0.0,0.0,0.0,0.0,0.0,0.0,0.0,0.0,0.0,0.0,0.0,0.0,0.0,0.0,0.0,0.0,0.0,0.0,0.0,0.0,0.0,0.0,0.0,0.0,0.0,0.0,0.0,0.0,0.0,0.0,0.0,0.0,0.0,0.0,0.0,0.0,0.0,0.0,0.0,0.0,0.0,0.0,0.0,0.0,0.0,0.0,0.0,0.0,0.0,0.0,0.0,0.0,0.0,0.0,4.4609,4.7539,4.9668,5.2207,5.5176,5.5195,5.4707,5.3848,4.9687,4.6601,0.0,0.0,0.0,0.0,0.0,0.0,0.0,0.0,0.0,0.0,0.0,0.0,0.0,0.0,0.0,0.0,0.0,0.0,0.0,0.0,0.0,0.0,0.0,0.0,0.0,0.0,0.0,0.0,0.0,0.0,0.0,0.0,0.0,0.0,0.0,0.0,0.0,0.0,0.0,0.0,0.0,0.0,3.9957,4.0166,0.0,0.0,0.0,3.873,3.8426,0.0,0.0,0.0,0.0,0.0,0.0,0.0,0.0,0.0,0.0,0.0,0.0,0.0,0.0,0.0,0.0,0.0,0.0,0.0,0.0,0.0,0.0,0.0,0.0,0.0,0.0,0.0,0.0,0.0,0.0,0.0,0.0,0.0,0.0,0.0,0.0,0.0,0.0,0.0,0.0,0.0,0.0,0.0,0.0,0.0,0.0,0.0,0.0,0.0,0.0,0.0,0.0,0.0,0.0,0.0,0.0,0.0,4.6933,4.9101,5.1543,5.4199,5.3906,5.3262,5.2344,4.8418,0.0,0.0,0.0,0.0,0.0,0.0,0.0,0.0,0.0,0.0,0.0,0.0,0.0,0.0,0.0,0.0,0.0,0.0,0.0,0.0,0.0,0.0,0.0,0.0,0.0,0.0,0.0,3.3977,0.0,0.0,0.0,0.0,0.0,0.0,0.0,0.0,0.0,0.0,0.0,0.0,0.0,0.0,4.2203,4.0716,4.1097,4.1385,0.0,0.0,3.9598,3.9187,3.8527,3.7713,0.0,0.0,0.0,0.0,0.0,0.0,0.0,0.0,0.0,0.0,0.0,0.0,0.0,0.0,0.0,0.0,0.0,0.0,0.0,0.0,0.0,0.0,0.0,0.0,0.0,0.0,0.0,0.0,0.0,0.0,0.0,0.0,0.0,0.0,0.0,0.0,0.0,0.0,0.0,0.0,0.0,0.0,0.0,0.0,0.0,0.0,0.0,0.0,0.0,0.0,0.0,0.0,0.0,0.0,0.0,4.5215,4.8496,5.0683,5.166,5.2402,5.2383,5.1484,4.8125,4.5859,0.0,0.0,0.0,0.0,0.0,0.0,0.0,0.0,0.0,0.0,0.0,0.0,0.0,0.0,0.0,0.0,0.0,0.0,0.0,0.0,0.0,0.0,0.0,0.0,0.0,0.0,0.0,0.0,0.0,0.0,0.0,0.0,0.0,0.0,0.0,0.0,0.0,0.0,0.0,0.0,0.0,4.2545,4.0834,4.134,4.1842,0.0,4.1089,4.0036,3.8367,3.9977,4.0153,3.6312,0.0,0.0,0.0,0.0,0.0,0.0,0.0,0.0,0.0,0.0,0.0,0.0,0.0,0.0,0.0,0.0,0.0,0.0,0.0,0.0,0.0,0.0,0.0,0.0,0.0,0.0,0.0,0.0,0.0,0.0,0.0,0.0,0.0,0.0,0.0,0.0,0.0,0.0,0.0,0.0,0.0,0.0,0.0,0.0,0.0,0.0,0.0,0.0,0.0,0.0,0.0,0.0,0.0,4.4062,4.5781,4.8183,5.0312,5.2109,5.2012,5.1504,5.0683,4.8359,4.5937,0.0,0.0,0.0,0.0,0.0,0.0,0.0,0.0,0.0,0.0,0.0,0.0,0.0,0.0,0.0,0.0,0.0,0.0,0.0,0.0,0.0,0.0,0.0,0.0,0.0,0.0,0.0,0.0,3.541,3.5929,3.6453,0.0,0.0,0.0,0.0,0.0,0.0,0.0,0.0,0.0,0.0,4.299,4.2241,4.2429,0.0,0.0,4.162,4.0839,3.9123,3.9685,3.9416,3.6832,3.6543,0.0,0.0,0.0,0.0,0.0,0.0,0.0,0.0,0.0,0.0,0.0,0.0,0.0,0.0,0.0,0.0,0.0,0.0,0.0,0.0,0.0,0.0,0.0,0.0,0.0,0.0,0.0,0.0,0.0,0.0,0.0,0.0,0.0,0.0,0.0,0.0,0.0,0.0,0.0,0.0,0.0,0.0,0.0,0.0,0.0,0.0,0.0,0.0,0.0,0.0,0.0,0.0,4.4159,4.5898,4.7871,4.9883,5.1914,5.1601,5.0898,4.9824,4.8379,4.6094,0.0,0.0,0.0,0.0,0.0,0.0,0.0,0.0,0.0,0.0,0.0,0.0,0.0,0.0,0.0,0.0,0.0,0.0,0.0,0.0,0.0,0.0,0.0,0.0,0.0,0.0,0.0,0.0,3.5616,3.644,3.7275,0.0,0.0,0.0,0.0,0.0,0.0,0.0,0.0,0.0,0.0,4.2758,4.2444,4.2603,4.256,4.1981,4.148,4.0742,3.9573,3.8969,3.8073,3.6394,0.0,0.0,0.0,0.0,0.0,0.0,0.0,0.0,0.0,0.0,0.0,0.0,0.0,0.0,0.0,0.0,0.0,0.0,0.0,0.0,0.0,0.0,0.0,0.0,0.0,0.0,0.0,0.0,0.0,0.0,3.9833,0.0,0.0,0.0,0.0,0.0,0.0,0.0,0.0,0.0,0.0,0.0,0.0,0.0,0.0,0.0,0.0,0.0,0.0,0.0,0.0,0.0,0.0,4.3312,4.5039,4.7598,4.9355,5.0273,5.1016,5.0625,4.9023,4.8086,4.6367,4.373,0.0,0.0,0.0,0.0,0.0,0.0,0.0,0.0,0.0,0.0,0.0,0.0,0.0,0.0,0.0,0.0,0.0,0.0,0.0,0.0,0.0,0.0,0.0,0.0,0.0,0.0,3.5974,3.6537,3.7342,0.0,0.0,0.0,0.0,0.0,0.0,0.0,0.0,0.0,0.0,4.0935,4.1624,4.088,4.1473,4.1928,4.1822,4.0532,3.9503,3.9334,3.7988,3.6277,0.0,0.0,0.0,0.0,0.0,0.0,0.0,0.0,0.0,0.0,0.0,0.0,0.0,0.0,0.0,0.0,0.0,0.0,0.0,0.0,0.0,0.0,0.0,0.0,0.0,0.0,0.0,4.1948,4.1968,0.0,0.0,0.0,0.0,0.0,0.0,0.0,0.0,0.0,0.0,0.0,3.9842,4.0413,0.0,0.0,0.0,0.0,0.0,0.0,0.0,0.0,0.0,0.0,0.0,0.0,4.3849,4.5058,4.7578,4.9316,5.0176,5.0976,5.0879,4.9805,4.8906,4.668,4.2969,0.0,0.0,0.0,0.0,0.0,0.0,0.0,0.0,0.0,0.0,0.0,0.0,0.0,0.0,0.0,0.0,0.0,0.0,0.0,0.0,0.0,0.0,0.0,0.0,0.0,3.7844,0.0,0.0,0.0,0.0,0.0,0.0,0.0,0.0,0.0,0.0,0.0,3.9879,3.9576,3.9972,4.0183,3.9876,4.0094,4.0048,0.0,0.0,0.0,0.0,0.0,0.0,0.0,0.0,0.0,0.0,0.0,0.0,0.0,0.0,3.4229,3.4141,3.4079,3.382,3.3122,0.0,0.0,0.0,0.0,0.0,0.0,0.0,0.0,0.0,0.0,0.0,0.0,0.0,0.0,4.2685,0.0,4.2721,0.0,0.0,0.0,0.0,0.0,0.0,0.0,0.0,4.0489,4.13,4.1569,4.214,4.2385,0.0,4.1819,4.1091,0.0,0.0,0.0,0.0,0.0,0.0,0.0,0.0,4.4094,4.5018,4.7265,4.9023,5.0156,5.0703,5.0586,4.9746,4.8301,4.6074,4.2949,4.0957,3.9258,0.0,0.0,0.0,0.0,0.0,0.0,0.0,0.0,0.0,0.0,0.0,0.0,0.0,0.0,0.0,0.0,0.0,0.0,0.0,0.0,0.0,0.0,0.0,3.8681,0.0,0.0,0.0,0.0,0.0,0.0,0.0,0.0,0.0,3.9638,3.9572,3.9555,3.9517,3.9216,3.8994,3.8987,0.0,0.0,0.0,0.0,0.0,0.0,0.0,3.7614,3.5878,3.6551,3.7199,3.682,3.723,3.734,3.6492,0.0,0.0,3.4016,3.3891,3.3627,3.2831,3.3283,3.3815,3.3832,3.4176,3.4461,0.0,0.0,0.0,0.0,0.0,0.0,0.0,0.0,4.3797,4.3349,0.0,4.3362,0.0,0.0,0.0,0.0,0.0,4.044,0.0,0.0,4.2527,4.3271,4.252,4.2572,4.2529,4.2485,4.2467,4.1992,4.1091,3.9507,0.0,0.0,0.0,0.0,0.0,0.0,4.4005,4.4936,4.6718,4.8457,5.0019,5.0176,4.9785,4.8828,4.6465,4.4726,4.3711,4.2793,4.1211,3.8769,3.9316,0.0,0.0,0.0,0.0,0.0,0.0,0.0,0.0,0.0,0.0,0.0,0.0,0.0,0.0,0.0,0.0,0.0,0.0,0.0,0.0,3.859,0.0,0.0,0.0,0.0,0.0,0.0,0.0,0.0,0.0,0.0,3.949,3.9469,3.9436,3.9432,0.0,0.0,0.0,0.0,3.8041,3.8067,3.8143,3.8144,3.8098,3.8164,3.7614,3.5974,0.0,0.0,3.4481,3.5669,3.6559,3.5714,3.552,3.5149,3.405,3.3824,3.3639,3.333,3.3842,3.449,3.4562,3.4376,3.4375,4.8798,0.0,0.0,0.0,0.0,4.4078,4.4977,4.6346,4.5787,4.5395,4.5113,4.4124,0.0,0.0,0.0,0.0,0.0,0.0,4.2817,4.2662,4.4002,4.4504,4.4272,4.4882,4.4862,4.4231,4.3618,4.289,4.2012,4.0974,4.0558,4.0707,0.0,0.0,0.0,0.0,4.3922,4.4913,4.7167,4.8379,4.834,4.957,4.9492,4.8008,4.7246,4.5859,4.3789,4.2804,4.141,3.9471,3.8424,0.0,0.0,0.0,0.0,0.0,0.0,0.0,0.0,0.0,0.0,0.0,0.0,0.0,0.0,0.0,0.0,0.0,0.0,0.0,4.1275,4.073,4.0285,0.0,0.0,0.0,0.0,0.0,0.0,0.0,0.0,0.0,3.9471,3.8466,3.7949,0.0,0.0,3.6678,3.7268,3.677,3.6327,3.6335,3.6837,0.0,3.7199,3.7723,3.7951,3.7385,3.7808,3.7747,3.6311,3.692,3.7334,3.6483,3.5718,3.5045,3.4548,3.3923,3.3204,3.2306,3.2631,3.3157,3.3209,3.3579,3.399,5.2758,4.8817,4.6993,4.6201,4.615,4.6303,4.7,4.8,4.7186,4.6627,4.623,4.5187,4.4055,4.2907,4.29,0.0,0.0,0.0,4.3884,4.4224,4.477,4.5182,4.5527,4.6035,4.6035,4.5508,4.4978,4.429,4.3431,4.2609,4.219,4.2069,0.0,0.0,4.2198,4.2974,4.3804,4.4759,4.6998,4.8125,4.8066,4.9121,4.9023,4.7676,4.7285,4.6348,4.4785,4.3526,4.2042,4.0287,3.8885,3.7831,0.0,0.0,0.0,0.0,0.0,0.0,0.0,0.0,0.0,0.0,0.0,3.636,3.5961,0.0,0.0,0.0,4.029,4.1423,4.1409,4.0602,0.0,0.0,0.0,0.0,0.0,0.0,0.0,3.821,3.8606,3.8855,3.8497,3.7578,3.7401,3.8588,3.6998,3.6018,3.6851,0.0,3.5685,3.606,3.6497,3.6805,3.682,3.754,3.8061,3.8012,3.8416,3.832,3.7055,3.7175,3.718,3.6397,3.5695,3.5138,3.4754,3.4261,3.3627,3.2582,3.272,3.3051,3.3066,3.3715,3.4357,5.6261,5.3596,5.0293,4.8852,4.8725,4.8736,4.8867,4.9023,4.8183,4.7305,4.6523,4.6358,4.5372,4.381,4.381,0.0,4.3922,4.3902,4.4341,4.5098,4.5098,4.5527,4.6269,4.6289,4.6289,4.6289,4.6289,4.5898,4.5078,4.4297,4.3818,4.3643,4.1965,4.1507,4.2299,4.3043,4.3786,4.4608,4.6528,4.7891,4.8691,4.8691,4.832,4.75,4.666,4.6191,4.6133,4.4433,4.2674,4.0984,3.9984,3.8753,3.7237,0.0,0.0,0.0,0.0,0.0,0.0,0.0,0.0,0.0,0.0,0.0,0.0,0.0,0.0,0.0,3.9282,0.0,4.0076,3.9258,0.0,0.0,0.0,3.9927,4.0516,4.0029,3.9549,3.9405,0.0,0.0,3.7102,3.6865,3.7373,3.8977,3.7123,3.5921,3.6767,3.6098,3.5817,3.6574,3.6786,3.6813,3.6813,3.7516,3.8074,3.8016,3.806,3.7877,3.7079,3.6873,3.6526,3.5853,3.5518,3.5289,3.4774,3.4615,3.4461,3.3821,3.3752,3.3788,3.3788,3.4283,3.4954,5.6959,5.4574,5.3725,5.2297,5.0613,5.0059,5.0195,5.0723,4.9922,4.9082,4.8183,4.6874,4.5702,4.4706,4.4706,4.5056,4.5678,4.5678,4.5799,4.5976,4.5996,4.6094,4.6289,4.6289,4.6289,4.6289,4.6289,4.6191,4.5996,4.5781,4.4969,4.3645,4.3128,4.2955,4.3125,4.3805,4.4286,4.4586,4.7042,4.8496,4.8789,4.7578,4.6816,4.6621,4.5762,4.5312,4.5273,4.293,4.1116,3.996,3.8465,3.7166,3.6123,3.6969,0.0,0.0,0.0,0.0,0.0,0.0,0.0,0.0,0.0,3.7194,3.6961,0.0,3.9044,0.0,3.8983,4.0405,4.1621,4.0877,0.0,0.0,4.0072,3.9998,3.8955,3.9813,3.9971,3.867,3.8325,3.8097,3.7833,3.6694,3.6257,3.7166,3.6344,3.592,3.6721,3.6137,3.5637,3.5868,3.6344,3.6735,3.6766,3.745,3.7988,3.7998,3.8522,3.87,3.7829,3.77,3.743,3.6536,3.5556,3.4927,3.4714,3.4348,3.4005,3.3842,3.3807,3.3807,3.3807,3.3981,3.4146,5.7077,5.5493,5.4668,5.3604,5.2452,5.1581,5.1289,5.1328,5.0547,4.9707,4.8808,4.707,4.625,4.6133,4.5742,4.584,4.6289,4.6289,4.6289,4.6289,4.6289,4.6289,4.6289,4.6289,4.6289,4.6289,4.6289,4.6289,4.6289,4.6289,4.5743,4.4713,4.4599,4.437,4.3956,4.3921,4.4302,4.514,4.7052,4.8487,4.9297,4.7754,4.6875,4.6836,4.5664,4.5019,4.5,4.248,4.0992,4.0766,3.916,3.781,3.6965,3.743,3.778,0.0,0.0,0.0,0.0,0.0,0.0,0.0,0.0,0.0,0.0,0.0,3.9226,3.8966,3.9529,4.0228,4.1061,4.0354,3.9766,3.9616,3.9982,4.0017,3.9399,4.0223,4.0428,3.9469,3.8999,3.8574,3.8166,3.6949,3.6078,3.6175,3.5815,3.5732,3.6132,3.5824,3.5541,3.5515,3.59,3.6175,3.6161,3.6565,3.7021,3.7357,3.7546,3.759,3.7725,3.7264,3.6757,3.6356,3.5532,3.4774,3.4529,3.4218,3.3961,3.3842,3.3807,3.3807,3.3807,3.3807,3.3862,5.6725,5.5901,5.4264,5.361,5.3605,5.2718,5.1973,5.1348,5.0664,4.9863,4.8965,4.7344,4.6992,4.7539,4.6797,4.6406,4.6289,4.6289,4.6289,4.6289,4.6289,4.6289,4.6289,4.6289,4.6289,4.6289,4.6289,4.6289,4.6289,4.6289,4.6162,4.5931,4.5812,4.5349,4.4569,4.3858,4.4312,4.5984,4.6804,4.8055,4.9766,4.8262,4.7422,4.7363,4.5742,4.4824,4.4785,4.2383,4.1269,4.1699,4.0343,3.9141,3.8297,3.843,3.8603,0.0,3.8105,0.0,0.0,0.0,0.0,0.0,0.0,0.0,0.0,3.8194,3.9257,4.0893,4.0338,3.9887,3.9867,3.9204,3.9078,3.974,3.9837,4.0082,4.0709,4.0823,4.0812,4.0812,3.9986,3.9116,3.8271,3.7319,3.64,3.5699,3.5545,3.5526,3.5507,3.5526,3.5488,3.5507,3.5507,3.5603,3.5565,3.5565,3.5853,3.6463,3.6339,3.6096,3.7356,3.6511,3.5729,3.5817,3.5362,3.4793,3.4292,3.4152,3.4068,3.3842,3.3807,3.3807,3.3807,3.3807,3.4082,5.5915,5.4108,5.3643,5.2859,5.1886,5.1559,5.1426,5.1387,5.123,5.0703,4.9883,4.8867,4.8105,4.7598,4.7422,4.6973,4.6308,4.6289,4.6289,4.6289,4.6289,4.6289,4.6289,4.6289,4.6289,4.6289,4.6289,4.6289,4.6289,4.6191,4.5734,4.4986,4.4897,4.4694,4.443,0.0,0.0,0.0,4.6474,4.7084,4.8808,4.7383,4.6562,4.6523,4.4844,0.0,4.3848,4.1504,3.9824,3.918,3.8824,0.0,0.0,0.0,0.0,0.0,0.0,0.0,0.0,0.0,0.0,0.0,3.9746,3.957,3.9375,3.8899,3.9318,4.0952,4.039,4.0131,4.0687,4.052,4.0427,4.0567,4.0529,4.059,4.0791,4.09,4.0908,4.0716,4.0038,3.9182,3.8157,3.7242,3.6419,3.5641,3.5507,3.5507,3.5507,3.5507,3.5507,3.5507,3.5507,3.5507,3.5507,3.5507,3.5757,3.6439,3.6631,3.6719,3.7262,3.6767,3.6041,3.5905,3.5077,3.436,3.42,3.4,3.3895,3.3807,3.3807,3.3807,3.3807,3.3807,3.4027,5.5838,0.0,5.4355,5.374,0.0,5.2658,5.2519,5.2558,5.2207,5.1816,5.1308,4.9629,4.8906,4.8848,4.8437,4.7754,4.6953,4.6933,4.6699,4.6308,4.6289,4.6289,4.6289,4.6289,4.6289,4.6289,4.6289,4.6289,4.6289,4.6172,4.5816,4.5293,4.5205,4.5122,4.4999,4.5156,4.5921,4.7236,4.6435,4.6853,4.8443,4.7081,4.6504,4.6875,4.5254,0.0,0.0,0.0,0.0,0.0,0.0,0.0,0.0,0.0,0.0,3.9674,4.0018,4.0412,4.0848,4.0906,4.0727,4.0387,4.0404,4.0293,3.9941,3.9883,4.0215,4.0996,4.076,4.0665,4.0964,4.0998,4.0989,4.0999,4.0976,4.0961,4.0998,4.1052,4.084,4.0299,3.984,3.9064,3.7627,3.7041,3.6386,3.5641,3.5507,3.5507,3.5507,3.5507,3.5507,3.5507,3.5507,3.5507,3.5507,3.5507,3.5603,3.6026,3.5994,3.6155,3.667,3.6083,3.5492,3.5404,3.4734,3.4171,3.4018,3.3895,3.3807,3.3807,3.3807,3.3972,3.4247,3.4082,3.3899,5.5899,5.5884,5.5128,5.478,5.4651,5.402,5.3876,5.4004,0.0,0.0,0.0,5.0488,4.9805,5.0156,4.9433,4.8652,4.7832,4.7676,4.7285,4.6758,4.6582,4.6601,4.6738,4.6777,4.6758,4.6758,4.6601,4.6523,4.6504,4.6221,4.601,4.5902,4.5815,4.5719,4.5661,4.5767,4.6268,4.7163,4.6603,4.6984,4.8405,4.7346,4.6992,4.7598,4.6055,4.4824,4.3945,4.2461,4.1797,4.2148,4.1641,4.1171,4.0853,4.0914,4.0632,3.9909,3.9783,4.005,4.0716,4.0773,4.0866,4.1014,4.114,4.0996,4.0371,4.0859,4.1152,4.1055,4.1133,4.116,4.1033,4.1091,4.1144,4.1195,4.1162,4.1128,4.1191,4.1162,4.0834,4.0072,3.9896,3.9127,3.7433,3.707,3.6573,3.5718,3.5507,3.5507,3.5507,3.5507,3.5584,3.5738,3.5661,3.5545,3.568,3.5565,3.5507,3.5532,3.5451,3.5468,3.5666,3.5327,3.4936,3.5034,3.4522,3.4086,3.3868,3.3807,3.3807,3.3807,3.3825,3.4045,3.4697,3.4486,3.4211,5.5422,5.4878,5.4651,5.4314,5.3932,5.3745,5.4183,5.5,5.418,5.3398,5.2676,5.2324,5.1426,5.0195,5.0078,4.9551,4.8691,4.7949,4.793,4.8476,4.7773,4.7832,4.8516,4.8535,4.8535,4.8476,4.7793,4.7422,4.7305,4.6416,4.5912,4.5871,4.5719,4.5699,4.5849,4.5893,4.6383,4.7345,4.7163,4.7526,4.8467,4.8415,4.8123,4.7578,4.6641,4.5703,4.4824,4.3867,4.2734,4.1465,4.1914,4.1513,3.9948,4.0482,4.0683,4.0405,4.0385,4.0489,4.0716,4.0716,4.1078,4.1832,4.2045,4.209,4.2051,4.1523,4.1191,4.1172,4.1211,4.1191,4.1158,4.1008,4.0967,4.1179,4.0989,4.095,4.1169,4.1089,4.0888,4.0576,4.0591,3.9817,3.8078,3.7738,3.7165,3.5905,3.5584,3.5545,3.5584,3.5507,3.5795,3.6252,3.5944,3.5834,3.6213,3.5925,3.5641,3.5507,3.5855,3.5979,3.588,3.5627,3.5293,3.5037,3.4448,3.3952,3.3825,3.3807,3.3844,3.3862,3.388,3.4082,3.4899,3.4976,3.5271,5.5633,5.5344,5.5304,5.5124,5.4951,5.5066,5.545,5.5957,5.5605,5.4922,5.4101,5.3613,5.2715,5.1601,5.1562,5.084,4.957,4.8711,4.8262,4.8144,4.7305,4.7344,4.8125,4.8183,4.8457,4.8848,4.8516,4.8047,4.7578,4.6989,4.6487,4.6026,4.5853,4.6065,4.6658,4.6699,4.719,4.8048,4.7497,4.7653,4.8585,4.8669,4.8359,4.7637,4.7187,4.6367,4.5039,4.4609,4.3828,4.2598,4.2426,4.1946,4.1129,4.0866,4.0713,4.0616,4.0546,4.0527,4.0566,4.1027,4.1697,4.2595,4.2346,4.2409,4.2988,4.2324,4.1855,4.1836,4.1465,4.1367,4.1719,4.1252,4.1098,4.1643,4.1174,4.0857,4.0944,4.0949,4.0673,4.0198,4.0447,3.9807,3.7567,3.77,3.7357,3.5892,3.5834,3.6142,3.618,3.6565,3.6622,3.6199,3.6449,3.6738,3.6727,3.6439,3.6175,3.6155,3.6102,3.6053,3.5917,3.5864,3.5671,3.5119,3.4642,3.4302,3.3972,3.3807,3.3972,3.4357,3.4045,3.4302,3.5284,3.6022,3.6497,5.5838,5.5838,5.5838,5.5876,5.5919,5.6286,5.6485,5.6543,5.6562,5.623,5.5527,5.4668,5.3691,5.2754,5.2695,5.1875,5.0488,4.959,4.8926,4.8418,4.7578,4.7617,4.8379,4.8476,4.8828,4.9375,4.9297,4.8848,4.8203,4.766,4.6939,4.6143,4.6166,4.6621,4.737,4.7619,4.8157,4.8921,4.8244,4.8191,4.8943,4.9175,4.8926,4.8242,4.8203,4.7363,4.5723,4.5586,4.5098,4.4062,4.3267,4.2691,4.2264,4.1463,4.0908,4.0696,4.0546,4.0585,4.0816,4.1415,4.2277,4.3343,4.2906,4.2995,4.3885,4.3375,4.2851,4.2637,4.1953,4.1777,4.2383,4.2015,4.1716,4.209,4.1524,4.1044,4.084,4.0801,4.0535,3.9899,4.0258,3.9762,3.8043,3.7868,3.7718,3.6617,3.6622,3.6969,3.7084,3.7738,3.7603,3.682,3.7199,3.7642,3.7098,3.679,3.6598,3.6502,3.633,3.6254,3.6277,3.6424,3.6376,3.5807,3.5459,3.5147,3.4541,3.4431,3.4688,3.5147,3.4908,3.4926,3.624,3.7165,3.7569,5.5722,5.5722,5.5722,5.578,5.5962,5.6383,5.6536,5.6445,5.6543,5.6582,5.6348,5.5566,5.4277,5.2832,5.2754,5.2207,5.125,5.043,5.0351,5.0801,5.0215,5.0254,5.082,5.0957,5.1094,5.1016,5.0391,4.998,4.9726,4.8223,4.6933,4.6134,4.6802,4.7328,4.754,4.8328,4.919,5.0039,4.986,4.9783,4.992,5.06,5.0654,5.0,4.9941,4.9141,4.7383,4.7363,4.6582,4.5058,4.4652,4.3814,4.2383,4.1966,4.147,4.062,4.0508,4.0835,4.1591,4.1747,4.2494,4.3989,4.4174,4.453,4.5346,4.4844,4.4199,4.3613,4.2754,4.2637,4.3418,4.3267,4.2848,4.2364,4.2082,4.16,4.0998,4.0742,4.0669,4.06,4.0566,4.0123,3.9131,3.8922,3.8662,3.7661,3.77,3.7892,3.795,3.8604,3.8911,3.805,3.8027,3.8031,3.7809,3.7194,3.6666,3.6037,3.6425,3.6713,3.6822,3.7064,3.7305,3.6835,3.656,3.6101,3.5973,3.6046,3.5991,3.6064,3.6101,3.6295,3.7216,3.7904,3.823,5.6165,5.5703,5.578,5.5895,5.6115,5.6447,5.6508,5.6406,5.6562,5.6621,5.6582,5.6211,5.539,5.4219,5.3711,5.2988,5.2109,5.0801,5.0332,5.051,4.9785,4.9844,5.0527,5.0664,5.0918,5.1348,5.1055,5.0664,5.0058,4.8906,4.8066,4.7754,4.8108,4.8522,4.9028,4.9464,5.0074,5.0879,5.0859,5.1081,5.151,5.1324,5.0895,5.0293,5.0195,4.9648,4.8476,4.7891,4.7243,4.6397,4.5347,4.4388,4.3558,4.2967,4.2239,4.1335,4.0777,4.112,4.2464,4.2585,4.2876,4.3547,4.4083,4.4581,4.4925,4.4253,4.4045,4.4734,4.3825,4.3398,4.4101,4.3771,4.3227,4.2876,4.2717,4.2332,4.1489,4.1354,4.1351,4.1309,4.085,4.0219,3.9435,3.8839,3.8416,3.8131,3.8396,3.8757,3.8796,3.9469,3.9796,3.9585,3.9469,3.9242,3.8789,3.8035,3.7334,3.6868,3.6498,3.6452,3.6893,3.7241,3.7477,3.7514,3.7221,3.6798,3.6285,3.6358,3.6376,3.6707,3.7,3.7129,3.7448,3.7771,3.8102,5.628,5.5782,5.5905,5.607,5.6211,5.6483,5.6533,5.6419,5.6536,5.6621,5.6621,5.6621,5.625,5.5566,5.4512,5.3516,5.2598,5.1191,5.0474,5.0332,4.9839,4.9902,5.0371,5.0488,5.082,5.1308,5.1387,5.0976,5.0215,4.9609,4.9141,4.8965,4.9121,4.9668,5.0469,5.0723,5.1289,5.2051,5.2109,5.2441,5.2871,5.2329,5.1629,5.0957,5.0644,5.0137,4.9297,4.8652,4.8037,4.7435,4.6108,4.5118,4.4562,4.3835,4.3047,4.2236,4.1582,4.1851,4.3323,4.3426,4.3528,4.3778,4.4355,4.4682,4.466,4.4162,4.4412,4.5423,4.4822,4.4473,4.4822,4.4442,4.3957,4.3618,4.3489,4.3085,4.2297,4.2162,4.2159,4.2094,4.1728,4.0908,4.0142,3.9569,3.9189,3.8977,3.9262,3.9642,3.9662,4.0104,4.045,4.0489,4.0469,4.0123,3.9419,3.867,3.8123,3.7571,3.6919,3.6783,3.7,3.7507,3.7826,3.8046,3.7881,3.7734,3.7422,3.7184,3.7019,3.7569,3.7808,3.779,3.7912,3.7869,3.8083,5.5722,5.5767,5.6049,5.6188,5.6241,5.649,5.6517,5.6404,5.6536,5.6621,5.6621,5.6621,5.6582,5.6348,5.4746,5.3535,5.2676,5.1738,5.1269,5.123,5.1198,5.1272,5.1348,5.1348,5.1348,5.1387,5.1387,5.0996,5.0293,5.0195,4.9726,4.9062,4.9902,5.0605,5.1426,5.2148,5.2988,5.3594,5.3691,5.3867,5.3926,5.3867,5.3359,5.2617,5.1797,5.0996,5.0273,5.0117,4.9316,4.7676,4.7201,4.6345,4.4876,4.4412,4.3814,4.3188,4.2964,4.3294,4.4042,4.4177,4.4468,4.5201,4.5316,4.549,4.5449,4.5316,4.5355,4.5603,4.5571,4.5603,4.5707,4.5511,4.5131,4.4451,4.4299,4.3874,4.3124,4.3028,4.3041,4.3015,4.2861,4.2325,4.1674,4.169,4.0985,4.0431,4.0354,4.0373,4.0335,4.0431,4.0489,4.0489,4.045,4.0239,3.9458,3.89,3.8358,3.7769,3.7479,3.7609,3.7948,3.8228,3.8389,3.8579,3.8487,3.8469,3.856,3.8524,3.8377,3.8487,3.845,3.8456,3.8346,3.853,3.8652,5.6434,5.6169,5.627,5.6328,5.6345,5.6523,5.6518,5.6425,5.655,5.6621,5.6621,5.6621,5.6621,5.6484,5.4765,5.3828,5.3418,5.2051,5.1348,5.1289,5.1357,5.1364,5.128,5.1367,5.1387,5.1387,5.1387,5.125,5.1113,5.1504,5.1641,5.1543,5.2207,5.2793,5.3066,5.3359,5.3711,5.3965,5.3984,5.4258,5.4726,5.4297,5.4082,5.4277,5.2969,5.209,5.1816,5.0781,4.9609,4.834,4.7622,4.6654,4.5522,4.4701,4.4449,4.4562,4.3698,4.3451,4.416,4.4316,4.4432,4.4739,4.5297,4.5586,4.5586,4.5586,4.5586,4.5605,4.5642,4.5665,4.5725,4.5765,4.5432,4.4741,4.4874,4.4778,4.4124,4.3874,4.3855,4.3778,4.3451,4.2744,4.2184,4.1816,4.1463,4.0696,4.0489,4.0489,4.0489,4.0489,4.0489,4.0489,4.0489,4.0354,3.9915,3.9208,3.8544,3.7901,3.7534,3.7445,3.7619,3.7875,3.8028,3.856,3.8689,3.8689,3.8652,3.8652,3.8707,3.8707,3.8707,3.8707,3.8689,3.8707,3.8707,5.6695,5.6438,5.6398,5.6434,5.6484,5.6562,5.6528,5.6473,5.6562,5.6621,5.6621,5.6621,5.6445,5.6035,5.4941,5.4238,5.3828,5.2207,5.1504,5.168,5.1777,5.1791,5.1774,5.2054,5.1914,5.1543,5.1719,5.1816,5.1933,5.2715,5.3105,5.3144,5.373,5.416,5.4355,5.4414,5.4531,5.4765,5.4844,5.5156,5.5586,5.5156,5.5098,5.541,5.4297,5.3242,5.2715,5.1582,5.0398,4.9204,4.814,4.7051,4.5828,4.5086,4.497,4.5374,4.4566,4.4124,4.4622,4.4703,4.4722,4.4739,4.524,4.5586,4.5586,4.5586,4.5586,4.5586,4.5586,4.5586,4.5605,4.568,4.549,4.501,4.5297,4.5355,4.4816,4.472,4.472,4.4664,4.4338,4.3592,4.2768,4.2393,4.1867,4.1024,4.0716,4.0508,4.0489,4.0489,4.0489,4.0489,4.0489,4.0373,4.006,3.9519,3.9085,3.8457,3.7974,3.7692,3.7595,3.7759,3.7955,3.8487,3.8707,3.8707,3.8707,3.8707,3.8707,3.8707,3.8707,3.8707,3.8707,3.8707,3.8744,5.6296,5.6406,5.64,5.6472,5.6582,5.6601,5.6621,5.6601,5.6601,5.6621,5.6621,5.6621,5.6211,5.5527,5.5273,5.4805,5.3926,5.2422,5.2051,5.2637,5.2715,5.2715,5.2734,5.3379,5.3008,5.1758,5.2344,5.2695,5.2754,5.3555,5.4004,5.4023,5.416,5.4668,5.5293,5.541,5.5762,5.625,5.6387,5.6562,5.6601,5.6465,5.6445,5.6504,5.5683,5.4473,5.293,5.2656,5.1661,5.0062,4.9026,4.7602,4.6037,4.5547,4.5547,4.5566,4.5509,4.5528,4.5509,4.549,4.5451,4.5451,4.5566,4.555,4.5531,4.551,4.5491,4.5475,4.5475,4.5512,4.551,4.5494,4.5531,4.5586,4.5566,4.5528,4.5509,4.5547,4.5566,4.549,4.5336,4.5163,4.4357,4.3525,4.273,4.1805,4.1101,4.062,4.0566,4.0604,4.0585,4.0585,4.0719,4.0758,4.0321,3.9833,3.9508,3.9135,3.8718,3.842,3.8297,3.8358,3.8322,3.8707,3.8707,3.8707,3.8707,3.8707,3.8707,3.8707,3.8707,3.8707,3.8707,3.8726,3.8817,5.6426,5.653,5.6537,5.6547,5.6601,5.6621,5.6621,5.6621,5.6621,5.6621,5.6621,5.6621,5.6445,5.6094,5.5586,5.5156,5.4805,5.373,5.334,5.3594,5.3613,5.3613,5.3652,5.3867,5.373,5.3301,5.3437,5.3594,5.375,5.4473,5.4902,5.498,5.5488,5.5918,5.6211,5.6777,5.7031,5.666,5.7207,5.75,5.7422,5.6894,5.6894,5.7324,5.666,5.5644,5.4531,5.3251,5.1745,5.0125,4.9519,4.8398,4.6814,4.5932,4.5605,4.5586,4.5586,4.5586,4.5586,4.5586,4.5586,4.5549,4.54,4.5282,4.5245,4.5093,4.4978,4.4935,4.49,4.4922,4.4902,4.4891,4.512,4.555,4.5586,4.5586,4.5586,4.5586,4.5586,4.5586,4.5586,4.522,4.4549,4.397,4.3352,4.219,4.1597,4.127,4.0773,4.1123,4.1373,4.1393,4.1393,4.145,4.133,4.096,4.0447,3.99,3.9406,3.897,3.8896,3.8707,3.8707,3.8707,3.8707,3.8707,3.8707,3.8707,3.8707,3.8707,3.8707,3.8707,3.8707,3.8744,3.8817,5.653,5.6601,5.6621,5.6621,5.6621,5.6621,5.6621,5.6621,5.6621,5.6621,5.6621,5.6621,5.6406,5.6133,5.5859,5.5605,5.5293,5.5,5.4961,5.4902,5.459,5.4492,5.4414,5.4121,5.4219,5.4453,5.4473,5.4492,5.4531,5.5332,5.5781,5.5918,5.6348,5.6777,5.707,5.7598,5.7695,5.7637,5.8125,5.8379,5.8203,5.7539,5.7363,5.7695,5.707,5.6211,5.5293,5.4077,5.2666,5.1049,5.0067,4.8817,4.7451,4.6836,4.6411,4.6142,4.6046,4.5969,4.568,4.5586,4.5586,4.5531,4.5283,4.5096,4.5115,4.4989,4.4962,4.4638,4.4923,4.494,4.4687,4.4588,4.4868,4.5333,4.54,4.5476,4.5531,4.5586,4.5586,4.5586,4.5586,4.5297,4.4953,4.4378,4.3953,4.2929,4.2464,4.2194,4.1716,4.197,4.2162,4.2277,4.2277,4.2393,4.2582,4.2105,4.1428,4.075,4.0055,3.9593,3.9323,3.8878,3.8707,3.8707,3.8707,3.8707,3.8707,3.8707,3.8707,3.8707,3.8707,3.8707,3.8707,3.8707,3.8836,5.6621,5.6621,5.6621,5.6621,5.6621,5.6621,5.6621,5.6621,5.6621,5.6621,5.6621,5.6621,5.6211,5.5762,5.6191,5.6094,5.5625,5.6074,5.6328,5.6211,5.584,5.5527,5.5312,5.4883,5.5058,5.5488,5.5664,5.5683,5.5859,5.6523,5.6738,5.6875,5.6973,5.7168,5.789,5.8027,5.8476,5.8906,5.916,5.9258,5.9199,5.8437,5.7988,5.8008,5.7226,5.6387,5.5586,5.5044,5.4067,5.2319,5.0491,4.9221,4.8375,4.8144,4.7586,4.6987,4.6949,4.6506,4.593,4.5815,4.5719,4.5587,4.5283,4.5132,4.5217,4.541,4.5265,4.4721,4.5169,4.5282,4.4643,4.4455,4.464,4.4997,4.5186,4.5322,4.5549,4.5586,4.5586,4.5586,4.5586,4.5566,4.547,4.4876,4.4472,4.4049,4.3489,4.3121,4.289,4.2874,4.3104,4.3162,4.3143,4.3431,4.364,4.3049,4.2412,4.1874,4.1078,4.0432,3.9832,3.9294,3.8982,3.8946,3.8927,3.8854,3.8799,3.8854,3.8781,3.8707,3.8707,3.8707,3.8891,3.9061,3.9551,5.6621,5.6621,5.6621,5.6621,5.6621,5.6621,5.6621,5.6621,5.6621,5.6621,5.664,5.6621,5.6523,5.6308,5.6504,5.6445,5.6387,5.6523,5.6621,5.668,5.7129,5.6777,5.6523,5.6699,5.6933,5.7226,5.7656,5.8164,5.8183,5.8262,5.8418,5.8515,5.8379,5.8535,5.8887,5.9375,5.9473,5.9355,5.9844,6.0078,5.9961,5.9297,5.8887,5.8769,5.8008,5.7148,5.6269,5.5508,5.4178,5.228,5.1145,5.0067,4.9221,4.8606,4.8202,4.7932,4.7776,4.7428,4.6758,4.6546,4.6257,4.5645,4.5455,4.5274,4.5571,4.5462,4.5171,4.479,4.489,4.4716,4.4045,4.3855,4.414,4.4674,4.5135,4.5457,4.5568,4.5586,4.5586,4.5586,4.5586,4.5586,4.5528,4.5374,4.4972,4.4491,4.4145,4.3835,4.3643,4.3758,4.3989,4.3989,4.4066,4.4432,4.4506,4.391,4.3385,4.3,4.225,4.1368,4.0616,3.9822,3.9675,3.9606,3.9675,3.9638,3.935,3.9239,3.9038,3.9056,3.9265,3.9571,3.9777,4.0038,4.0744,5.7265,5.664,5.6992,5.6933,5.664,5.6621,5.6621,5.6621,5.6621,5.6836,5.707,5.7168,5.7344,5.7637,5.7324,5.7168,5.7148,5.7148,5.7168,5.7324,5.8027,5.8105,5.791,5.8281,5.8457,5.8476,5.8965,5.9121,5.914,5.9199,5.9199,5.914,5.9199,5.9375,5.9707,6.0098,6.041,6.0351,6.0723,6.0937,6.0879,6.0137,5.9765,5.9531,5.8887,5.8047,5.7187,5.6601,5.5351,5.361,5.2452,5.1664,5.101,5.0183,4.9567,4.926,4.8874,4.8278,4.7586,4.7393,4.7181,4.6723,4.6336,4.631,4.648,4.6312,4.6038,4.5105,4.5121,4.463,4.3821,4.3758,4.4154,4.4599,4.5182,4.5586,4.5586,4.5586,4.5586,4.5586,4.5586,4.5586,4.5586,4.5586,4.5355,4.503,4.4914,4.4643,4.4412,4.4643,4.4778,4.472,4.4739,4.5009,4.5124,4.468,4.4115,4.3725,4.2889,4.2095,4.1423,4.0575,4.0556,4.0524,4.0464,4.0354,4.0139,4.001,4.006,4.0147,4.0283,4.0399,4.0602,4.0936,4.1647,5.8144,5.6797,5.7461,5.7363,5.6816,5.6758,5.6933,5.6933,5.7051,5.7402,5.791,5.8027,5.8262,5.9023,5.7988,5.7793,5.7676,5.7695,5.8047,5.8379,5.8965,5.9297,5.9473,5.9297,5.9336,5.9375,5.9394,5.959,5.9726,5.9609,5.9512,5.9668,5.9609,5.9883,6.043,6.0605,6.0957,6.1406,6.1484,6.1543,6.1445,6.0879,6.0488,6.0117,5.9453,5.8652,5.8008,5.7637,5.6852,5.5102,5.408,5.3358,5.3049,5.2318,5.1606,5.0818,5.0087,4.9356,4.8452,4.824,4.8144,4.7895,4.766,4.7697,4.7638,4.7613,4.7135,4.5866,4.5848,4.5123,4.4029,4.4202,4.4565,4.4795,4.5263,4.5531,4.5586,4.5586,4.5586,4.5586,4.5586,4.5586,4.5586,4.5586,4.5566,4.5355,4.5316,4.5182,4.5047,4.5163,4.5278,4.5336,4.5393,4.549,4.5509,4.5413,4.4863,4.4325,4.3295,4.2509,4.2194,4.1644,4.1589,4.1534,4.1332,4.1222,4.1167,4.1126,4.0997,4.0988,4.0927,4.1075,4.129,4.169,4.2292,5.7969,5.7578,5.709,5.7187,5.7578,5.7637,5.8008,5.8574,5.8594,5.8652,5.8887,5.8906,5.8691,5.832,5.8164,5.7558,5.7324,5.7812,5.8535,5.9844,6.0,6.0586,6.082,6.0469,6.0156,6.0273,6.0859,6.1055,6.0957,6.0801,6.0976,6.0918,6.0781,6.1113,6.1308,6.1308,6.1465,6.168,6.1699,6.1699,6.1699,6.1504,6.1055,6.0488,5.9726,5.8828,5.8105,5.789,5.7246,5.6066,5.5064,5.4203,5.351,5.3106,5.2568,5.1895,5.1453,5.0645,4.949,4.9106,4.8837,4.8337,4.8279,4.814,4.8514,4.8531,4.8118,4.7271,4.6672,4.5679,4.4358,4.4599,4.4915,4.5084,4.5322,4.5586,4.5586,4.5586,4.5586,4.5586,4.5586,4.5586,4.5586,4.5586,4.5586,4.5586,4.5586,4.5586,4.5586,4.5586,4.5586,4.5586,4.5586,4.5586,4.5512,4.5381,4.4874,4.4442,4.3578,4.3004,4.2671,4.2451,4.2304,4.2197,4.209,4.2035,4.2047,4.1611,4.1423,4.1489,4.1632,4.1864,4.2164,4.253,4.266,5.8683,5.8251,5.7846,5.7949,5.834,5.8476,5.8769,5.914,5.9199,5.9414,5.9726,5.9765,5.9707,5.9629,5.9258,5.8808,5.8555,5.8828,5.9765,6.0781,6.1035,6.1269,6.1504,6.1237,6.0923,6.0992,6.1328,6.1514,6.1424,6.1419,6.1367,6.15,6.1495,6.1465,6.168,6.1699,6.168,6.1699,6.1699,6.1699,6.1699,6.1699,6.1582,6.1074,6.0527,5.9824,5.8691,5.8535,5.7656,5.6513,5.5743,5.5184,5.4453,5.401,5.3568,5.3183,5.2203,5.1645,5.0741,5.0202,4.9798,4.9356,4.9317,4.933,4.9357,4.9254,4.8619,4.7894,4.7215,4.6458,4.5081,4.5299,4.5516,4.5227,4.5381,4.5586,4.5586,4.5586,4.5586,4.5586,4.5586,4.5586,4.5586,4.5586,4.5586,4.5586,4.5586,4.5586,4.5586,4.5586,4.5586,4.5586,4.5586,4.5549,4.5494,4.5182,4.4636,4.4242,4.3726,4.3369,4.3185,4.302,4.2892,4.2784,4.2711,4.2858,4.2782,4.2307,4.2106,4.2415,4.2669,4.28,4.291,4.3023,4.3133,5.9667,5.8901,5.8877,5.8945,5.9121,5.9277,5.9492,5.9629,5.957,6.0098,6.0488,6.0586,6.0801,6.1094,6.0586,6.0371,6.0293,6.0293,6.0683,6.1445,6.1562,6.1621,6.164,6.1499,6.1364,6.1458,6.1477,6.1395,6.1273,6.1268,6.1311,6.1428,6.1451,6.1543,6.166,6.1699,6.1699,6.1699,6.1699,6.1699,6.1699,6.1699,6.166,6.1582,6.1445,6.0723,5.957,5.9004,5.8226,5.6523,5.6212,5.5997,5.5626,5.5145,5.4568,5.4453,5.3146,5.2434,5.1934,5.1337,5.0856,5.0895,5.0566,5.0385,5.0038,4.9629,4.8991,4.8333,4.7673,4.7183,4.6092,4.6123,4.5897,4.5472,4.5458,4.5568,4.5586,4.5586,4.5586,4.5586,4.5586,4.5586,4.5586,4.5586,4.5586,4.5586,4.5586,4.5586,4.5586,4.5586,4.5586,4.5586,4.5586,4.5451,4.5358,4.512,4.4557,4.4153,4.3747,4.3605,4.3532,4.3351,4.3204,4.3314,4.3332,4.3369,4.3351,4.3075,4.3075,4.3461,4.3424,4.3222,4.3296,4.3461,4.3479,5.9926,5.9724,5.9031,5.9192,5.9922,6.0019,6.0469,6.1211,6.1133,6.1348,6.1406,6.1465,6.1094,6.0781,6.0547,6.041,6.0527,6.0605,6.0937,6.1601,6.1699,6.1699,6.166,6.1531,6.1431,6.1362,6.1324,6.1192,6.108,6.1046,6.117,6.1292,6.1346,6.1465,6.164,6.1699,6.1699,6.1699,6.1699,6.1699,6.1699,6.1699,6.1699,6.168,6.1617,6.099,6.0099,5.9186,5.8234,5.712,5.6363,5.5974,5.5703,5.5511,5.5145,5.4645,5.4145,5.353,5.2992,5.2203,5.1799,5.149,5.0905,5.0306,5.0049,4.9758,4.9315,4.8882,4.8295,4.7664,4.6368,4.6685,4.6356,4.5859,4.5551,4.5586,4.5586,4.5586,4.5586,4.5586,4.5586,4.5586,4.5586,4.5586,4.5586,4.5586,4.5586,4.5586,4.5586,4.5586,4.5586,4.5586,4.5586,4.5393,4.5203,4.4922,4.4565,4.4202,4.3863,4.3674,4.3584,4.3532,4.3479,4.3479,4.3479,4.3442,4.3461,4.3479,4.3479,4.3479,4.3479,4.3479,4.3479,4.3479,4.3479,6.0089,6.0323,5.9588,5.9785,6.054,6.0721,6.1033,6.1433,6.1498,6.1498,6.1505,6.1543,6.1387,6.1055,6.1055,6.1074,6.1055,6.1094,6.1328,6.168,6.1699,6.1671,6.1588,6.1475,6.1292,6.1142,6.105,6.1012,6.0896,6.09,6.1069,6.1254,6.1308,6.1445,6.164,6.1699,6.1699,6.1699,6.1699,6.1699,6.1699,6.1699,6.168,6.1601,6.1497,6.1004,6.0211,5.9745,5.8644,5.7441,5.6799,5.6299,5.5895,5.5645,5.553,5.5126,5.4739,5.4374,5.3818,5.3068,5.2433,5.1875,5.1269,5.0584,5.0088,4.9788,4.969,4.9525,4.9375,4.8829,4.8037,4.7703,4.7104,4.6411,4.5913,4.5643,4.5586,4.5586,4.5586,4.5586,4.5586,4.5586,4.5586,4.5586,4.5586,4.5586,4.5586,4.5586,4.5586,4.5586,4.5586,4.5586,4.5586,4.5451,4.524,4.4976,4.4732,4.4373,4.4055,4.3873,4.3701,4.3664,4.3582,4.3479,4.3479,4.3479,4.3479,4.3479,4.3479,4.3479,4.3479,4.3479,4.3479,4.3479,4.3479,6.0323,6.0742,6.0227,6.0381,6.0977,6.117,6.1254,6.1298,6.1322,6.1322,6.1324,6.1406,6.1465,6.1484,6.1562,6.1621,6.1699,6.168,6.164,6.1621,6.164,6.1589,6.1446,6.131,6.1154,6.102,6.0896,6.0896,6.1108,6.0916,6.1069,6.1428,6.1484,6.1426,6.164,6.1699,6.1699,6.1699,6.1699,6.1699,6.1699,6.1699,6.164,6.1504,6.1473,6.105,6.0377,5.9903,5.9175,5.8069,5.7319,5.678,5.6107,5.578,5.5684,5.5588,5.5066,5.4816,5.4528,5.3949,5.3219,5.276,5.2045,5.1085,5.0328,5.0024,4.9948,5.0071,5.0043,4.9751,4.9081,4.874,4.7892,4.6969,4.6259,4.5797,4.5643,4.5586,4.5586,4.5586,4.5586,4.5586,4.5586,4.5586,4.5586,4.5586,4.5586,4.5586,4.5586,4.5586,4.5586,4.5586,4.5566,4.549,4.5336,4.5182,4.4941,4.4749,4.4428,4.4185,4.4002,4.3873,4.3744,4.3646,4.3479,4.3479,4.3479,4.3479,4.3479,4.3479,4.3479,4.3479,4.3479,4.3479,4.3479,6.0723,6.0781,6.0704,6.08,6.0973,6.1031,6.1135,6.1282,6.1265,6.1299,6.1269,6.1291,6.131,6.1383,6.1467,6.1582,6.166,6.166,6.1595,6.1527,6.1518,6.1433,6.1326,6.1117,6.1057,6.0954,6.0858,6.1285,6.1535,6.1146,6.1401,6.1987,6.1719,6.1445,6.168,6.1699,6.1699,6.1699,6.1699,6.1699,6.1699,6.1699,6.1621,6.1484,6.1361,6.117,6.0685,6.0146,5.9415,5.9108,5.7761,5.7069,5.6722,5.6069,5.578,5.5684,5.5588,5.553,5.5338,5.4759,5.422,5.3584,5.2571,5.152,5.0761,5.0077,4.9846,5.0099,5.0152,5.0006,4.964,4.9317,4.8413,4.7643,4.6932,4.6317,4.5932,4.5932,4.5893,4.5586,4.5586,4.5586,4.5586,4.5586,4.5586,4.5586,4.5586,4.5586,4.5586,4.5586,4.5586,4.5586,4.5586,4.5509,4.547,4.5316,4.5208,4.5048,4.4801,4.4512,4.4379,4.4205,4.4004,4.3881,4.3693,4.3513,4.3479,4.3479,4.3479,4.3479,4.3479,4.3479,4.3479,4.3479,4.3479,6.08,6.08,6.08,6.0819,6.0877,6.0877,6.0935,6.0993,6.1012,6.1012,6.1031,6.1112,6.119,6.13,6.1363,6.1406,6.1465,6.1485,6.1442,6.1382,6.1366,6.1285,6.1136,6.1032,6.0997,6.0877,6.0935,6.1285,6.167,6.1858,6.1935,6.2313,6.2148,6.1855,6.1738,6.1699,6.1699,6.1699,6.1699,6.1699,6.1699,6.1699,6.1601,6.1406,6.1328,6.1145,6.0839,6.055,5.9954,5.9588,5.8627,5.7915,5.7223,5.6607,5.6261,5.5684,5.5684,5.5665,5.5626,5.5338,5.4972,5.4357,5.3155,5.2075,5.1162,5.0364,5.0005,5.0412,5.0438,5.0303,5.0009,4.9683,4.9125,4.8452,4.7778,4.7105,4.6586,4.6413,4.6297,4.5932,4.568,4.5853,4.5911,4.5796,4.5738,4.5586,4.5586,4.5586,4.5586,4.5586,4.5586,4.5586,4.5586,4.5566,4.5547,4.547,4.5451,4.5321,4.5111,4.4879,4.4789,4.4616,4.4353,4.4087,4.3893,4.3707,4.3563,4.3479,4.3479,4.3479,4.3479,4.3479,4.3479,4.3479,4.3479,6.08,6.08,6.08,6.08,6.08,6.08,6.08,6.08,6.08,6.08,6.0819,6.0896,6.105,6.12,6.1227,6.1255,6.1313,6.1313,6.1274,6.1245,6.1215,6.1116,6.1004,6.0916,6.0877,6.08,6.08,6.1458,6.217,6.2421,6.2435,6.2529,6.2438,6.2168,6.1836,6.1699,6.1699,6.1699,6.1699,6.1699,6.1699,6.1699,6.1562,6.1426,6.1311,6.117,6.0896,6.0762,6.0358,6.0012,5.9492,5.8665,5.7646,5.7069,5.6472,5.5915,5.5684,5.5684,5.5684,5.5549,5.5338,5.4703,5.376,5.2585,5.1662,5.0823,5.0524,5.099,5.0721,5.0701,5.0567,5.0067,4.9644,4.9202,4.8721,4.8029,4.7432,4.7259,4.7142,4.6949,4.6737,4.6564,4.6506,4.6161,4.5911,4.568,4.5586,4.5586,4.5605,4.5624,4.5643,4.5663,4.5682,4.5682,4.5661,4.5624,4.5624,4.5605,4.5413,4.5243,4.515,4.4919,4.4644,4.4373,4.4117,4.3818,4.3563,4.3529,4.3479,4.3479,4.3479,4.3479,4.3479,4.3479,4.3479,6.08,6.08,6.08,6.08,6.08,6.08,6.08,6.08,6.08,6.08,6.08,6.0819,6.0896,6.1,6.1046,6.1111,6.1299,6.1315,6.1188,6.107,6.0997,6.0935,6.0858,6.0819,6.0819,6.0819,6.0839,6.1689,6.2752,6.281,6.2762,6.259,6.2684,6.2246,6.1973,6.1953,6.1914,6.1875,6.1777,6.1699,6.1699,6.1699,6.1621,6.1484,6.1356,6.1208,6.0997,6.0858,6.0742,6.0512,6.0012,5.93,5.8338,5.7588,5.6838,5.6145,5.5742,5.5722,5.5684,5.5684,5.5645,5.5145,5.428,5.3126,5.2357,5.1337,5.1202,5.1604,5.1337,5.1087,5.0914,5.0587,5.0337,4.999,4.9567,4.8913,4.8375,4.8105,4.7989,4.7948,4.7717,4.7391,4.7258,4.6932,4.6392,4.6123,4.5605,4.5586,4.5682,4.572,4.5759,4.5797,4.5817,4.5817,4.5796,4.5892,4.62,4.6103,4.5873,4.568,4.5512,4.5222,4.4943,4.4561,4.4261,4.3912,4.3612,4.3529,4.3479,4.3479,4.3479,4.3479,4.3479,4.3479,4.3479,6.08,6.08,6.08,6.08,6.08,6.08,6.08,6.08,6.08,6.08,6.08,6.08,6.0819,6.0858,6.0877,6.0916,6.0993,6.0973,6.0935,6.0896,6.0858,6.0839,6.08,6.0819,6.0839,6.0896,6.0954,6.117,6.1901,6.2775,6.2839,6.2762,6.3113,6.293,6.2676,6.25,6.25,6.2344,6.2012,6.1719,6.1699,6.1699,6.164,6.1504,6.1367,6.1196,6.1017,6.0881,6.0819,6.0704,6.0416,5.9781,5.9031,5.8204,5.7415,5.6549,5.6145,5.5857,5.5742,5.5684,5.5491,5.4934,5.4299,5.3646,5.2954,5.2184,5.1972,5.2068,5.2107,5.2011,5.2184,5.178,5.1279,5.0933,5.0414,4.9779,4.9298,4.899,4.8721,4.8642,4.8296,4.7913,4.7837,4.776,4.7163,4.6584,4.6046,4.5663,4.5913,4.6124,4.6278,4.6471,4.6547,4.6758,4.6777,4.6852,4.6891,4.6602,4.6315,4.6161,4.597,4.5587,4.5282,4.4853,4.4495,4.4207,4.392,4.36,4.3479,4.3479,4.3479,4.3479,4.3479,4.3479,4.3479,6.08,6.08,6.08,6.08,6.08,6.08,6.08,6.08,6.08,6.08,6.08,6.08,6.08,6.08,6.08,6.08,6.0819,6.0819,6.08,6.08,6.08,6.08,6.08,6.0819,6.0858,6.0993,6.1343,6.1593,6.192,6.2795,6.3229,6.3515,6.3808,6.3828,6.3496,6.3379,6.3379,6.3203,6.289,6.2246,6.2226,6.2129,6.1836,6.166,6.1445,6.1295,6.1099,6.0954,6.0858,6.0819,6.0646,6.03,5.9627,5.8934,5.8261,5.7492,5.686,5.6398,5.6107,5.5742,5.5472,5.5107,5.4626,5.3973,5.3454,5.3204,5.2799,5.2951,5.3088,5.3225,5.3224,5.2587,5.2011,5.1587,5.1298,5.0721,5.0164,4.976,4.951,4.9298,4.9067,4.9048,4.8875,4.8817,4.8068,4.7547,4.7124,4.6817,4.6855,4.7048,4.7182,4.7355,4.7528,4.7777,4.8008,4.7797,4.7508,4.6991,4.676,4.6701,4.6471,4.6163,4.5994,4.5829,4.5378,4.4718,4.4233,4.3894,4.3644,4.3479,4.3479,4.3497,4.3479,4.3479,4.3479,6.08,6.08,6.08,6.08,6.08,6.08,6.08,6.08,6.08,6.08,6.08,6.08,6.08,6.08,6.08,6.08,6.08,6.08,6.08,6.08,6.08,6.08,6.08,6.0819,6.0916,6.1208,6.1693,6.2198,6.2467,6.3729,6.4228,6.4463,6.4805,6.4941,6.4355,6.4277,6.4258,6.4238,6.416,6.3555,6.2988,6.2871,6.2578,6.1797,6.1719,6.164,6.1279,6.1042,6.092,6.0858,6.08,6.0416,5.9781,5.9492,5.8954,5.83,5.8152,5.769,5.7014,5.6165,5.5684,5.5472,5.5011,5.4645,5.4876,5.4416,5.3608,5.3816,5.3819,5.3492,5.3317,5.3178,5.2779,5.2452,5.2183,5.176,5.1202,5.0952,5.0779,5.0568,5.0587,5.0548,5.026,4.9875,4.9087,4.8548,4.8202,4.7971,4.7798,4.7952,4.8067,4.8316,4.849,4.8644,4.8759,4.8452,4.8087,4.753,4.7319,4.7414,4.7375,4.7222,4.704,4.6788,4.6243,4.5536,4.4809,4.4121,4.4193,4.4246,4.3642,4.3497,4.3497,4.3479,4.3479,6.08,6.08,6.08,6.08,6.08,6.08,6.08,6.08,6.08,6.08,6.08,6.08,6.08,6.08,6.08,6.08,6.08,6.08,6.08,6.08,6.08,6.08,6.0819,6.0896,6.1035,6.142,6.2105,6.2751,6.2843,6.4297,6.4922,6.5145,6.5723,6.584,6.5371,6.5156,6.5176,6.5019,6.457,6.3887,6.3223,6.3457,6.3164,6.1855,6.209,6.1953,6.1445,6.1164,6.1015,6.09,6.0858,6.0608,6.0185,5.9973,5.9415,5.8954,5.8726,5.7879,5.7052,5.6244,5.5722,5.5588,5.5472,5.5126,5.4857,5.5049,5.478,5.4684,5.4705,5.4568,5.4893,5.4337,5.3916,5.3682,5.3374,5.2895,5.2452,5.2452,5.2337,5.2127,5.203,5.1318,5.0875,5.0702,5.0067,4.9471,4.9086,4.8529,4.824,4.8682,4.8971,4.924,4.9452,4.9548,4.9529,4.9219,4.8837,4.8337,4.8279,4.8452,4.8394,4.8105,4.7697,4.7257,4.6817,4.6365,4.5537,4.4929,4.5164,4.5035,4.4467,4.4138,4.4283,4.3973,4.3497,6.08,6.08,6.08,6.08,6.08,6.08,6.08,6.08,6.08,6.08,6.08,6.08,6.08,6.08,6.08,6.08,6.08,6.08,6.08,6.08,6.08,6.08,6.0839,6.1,6.1366,6.1829,6.2662,6.334,6.3594,6.4687,6.5488,6.6094,6.6582,6.6465,6.6152,6.6055,6.6055,6.5918,6.5547,6.4961,6.4355,6.4004,6.3594,6.2637,6.2226,6.209,6.1601,6.1289,6.1097,6.0997,6.092,6.0839,6.0608,6.0339,5.9935,5.9723,5.8877,5.7995,5.7052,5.6186,5.5761,5.5665,5.5684,5.5453,5.5068,5.5318,5.528,5.528,5.5491,5.5549,5.553,5.4955,5.478,5.4547,5.4182,5.3683,5.326,5.3183,5.3183,5.3051,5.2858,5.2107,5.1549,5.1299,5.101,5.0491,4.9971,4.9413,4.8914,4.9375,4.9663,4.972,4.9912,4.9888,4.9978,5.0004,4.9573,4.9086,4.9084,4.9173,4.8907,4.8566,4.8128,4.7768,4.7406,4.6962,4.6202,4.5828,4.5937,4.5789,4.5312,4.5129,4.5127,4.4632,4.3975,6.08,6.08,6.08,6.08,6.08,6.08,6.08,6.08,6.08,6.08,6.08,6.08,6.08,6.08,6.08,6.08,6.08,6.08,6.08,6.08,6.08,6.08,6.0858,6.0997,6.1464,6.2469,6.3375,6.3945,6.4433,6.5644,6.6523,6.6758,6.6816,6.6777,6.6719,6.668,6.666,6.6562,6.6465,6.5742,6.498,6.4629,6.3789,6.289,6.2285,6.1973,6.1621,6.1445,6.1269,6.1128,6.0981,6.092,6.0839,6.0781,6.08,6.0358,5.9204,5.8226,5.7418,5.6629,5.5992,5.5972,5.5876,5.5761,5.5742,5.578,5.5665,5.5665,5.5799,5.5722,5.5588,5.5453,5.5299,5.5011,5.4722,5.4222,5.3703,5.3568,5.3587,5.351,5.3433,5.301,5.2665,5.2357,5.1933,5.1607,5.1164,5.0933,5.0509,5.0235,5.0349,4.9805,4.9953,5.0054,5.0111,5.0025,4.9762,4.9086,4.9447,4.9546,4.9277,4.9023,4.8729,4.8401,4.8114,4.7615,4.7003,4.6709,4.6673,4.6434,4.6324,4.6067,4.6049,4.5332,4.4837,6.08,6.08,6.08,6.08,6.08,6.08,6.08,6.08,6.08,6.08,6.08,6.08,6.08,6.08,6.08,6.08,6.08,6.08,6.08,6.08,6.08,6.0858,6.0958,6.1139,6.1499,6.231,6.3313,6.4355,6.4726,6.6094,6.6875,6.6875,6.6894,6.6894,6.6894,6.6894,6.6894,6.6894,6.6894,6.6172,6.543,6.5,6.3906,6.2851,6.2461,6.2109,6.1758,6.1562,6.1387,6.1233,6.1078,6.0939,6.0819,6.08,6.0781,6.0704,5.98,5.8995,5.8572,5.7418,5.6629,5.6607,5.6607,5.6607,5.6472,5.6319,5.6184,5.6184,5.6069,5.5974,5.5761,5.5607,5.553,5.5357,5.5145,5.4934,5.4511,5.4511,5.4511,5.4453,5.4357,5.3932,5.3606,5.3182,5.2797,5.2587,5.2356,5.2067,5.1758,5.1365,5.0929,5.034,5.0146,5.0282,4.9749,4.9561,4.9372,4.9179,4.9535,4.9721,4.9398,4.9183,4.9182,4.9029,4.8725,4.8347,4.7923,4.7774,4.783,4.7755,4.7627,4.7277,4.6854,4.6122,4.57,6.0492,6.0781,6.08,6.08,6.08,6.08,6.08,6.08,6.08,6.08,6.08,6.08,6.08,6.08,6.08,6.08,6.08,6.08,6.08,6.08,6.08,6.0877,6.1016,6.1288,6.1909,6.2649,6.3613,6.4726,6.5312,6.6074,6.6894,6.6894,6.6894,6.6894,6.6894,6.6894,6.6894,6.6894,6.6738,6.6191,6.5703,6.5137,6.3867,6.3008,6.2812,6.2129,6.1816,6.1621,6.1484,6.134,6.1157,6.0997,6.0858,6.08,6.0473,6.0319,5.9796,5.9181,5.8681,5.8066,5.7627,5.7511,5.7511,5.7723,5.7646,5.7511,5.7126,5.6838,5.6475,5.6148,5.5895,5.5684,5.5684,5.5665,5.5665,5.5665,5.5626,5.5626,5.5588,5.553,5.5241,5.4797,5.4393,5.3968,5.3571,5.3279,5.2872,5.2449,5.2127,5.174,5.1291,5.0786,5.061,5.0546,4.994,4.9514,4.9466,4.9446,4.9527,4.9615,4.9381,4.9178,4.9024,4.9194,4.9399,4.9099,4.893,4.904,4.9116,4.8838,4.8398,4.7937,4.7461,4.6929,4.6691,6.0031,6.08,6.08,6.08,6.08,6.08,6.08,6.08,6.08,6.08,6.08,6.08,6.08,6.08,6.08,6.08,6.08,6.08,6.08,6.08,6.08,6.0877,6.1113,6.1375,6.2253,6.3493,6.4531,6.5254,6.6406,6.6894,6.6894,6.6894,6.6894,6.6894,6.6894,6.6894,6.6797,6.6543,6.6523,6.6269,6.5859,6.5117,6.4121,6.3633,6.2695,6.1719,6.1719,6.166,6.158,6.1398,6.1271,6.1116,6.0896,6.0781,6.0334,6.0084,5.9873,5.9585,5.9158,5.8639,5.8469,5.8373,5.8415,5.8646,5.8588,5.8204,5.7703,5.7338,5.6994,5.6321,5.5955,5.5742,5.5684,5.5684,5.5684,5.5684,5.5684,5.5665,5.5607,5.5549,5.5357,5.497,5.4732,5.4265,5.4039,5.3803,5.3449,5.2946,5.2867,5.2513,5.1934,5.1483,5.1352,5.1162,5.0525,5.0156,4.9912,4.9875,4.9713,4.9288,4.8918,4.8805,4.8746,4.9263,4.9873,5.011,5.0068,5.0013,4.9667,4.8987,4.8601,4.8379,4.7994,4.7535,4.7498,6.0012,6.08,6.08,6.08,6.08,6.08,6.08,6.08,6.08,6.08,6.08,6.08,6.08,6.08,6.08,6.08,6.08,6.08,6.08,6.08,6.08,6.0954,6.1302,6.1753,6.2627,6.3486,6.4531,6.5801,6.664,6.6894,6.6894,6.6894,6.6894,6.6894,6.6894,6.6894,6.668,6.6308,6.6074,6.5781,6.5176,6.4121,6.3066,6.2617,6.1758,6.1758,6.1758,6.1699,6.154,6.1359,6.1331,6.1119,6.0819,6.08,6.0704,6.0531,6.0396,6.0161,5.9931,5.9484,5.9258,5.9219,5.9242,5.9319,5.9165,5.8646,5.8223,5.7896,5.7415,5.6703,5.6071,5.5895,5.578,5.578,5.5684,5.5684,5.5684,5.5607,5.5549,5.5415,5.5299,5.509,5.4863,5.4683,5.4505,5.42,5.3867,5.3684,5.4071,5.3929,5.3154,5.265,5.2309,5.1985,5.1361,5.0798,5.0564,5.0005,4.9703,4.9177,4.8638,4.8838,4.9205,4.9829,5.0365,5.0637,5.0729,5.0472,4.9994,4.9263,4.8656,4.8361,4.8324,4.7976,4.8067,5.9454,6.0242,6.0646,6.08,6.08,6.08,6.08,6.08,6.08,6.08,6.08,6.08,6.08,6.08,6.08,6.08,6.08,6.08,6.08,6.08,6.0839,6.1031,6.1466,6.1927,6.282,6.3672,6.5273,6.6484,6.6855,6.6894,6.6894,6.6894,6.6894,6.6894,6.6894,6.6855,6.666,6.623,6.582,6.5293,6.4707,6.3984,6.3164,6.2539,6.2246,6.2148,6.1758,6.1687,6.1541,6.1311,6.1157,6.1023,6.0819,6.08,6.08,6.0762,6.0742,6.0781,6.0646,6.0396,6.0008,6.0012,6.005,6.0127,6.0146,5.9685,5.9319,5.8992,5.87,5.8046,5.6917,5.6456,5.6453,5.6431,5.5992,5.5684,5.5588,5.5472,5.5376,5.522,5.5046,5.4806,5.4649,5.4634,5.4428,5.4233,5.3968,5.4135,5.4596,5.4962,5.4282,5.3798,5.3448,5.3139,5.2711,5.1964,5.1209,5.06,4.9977,4.988,4.9774,4.9591,4.9777,5.0508,5.1077,5.1298,5.1298,5.0986,5.0266,4.9456,4.8836,4.8324,4.8361,4.8471,4.8416,5.8607,5.9435,6.0281,6.0627,6.0666,6.0762,6.08,6.08,6.08,6.08,6.08,6.08,6.08,6.08,6.08,6.08,6.08,6.08,6.08,6.08,6.0819,6.1031,6.1306,6.1668,6.2951,6.4414,6.5976,6.6543,6.6894,6.6894,6.6894,6.6894,6.6894,6.6894,6.6894,6.6875,6.6719,6.6328,6.5918,6.5547,6.5137,6.4726,6.3906,6.3359,6.3086,6.2715,6.2168,6.1847,6.1724,6.1326,6.106,6.0914,6.0839,6.08,6.08,6.08,6.08,6.08,6.0762,6.0723,6.0666,6.0723,6.08,6.0781,6.0742,6.055,6.0185,5.9935,5.9642,5.8931,5.778,5.7167,5.7162,5.7027,5.6453,5.5737,5.5542,5.533,5.5157,5.4998,5.4685,5.4415,5.434,5.4312,5.4211,5.4063,5.4168,5.4439,5.4712,5.5019,5.4886,5.4666,5.4524,5.4211,5.3899,5.2975,5.2009,5.159,5.1135,5.1032,5.0894,5.0637,5.0765,5.1426,5.1903,5.1995,5.1756,5.1426,5.0633,4.9823,4.9625,4.926,4.9077,4.9095,4.8728,5.7758,5.8619,5.9412,5.9762,5.9873,6.0473,6.08,6.08,6.08,6.08,6.08,6.08,6.08,6.08,6.08,6.08,6.08,6.08,6.08,6.08,6.1012,6.1146,6.1615,6.2474,6.3698,6.5058,6.6269,6.6758,6.6894,6.6894,6.6894,6.6894,6.6894,6.6894,6.6894,6.6836,6.664,6.6269,6.5957,6.5566,6.4922,6.4551,6.4336,6.4062,6.4023,6.3476,6.3008,6.2773,6.2241,6.1673,6.1164,6.0939,6.0819,6.08,6.08,6.08,6.08,6.08,6.08,6.08,6.08,6.08,6.08,6.0781,6.0781,6.0762,6.0512,6.0416,6.0008,5.9254,5.8354,5.8107,5.8008,5.7742,5.7261,5.6256,5.5624,5.5222,5.4858,5.4506,5.4104,5.3853,5.3603,5.3597,5.3597,5.3547,5.3827,5.4088,5.4452,5.4876,5.535,5.5331,5.5263,5.5215,5.486,5.3736,5.285,5.2492,5.21,5.1678,5.1458,5.1573,5.183,5.2215,5.2454,5.2601,5.2289,5.172,5.1228,5.0585,5.0582,5.038,5.0105,4.9738,4.9389]},{"header":{"parameterUnit":"m.s-1","parameterCategory":1,"la1":31.0,"la2":29.5877,"lo1":-88.7671,"lo2":-86.6584,"dy":0.0162,"dx":0.0185,"nx":115,"ny":88,"refTime":"2023-03-27T06:00:00:Z","depth":0,"parameterNumber":3,"parameterNumberName":"V-component_of_WINDS"},"data":[0.0,0.0,0.0,0.0,0.0,0.0,0.0,0.0,0.0,0.0,0.0,0.0,0.0,0.0,0.0,0.0,0.0,0.0,0.0,0.0,0.0,0.0,0.0,0.0,0.0,0.0,0.0,0.0,0.0,0.0,0.0,0.0,0.0,0.0,0.0,0.0,0.0,0.0,0.0,0.0,0.0,0.0,0.0,0.0,0.0,0.0,0.0,0.0,0.0,0.0,0.0,0.0,0.0,0.0,0.0,0.0,0.0,0.0,0.0,0.0,0.0,0.0,0.0,0.0,0.0,0.0,0.0,0.0,0.0,0.0,0.0,0.0,0.0,0.0,0.0,0.0,0.0,0.0,0.0,0.0,0.0,0.0,0.0,0.0,0.0,0.0,0.0,0.0,0.0,0.0,0.0,0.0,0.0,0.0,0.0,0.0,0.0,0.0,0.0,0.0,0.0,0.0,0.0,0.0,0.0,0.0,0.0,0.0,0.0,0.0,0.0,0.0,0.0,0.0,0.0,0.0,0.0,0.0,0.0,0.0,0.0,0.0,0.0,0.0,0.0,0.0,0.0,0.0,0.0,0.0,0.0,0.0,0.0,0.0,0.0,0.0,0.0,0.0,0.0,0.0,0.0,0.0,0.0,0.0,0.0,0.0,0.0,0.0,0.0,0.0,0.0,0.0,0.0,0.0,0.0,0.0,0.0,0.0,0.0,0.0,0.0,0.0,0.0,0.0,0.0,0.0,0.0,0.0,0.0,0.0,0.0,0.0,0.0,0.0,0.0,0.0,0.0,0.0,0.0,0.0,0.0,0.0,0.0,0.0,0.0,0.0,0.0,0.0,0.0,0.0,0.0,0.0,0.0,0.0,0.0,0.0,0.0,0.0,0.0,0.0,0.0,0.0,0.0,0.0,0.0,0.0,0.0,0.0,0.0,0.0,0.0,0.0,0.0,0.0,0.0,0.0,0.0,0.0,0.0,0.0,0.0,0.0,0.0,0.0,0.0,0.0,0.0,0.0,0.0,0.0,0.0,0.0,0.0,0.0,0.0,0.0,0.0,0.0,0.0,0.0,0.0,0.0,0.0,0.0,0.0,0.0,0.0,0.0,0.0,0.0,0.0,0.0,0.0,0.0,0.0,0.0,0.0,0.0,0.0,0.0,0.0,0.0,0.0,0.0,0.0,0.0,0.0,0.0,0.0,0.0,0.0,0.0,0.0,0.0,0.0,0.0,0.0,0.0,0.0,0.0,0.0,0.0,0.0,0.0,0.0,0.0,0.0,0.0,0.0,0.0,0.0,0.0,0.0,0.0,0.0,0.0,0.0,0.0,0.0,0.0,0.0,0.0,0.0,0.0,0.0,0.0,0.0,0.0,0.0,0.0,0.0,0.0,0.0,0.0,0.0,0.0,0.0,0.0,0.0,0.0,0.0,0.0,0.0,0.0,0.0,0.0,0.0,0.0,0.0,0.0,0.0,0.0,0.0,0.0,0.0,0.0,0.0,0.0,0.0,0.0,0.0,0.0,0.0,0.0,0.0,0.0,0.0,0.0,0.0,0.0,0.0,0.0,0.0,0.0,0.0,0.0,0.0,0.0,0.0,0.0,0.0,0.0,0.0,0.0,0.0,0.0,0.0,0.0,0.0,0.0,0.0,0.0,0.0,0.0,0.0,0.0,0.0,0.0,0.0,0.0,0.0,0.0,0.0,0.0,0.0,0.0,0.0,0.0,0.0,0.0,0.0,0.0,0.0,0.0,0.0,0.0,0.0,0.0,0.0,0.0,0.0,0.0,0.0,0.0,0.0,0.0,0.0,0.0,0.0,0.0,0.0,0.0,0.0,0.0,0.0,0.0,0.0,0.0,0.0,0.0,0.0,0.0,0.0,0.0,0.0,0.0,0.0,0.0,0.0,0.0,0.0,0.0,0.0,0.0,0.0,0.0,0.0,0.0,0.0,0.0,0.0,0.0,0.0,0.0,0.0,0.0,0.0,0.0,0.0,0.0,0.0,0.0,0.0,0.0,0.0,0.0,0.0,0.0,0.0,0.0,0.0,0.0,0.0,0.0,0.0,0.0,0.0,0.0,0.0,0.0,0.0,0.0,0.0,0.0,0.0,0.0,0.0,0.0,0.0,0.0,0.0,0.0,0.0,0.0,0.0,0.0,0.0,0.0,0.0,0.0,0.0,0.0,0.0,0.0,0.0,0.0,0.0,0.0,0.0,0.0,0.0,0.0,0.0,0.0,0.0,0.0,0.0,0.0,0.0,0.0,0.0,0.0,0.0,0.0,0.0,0.0,0.0,0.0,0.0,0.0,0.0,0.0,0.0,0.0,0.0,0.0,0.0,0.0,0.0,0.0,0.0,0.0,0.0,0.0,0.0,0.0,0.0,0.0,0.0,0.0,0.0,0.0,0.0,0.0,0.0,0.0,0.0,0.0,0.0,0.0,0.0,0.0,0.0,0.0,0.0,0.0,0.0,0.0,0.0,0.0,0.0,0.0,0.0,0.0,0.0,0.0,0.0,0.0,0.0,0.0,0.0,0.0,0.0,0.0,0.0,0.0,0.0,0.0,0.0,0.0,0.0,0.0,0.0,0.0,0.0,0.0,0.0,0.0,0.0,0.0,0.0,0.0,0.0,0.0,0.0,0.0,0.0,0.0,0.0,0.0,0.0,0.0,0.0,0.0,0.0,0.0,0.0,0.0,0.0,0.0,0.0,0.0,0.0,0.0,0.0,0.0,0.0,0.0,0.0,0.0,0.0,0.0,0.0,0.0,0.0,0.0,0.0,0.0,0.0,0.0,0.0,0.0,0.0,0.0,0.0,0.0,0.0,0.0,0.0,0.0,0.0,0.0,0.0,0.0,0.0,0.0,0.0,0.0,0.0,0.0,0.0,0.0,0.0,0.0,0.0,0.0,0.0,0.0,0.0,0.0,0.0,0.0,0.0,0.0,0.0,0.0,0.0,0.0,0.0,0.0,0.0,0.0,0.0,0.0,0.0,0.0,0.0,0.0,0.0,0.0,0.0,0.0,0.0,0.0,0.0,0.0,0.0,0.0,0.0,0.0,0.0,0.0,0.0,0.0,0.0,0.0,0.0,0.0,0.0,0.0,0.0,0.0,0.0,0.0,0.0,0.0,0.0,0.0,0.0,0.0,0.0,0.0,0.0,0.0,0.0,0.0,0.0,0.0,0.0,0.0,0.0,0.0,0.0,0.0,0.0,0.0,0.0,0.0,0.0,0.0,0.0,0.0,0.0,0.0,0.0,0.0,0.0,0.0,0.0,0.0,0.0,0.0,0.0,0.0,0.0,0.0,0.0,0.0,0.0,0.0,0.0,0.0,0.0,0.0,0.0,0.0,0.0,0.0,0.0,0.0,0.0,0.0,0.0,0.0,0.0,0.0,0.0,0.0,0.0,0.0,0.0,0.0,0.0,0.0,0.0,0.0,0.0,0.0,0.0,0.0,0.0,0.0,0.0,0.0,0.0,0.0,0.0,0.0,0.0,0.0,0.0,0.0,0.0,0.0,0.0,0.0,0.0,0.0,0.0,0.0,0.0,0.0,0.0,0.0,0.0,0.0,0.0,0.0,0.0,0.0,0.0,0.0,0.0,0.0,0.0,0.0,0.0,0.0,0.0,0.0,0.0,0.0,0.0,0.0,0.0,0.0,0.0,0.0,0.0,0.0,0.0,0.0,0.0,0.0,0.0,0.0,0.0,0.0,0.0,0.0,0.0,0.0,0.0,0.0,0.0,0.0,0.0,0.0,0.0,0.0,0.0,0.0,0.0,0.0,0.0,0.0,0.0,0.0,0.0,0.0,0.0,0.0,0.0,0.0,0.0,0.0,0.0,0.0,0.0,0.0,0.0,0.0,0.0,0.0,0.0,0.0,0.0,0.0,0.0,0.0,0.0,0.0,0.0,0.0,0.0,0.0,0.0,0.0,0.0,0.0,0.0,0.0,0.0,0.0,0.0,0.0,0.0,0.0,0.0,0.0,0.0,0.0,0.0,0.0,0.0,0.0,0.0,0.0,0.0,0.0,0.0,0.0,0.0,0.0,0.0,0.0,0.0,0.0,0.0,0.0,0.0,0.0,0.0,0.0,0.0,0.0,0.0,0.0,0.0,0.0,0.0,0.0,0.0,0.0,0.0,0.0,0.0,0.0,0.0,0.0,0.0,0.0,0.0,0.0,0.0,0.0,0.0,0.0,0.0,0.0,0.0,0.0,0.0,0.0,0.0,0.0,0.0,0.0,0.0,0.0,0.0,0.0,0.0,0.0,0.0,0.0,-0.1128,0.0,0.0,0.0,0.0,0.0,0.0,0.0,0.0,0.0,0.0,0.0,0.0,0.0,0.0,0.0,0.0,0.0,0.0,0.0,0.0,0.0,0.0,0.0,0.0,0.0,0.0,0.0,0.0,0.0,0.0,0.0,0.0,0.0,0.0,0.0,0.0,0.0,0.0,0.0,0.0,0.0,0.0,0.0,0.0,0.0,0.0,0.0,0.0,0.0,0.0,0.0,0.0,0.0,0.0,0.0,0.0,0.0,0.0,0.0,0.0,0.0,0.0,0.0,0.0,0.0,0.0,0.0,0.0,0.0,0.0,0.0,0.0,0.0,0.0,0.0,0.0,0.0,0.0,0.0,0.0,0.0,0.0,0.0,0.0,0.0,0.0,0.0,0.0,0.0,0.0,0.0,0.0,0.0,0.0,0.0,0.0,0.0,0.0,0.0,0.0,0.0,0.0,0.0,0.0,0.0,0.0,0.0,0.0,0.0,0.0,-0.1323,-0.1322,-0.1294,-0.1205,-0.122,0.0,0.0,0.0,0.0,0.0,0.0,0.0,0.0,0.0,0.0,0.0,0.0,0.0,0.0,0.0,0.0,0.0,0.0,0.0,0.0,0.0,0.0,0.0,0.0,0.0,0.0,0.0,0.0,0.0,0.0,0.0,0.0,0.0,0.0,0.0,0.0,0.0,0.0,0.0,0.0,0.0,0.0,0.0,0.0,0.0,0.0,0.0,0.0,0.0,0.0,0.0,0.0,0.0,0.0,0.0,0.0,0.0,0.0,0.0,0.0,0.0,0.0,0.0,0.0,0.0,0.0,0.0,0.0,0.0,0.0,0.0,0.0,0.0,0.0,0.0,0.0,0.0,0.0,0.0,0.0,0.0,0.0,0.0,0.0,0.0,0.0,0.0,0.0,0.0,0.0,0.0,0.0,0.0,0.0,0.0,0.0,0.0,0.0,0.0,0.0,0.0,0.0,0.0,0.0,0.0,0.0,0.0,0.0,0.0,0.0,0.0,0.0,-0.1238,-0.1312,-0.1486,0.0,0.0,0.0,0.0,0.0,0.0,0.0,0.0,0.0,0.0,0.0,0.0,0.0,0.0,0.0,0.0,0.0,0.0,0.0,0.0,0.0,0.0,0.0,0.0,0.0,0.0,0.0,0.0,0.0,0.0,0.0,0.0,0.0,0.0,0.0,0.0,0.0,0.0,0.0,0.0,0.0,0.0,0.0,0.0,0.0,0.0,0.0,0.0,0.0,0.0,0.0,0.0,0.0,0.0,0.0,0.0,0.0,0.0,0.0,0.0,0.0,0.0,0.0,0.0,0.0,0.0,0.0,0.0,0.0,0.0,0.0,0.0,0.0,0.0,0.0,0.0,0.0,0.0,0.0,0.0,0.0,0.0,0.0,0.0,0.0,0.0,0.0,0.0,0.0,0.0,0.0,0.0,0.0,0.0,0.0,0.0,0.0,0.0,0.0,0.0,0.0,0.0,0.0,0.0,0.0,0.0,0.0,0.0,0.0,0.0,-0.1436,-0.1371,-0.1369,0.0,-0.2077,0.0,0.0,0.0,0.0,0.0,0.0,0.0,0.0,0.0,0.0,0.0,0.0,0.0,0.0,0.0,0.0,0.0,0.0,0.0,0.0,0.0,0.0,0.0,0.0,0.0,0.0,0.0,0.0,0.0,0.0,0.0,0.0,0.0,0.0,0.0,0.0,0.0,0.0,0.0,0.0,0.0,0.0,0.0,0.0,0.0,0.0,0.0,0.0,0.0,0.0,0.0,0.0,0.0,0.0,0.0,0.0,0.0,0.0,0.0,0.0,0.0,0.0,0.0,0.0,0.0,0.0,0.0,0.0,0.0,0.0,0.0,0.0,0.0,0.0,0.0,0.0,0.0,0.0,0.0,0.0,0.0,0.0,0.0,0.0,0.0,0.0,0.0,0.0,0.0,0.0,0.0,0.0,0.0,0.0,0.0,0.0,0.0,0.0,0.0,0.0,0.0,0.0,0.0,0.0,0.0,0.0,0.0,0.0,0.0,0.0,-0.1157,-0.1362,-0.1545,-0.1703,0.0,0.0,0.0,0.0,0.0,0.0,0.0,0.0,0.0,0.0,0.0,0.0,0.0,0.0,0.0,0.0,0.0,0.0,0.0,0.0,0.0,0.0,0.0,0.0,0.0,0.0,0.0,0.0,0.0,0.0,0.0,0.0,0.0,0.0,0.0,0.0,0.0,0.0,0.0,0.0,0.0,0.0,0.0,0.0,0.0,0.0,0.0,0.0,0.0,0.0,0.0,0.0,0.0,0.0,0.0,0.0,0.0,0.0,0.0,0.0,0.0,0.0,0.0,0.0,0.0,0.0,0.0,0.0,0.0,0.0,0.0,0.0,0.0,0.0,0.0,0.0,0.0,0.0,0.0,0.0,0.0,0.0,0.0,0.0,0.0,0.0,0.0,0.0,0.0,0.0,0.0,0.0,0.0,0.0,0.0,0.0,0.0,0.0,0.0,0.0,0.0,0.0,0.0,0.0,0.0,0.0,0.0,0.0,0.0,0.0,-0.0898,-0.0987,-0.1193,-0.153,-0.1775,-0.1856,0.0,0.0,0.0,0.0,0.0,0.0,0.0,0.0,0.0,0.0,0.0,0.0,0.0,0.0,0.0,0.0,0.0,0.0,0.0,0.0,0.0,0.0,0.0,0.0,0.0,0.0,0.0,0.0,0.0,0.0,0.0,0.0,0.0,0.0,0.0,0.0,0.0,0.0,0.0,0.0,0.0,0.0,0.0,0.0,0.0,0.0,0.0,0.0,0.0,0.0,0.0,0.0,0.0,0.0,0.0,0.0,0.0,0.0,0.0,0.0,0.0,0.0,0.0,0.0,0.0,0.0,0.0,0.0,0.0,0.0,0.0,0.0,0.0,0.0,0.0,0.0,0.0,0.0,0.0,0.0,0.0,0.0,0.0,0.0,0.0,0.0,0.0,0.0,0.0,0.0,0.0,0.0,0.0,0.0,0.0,0.0,0.0,0.0,0.0,0.0,0.0,0.0,0.0,0.0,0.0,0.0,0.0,0.0,-0.1557,-0.1506,-0.1222,-0.0778,-0.118,-0.1861,0.0,0.0,0.0,0.0,0.0,0.0,0.0,0.0,0.0,0.0,0.0,0.0,0.0,0.0,0.0,0.0,0.0,0.0,0.0,0.0,0.0,0.0,0.0,0.0,0.0,0.0,0.0,0.0,0.0,0.0,0.0,0.0,0.0,0.0,0.0,0.0,0.0,0.0,0.0,0.0,0.0,0.0,0.0,0.0,0.0,0.0,0.0,0.0,0.0,0.0,0.0,0.0,0.0,0.0,0.0,0.0,0.0,0.0,0.0,0.0,0.0,0.0,0.0,0.0,0.0,0.0,0.0,0.0,0.0,0.0,0.0,0.0,0.0,0.0,0.0,0.0,0.0,0.0,0.0,0.0,0.0,0.0,0.0,0.0,0.0,0.0,0.0,0.0,0.0,0.0,0.0,0.0,0.0,0.0,0.0,0.0,0.0,0.0,0.0,0.0,0.0,0.0,0.0,0.0,0.0,0.0,0.0,0.0,0.0,-0.1483,-0.1482,-0.1398,-0.1132,-0.1287,-0.1811,0.0,0.0,0.0,0.0,0.0,0.0,0.0,0.0,0.0,0.0,0.0,0.0,0.0,0.0,0.0,0.0,0.0,0.0,0.0,0.0,0.0,0.0,0.0,0.0,0.0,0.0,0.0,0.0,0.0,0.0,0.0,0.0,0.0,0.0,0.0,0.0,0.0,0.0,0.0,0.0,0.0,0.0,0.0,0.0,0.0,0.0,0.0,0.0,0.0,0.0,0.0,0.0,0.0,0.0,0.0,0.0,0.0,0.0,0.0,0.0,0.0,0.0,0.0,0.0,0.0,0.0,0.0,0.0,0.0,0.0,0.0,0.0,0.0,0.0,0.0,0.0,0.0,0.0,0.0,0.0,0.0,0.0,0.0,0.0,0.0,0.0,0.0,0.0,0.0,0.0,0.0,0.0,0.0,0.0,0.0,0.0,0.0,0.0,0.0,0.0,0.0,0.0,0.0,0.0,0.0,0.0,0.0,0.0,0.0,-0.1179,0.0,-0.1491,-0.1389,-0.147,-0.1724,0.0,0.0,0.0,0.0,0.0,0.0,0.0,0.0,0.0,0.0,0.0,0.0,0.0,0.0,0.0,0.0,0.0,0.0,0.0,0.0,0.0,0.0,0.0,0.0,0.0,0.0,0.0,0.0,0.0,0.0,0.0,0.0,0.0,0.0,0.0,0.0,0.0,0.0,0.0,0.0,0.0,0.0,0.0,0.0,0.0,0.0,0.0,0.0,0.0,0.0,0.0,0.0,0.0,0.0,0.0,0.0,0.0,0.0,0.0,0.0,0.0,0.0,0.0,0.0,0.0,0.0,0.0,0.0,0.0,0.0,0.0,0.0,0.0,0.0,0.0,0.0,0.0,0.0,0.0,0.0,0.0,0.0,0.0,0.0,0.0,0.0,0.0,0.0,0.0,0.0,0.0,0.0,0.0,0.0,0.0,0.0,0.0,0.0,0.0,0.0,0.0,0.0,0.0,0.0,0.0,0.0,0.0,0.0,-0.0181,-0.0739,-0.132,-0.151,-0.1482,-0.1543,-0.1511,0.0,0.0,0.0,0.0,0.0,0.0,0.0,0.0,0.0,0.0,0.0,0.0,0.0,0.0,0.0,0.0,0.0,0.0,0.0,0.0,0.0,0.0,0.0,0.0,0.0,0.0,0.0,0.0,0.0,0.0,0.0,0.0,0.0,0.0,0.0,0.0,0.0,0.0,0.0,0.0,0.0,0.0,0.0,0.0,0.0,0.0,0.0,0.0,0.0,0.0,0.0,0.0,0.0,0.0,0.0,0.0,0.0,0.0,0.0,0.0,0.0,0.0,0.0,0.0,0.0,0.0,0.0,0.0,0.0,0.0,0.0,0.0,0.0,0.0,0.0,0.0,0.0,0.0,0.0,0.0,0.0,0.0,0.0,0.0,0.0,0.0,0.0,0.0,0.0,0.0,0.0,0.0,0.0,0.0,0.0,0.0,0.0,0.0,0.0,0.0,0.0,0.0,0.0,0.0,0.0,0.0,0.0,0.0,0.0,-0.0725,-0.1202,-0.151,-0.1538,-0.1453,-0.1685,0.0,0.0,0.0,0.0,0.0,0.0,0.0,0.0,0.0,0.0,0.0,0.0,0.0,0.0,0.0,0.0,0.0,0.0,0.0,0.0,0.0,0.0,0.0,0.0,0.0,0.0,0.0,0.0,0.0,0.0,0.0,0.0,0.0,0.0,0.0,0.0,0.0,0.0,0.0,0.0,0.0,0.0,0.0,0.0,0.0,0.0,0.0,0.0,0.0,0.0,0.0,0.0,0.0,0.0,0.0,0.0,0.0,0.0,0.0,0.0,0.0,0.0,0.0,0.0,0.0,0.0,0.0,0.0,0.0,0.0,0.0,0.0,0.0,0.0,0.0,0.0,0.0,0.0,0.0,0.0,0.0,0.0,0.0,0.0,0.0,0.0,0.0,0.0,0.0,0.0,0.0,0.0,0.0,0.0,0.0,0.0,0.0,0.0,0.0,0.0,0.0,0.0,0.0,0.0,0.0,0.0,0.0,0.0,0.0,-0.047,-0.1046,-0.1447,-0.1472,-0.1404,-0.1629,-0.2232,0.0,0.0,0.0,0.0,0.0,0.0,0.0,0.0,0.0,0.0,0.0,0.0,0.0,0.0,0.0,0.0,0.0,0.0,0.0,0.0,0.0,0.0,0.0,0.0,0.0,0.0,0.0,0.0,0.0,0.0,0.0,0.0,0.0,0.0,0.0,0.0,0.0,0.0,0.0,0.0,0.0,0.0,0.0,0.0,0.0,0.0,0.0,0.0,0.0,0.0,0.0,0.0,0.0,0.0,0.0,0.0,0.0,0.0,0.0,0.0,0.0,0.0,0.0,0.0,0.0,0.0,0.0,0.0,0.0,0.0,0.0,0.0,0.0,0.0,0.0,0.0,0.0,0.0,0.0,0.0,0.0,0.0,0.0,0.0,0.0,0.0,0.0,0.0,0.0,0.0,0.0,0.0,0.0,0.0,0.0,0.0,0.0,0.0,0.0,0.0,0.0,0.0,0.0,0.0,0.0,0.0,0.0,0.0,0.0,-0.0918,-0.1316,-0.1389,-0.1378,-0.1598,0.0,0.0,0.0,0.0,0.0,0.0,0.0,0.0,0.0,0.0,0.0,0.0,0.0,0.0,0.0,0.0,0.0,0.0,0.0,0.0,0.0,0.0,0.0,0.0,0.0,0.0,0.0,0.0,0.0,0.0,0.0,0.0,0.0,0.0,0.0,0.0,0.0,0.0,0.0,0.0,0.0,0.0,0.0,0.0,0.0,0.0,0.0,0.0,0.0,0.0,0.0,0.0,0.0,0.0,0.0,0.0,0.0,0.0,0.0,0.0,0.0,0.0,0.0,0.0,0.0,0.0,0.0,0.0,0.0,0.0,0.0,0.0,0.0,0.0,0.0,0.0,0.0,0.0,0.0,0.0,0.0,0.0,0.0,0.0,0.0,0.0,0.0,0.0,0.0,0.0,0.0,0.0,0.0,0.0,0.0,0.0,0.0,0.0,0.0,0.0,0.0,0.0,0.0,0.0,0.0,0.0,0.0,0.0,0.0,0.0,-0.0227,-0.068,-0.1411,-0.1426,-0.1649,0.0,0.0,0.0,0.0,0.0,0.0,0.0,0.0,0.0,0.0,0.0,0.0,0.0,0.0,0.0,0.0,0.0,0.0,0.0,0.0,0.0,0.0,0.0,0.0,0.0,0.0,0.0,0.0,0.0,0.0,0.0,0.0,0.0,0.0,0.0,0.0,0.0,0.0,0.0,0.0,0.0,0.0,0.0,0.0,0.0,0.0,0.0,0.0,0.0,0.0,0.0,0.0,0.0,0.0,0.0,0.0,0.0,0.0,0.0,0.0,0.0,0.0,0.0,0.0,0.0,0.0,0.0,0.0,0.0,0.0,0.0,0.0,0.0,0.0,0.0,0.0,0.0,0.0,0.0,0.0,0.0,0.0,0.0,0.0,0.0,0.0,0.0,0.0,0.0,0.0,0.0,0.0,0.0,0.0,0.0,0.0,0.0,0.0,0.0,0.0,0.0,0.0,0.0,0.0,0.0,0.0,0.0,0.0,0.0,0.0,0.0,-0.0249,-0.0843,-0.0774,-0.1231,0.0,0.0,0.0,0.0,0.0,0.0,0.0,0.0,0.0,0.0,0.0,0.0,0.0,0.0,0.0,0.0,0.0,0.0,0.0,0.0,0.0,0.0,0.0,0.0,0.0,0.0,0.0,0.0,0.0,0.0,0.0,0.0,0.0,0.0,0.0,0.0,0.0,0.0,0.0,0.0,0.0,0.0,0.0,0.0,0.0,0.0,0.0,0.0,0.0,0.0,0.0,0.0,0.0,0.0,0.0,0.0,0.0,0.0,0.0,0.0,0.0,0.0,0.0,0.0,0.0,0.0,0.0,0.0,0.0,0.0,0.0,0.0,0.0,0.0,0.0,0.0,0.0,0.0,0.0,0.0,0.0,0.0,0.0,0.0,0.0,0.0,0.0,0.0,0.0,0.0,0.0,0.0,0.0,0.0,0.0,0.0,0.0,0.0,0.0,0.0,0.0,0.0,0.0,0.0,0.0,0.0,0.0,0.0,0.0,0.0,0.0,0.0,0.0,0.0,-0.0655,0.0,0.0,0.0,0.0,0.0,0.0,0.0,0.0,0.0,0.0,0.0,0.0,0.0,0.0,0.0,0.0,0.0,0.0,0.0,0.0,0.0,0.0,0.0,0.0,0.0,0.0,0.0,0.0,0.0,0.0,0.0,0.0,0.0,0.0,0.0,0.0,0.0,0.0,0.0,0.0,0.0,0.0,0.0,0.0,0.0,0.0,0.0,0.0,0.0,0.0,0.0,0.0,0.0,0.0,0.0,0.0,0.0,0.0,0.0,0.0,0.0,0.0,0.0,0.0,0.0,0.0,0.0,0.0,0.0,0.0,0.0,0.0,0.0,0.0,0.0,0.0,0.0,0.0,0.0,0.0,0.0,0.0,0.0,0.0,0.0,0.0,0.0,0.0,0.0,0.0,0.0,0.0,0.0,0.0,0.0,0.0,0.0,0.0,0.0,0.0,0.0,0.0,0.0,0.0,0.0,0.0,0.0,0.0,0.0,0.0,0.0,0.0,0.0,0.0,-0.0558,0.0,0.0,0.0,0.0,0.0,0.0,0.0,0.0,0.0,0.0,0.0,0.0,0.0,0.0,0.0,0.0,0.0,0.0,0.0,0.0,0.0,0.0,0.0,0.0,0.0,0.0,0.0,0.0,0.0,0.0,0.0,0.0,0.0,0.0,0.0,0.0,0.0,0.0,0.0,0.0,0.0,0.0,0.0,0.0,0.0,0.0,0.0,0.0,-0.3848,0.0,0.0,0.0,0.0,0.0,0.0,0.0,0.0,0.0,0.0,0.0,0.0,0.0,0.0,0.0,0.0,0.0,0.0,0.0,0.0,0.0,0.0,0.0,0.0,0.0,0.0,0.0,0.0,0.0,0.0,0.0,0.0,0.0,0.0,0.0,0.0,0.0,0.0,0.0,0.0,0.0,0.0,0.0,0.0,0.0,0.0,0.0,0.0,0.0,0.0,0.0,0.0,0.0,0.0,0.0,0.0,0.0,0.0,0.0,0.0,0.0,0.0,0.0,0.0,0.0,-0.0454,0.0,0.0,0.0,0.0,0.0,0.0,0.0,0.0,0.0,0.0,0.0,0.0,0.0,0.0,0.0,0.0,0.0,0.0,0.0,0.0,0.0,0.0,0.0,0.0,0.0,0.0,0.0,0.0,0.0,0.0,0.0,0.0,0.0,0.0,0.0,0.0,0.0,0.0,0.0,0.0,0.0,0.0,0.0,0.0,0.0,0.0,0.0,0.0,0.0,0.0,0.0,0.0,0.0,0.0,0.0,0.0,0.0,0.0,0.0,0.0,0.0,0.0,0.0,0.0,0.0,0.0,0.0,0.0,0.0,0.0,0.0,0.0,0.0,0.0,0.0,0.0,0.0,0.0,0.0,0.0,0.0,0.0,0.0,0.0,0.0,0.0,0.0,0.0,0.0,0.0,0.0,0.0,0.0,0.0,0.0,0.0,0.0,0.0,0.0,0.0,0.0,0.0,0.0,0.0,0.0,0.0,0.0,0.0,0.0,0.0,0.0,0.0,0.0,0.0,-0.0344,-0.12,0.0,0.0,0.0,0.0,0.0,0.0,0.0,0.0,0.0,0.0,0.0,0.0,0.0,0.0,0.0,0.0,0.0,0.0,0.0,0.0,0.0,0.0,0.0,0.0,0.0,0.0,0.0,0.0,0.0,0.0,0.0,0.0,0.0,0.0,0.0,0.0,0.0,0.0,-0.745,-0.6414,0.0,0.0,0.0,0.0,0.0,0.0,0.0,0.0,-0.4729,0.0,0.0,0.0,0.0,0.0,0.0,0.0,0.0,0.0,0.0,0.0,0.0,0.0,0.0,0.0,0.0,0.0,0.0,0.0,0.0,0.0,0.0,0.0,0.0,0.0,0.0,0.0,0.0,0.0,0.0,0.0,0.0,0.0,0.0,0.0,0.0,0.0,0.0,0.0,0.0,0.0,0.0,0.0,0.0,0.0,0.0,0.0,0.0,0.0,0.0,0.0,0.0,0.0,0.0,0.0,0.0,0.0,0.0,0.0,0.0,0.0,0.0,0.0,0.0,-0.0113,-0.0214,0.0,0.0,0.0,0.0,0.0,0.0,0.0,0.0,0.0,0.0,0.0,0.0,0.0,0.0,0.0,0.0,0.0,0.0,0.0,0.0,0.0,0.0,0.0,0.0,0.0,0.0,0.0,0.0,0.0,0.0,0.0,0.0,0.0,0.0,0.0,0.0,0.0,0.0,0.0,-0.8688,-0.7282,0.0,0.0,0.0,0.0,0.0,0.0,0.0,0.0,-0.477,0.0,0.0,0.0,0.0,0.0,0.0,0.0,0.0,0.0,0.0,0.0,0.0,0.0,0.0,0.0,0.0,0.0,0.0,0.0,0.0,0.0,0.0,0.0,0.0,0.0,0.0,0.0,0.0,0.0,0.0,0.0,0.0,0.0,0.0,0.0,0.0,0.0,0.0,0.0,0.0,0.0,0.0,0.0,0.0,0.0,0.0,0.0,0.0,0.0,0.0,0.0,0.0,0.0,0.0,0.0,0.0,0.0,0.0,0.0,0.0,0.0,0.0,0.0,0.0,0.0,0.0,0.0,0.0,0.0,0.0,0.0,0.0,0.0,0.0,0.0,0.0,0.0,0.0,0.0,0.0,0.0,0.0,0.0,0.0,0.0,0.0,0.0,0.0,0.0,0.0,0.0,0.0,0.0,0.0,0.0,0.0,0.0,0.0,0.0,0.0,0.0,0.0,0.0,0.0,-0.8901,-0.8388,-0.8546,0.0,0.0,0.0,0.0,0.0,0.0,-0.4851,-0.4896,0.0,0.0,0.0,0.0,0.0,0.0,0.0,0.0,0.0,0.0,0.0,0.0,0.0,0.0,0.0,0.0,0.0,0.0,0.0,0.0,0.0,0.0,0.0,0.0,0.0,0.0,0.0,0.0,0.0,0.0,0.0,0.0,0.0,0.0,0.0,0.0,0.0,0.0,0.0,0.0,0.0,0.0,0.0,0.0,0.0,0.0,0.0,0.0,0.0,0.0,0.0,0.0,0.0,0.0,0.0,0.0,0.0,0.0,0.0,0.0,0.0,0.0,0.0,0.0,0.0,0.0,0.0,0.0,0.0,0.0,0.0,0.0,0.0,0.0,0.0,0.0,0.0,0.0,0.0,0.0,0.0,0.0,0.0,0.0,0.0,0.0,0.0,0.0,0.0,0.0,0.0,0.0,0.0,0.0,0.0,0.0,0.0,0.0,0.0,0.0,0.0,0.0,0.0,0.0,0.0,-0.8952,-0.8861,-0.8134,0.0,0.0,0.0,0.0,-0.5053,-0.519,0.0,0.0,0.0,0.0,0.0,0.0,0.0,0.0,0.0,0.0,0.0,0.0,0.0,0.0,0.0,0.0,0.0,0.0,0.0,0.0,0.0,0.0,0.0,0.0,0.0,0.0,0.0,0.0,0.0,0.0,0.0,0.0,0.0,0.0,0.0,0.0,0.0,0.0,0.0,0.0,0.0,0.0,0.0,0.0,0.0,0.0,0.0,0.0,0.0,0.0,0.0,0.0,0.0,0.0,0.0,0.0,0.0,0.0,0.0,0.0,0.0,0.0,0.0,0.0,0.0,0.0,0.0,0.0,0.0,0.0,0.0,0.0,0.0,0.0,0.0,0.0,0.0,0.0,0.0,0.0,0.0,0.0,0.0,0.0,0.0,0.0,0.0,0.0,0.0,0.0,0.0,0.0,0.0,0.0,0.0,0.0,0.0,0.0,0.0,0.0,0.0,0.0,0.0,0.0,0.0,0.0,-0.8371,-0.8815,-0.7658,-0.6457,0.0,0.0,-0.57,-0.51,-0.4997,0.0,0.0,0.0,0.0,0.0,0.0,0.0,0.0,0.0,0.0,0.0,0.0,0.0,0.0,0.0,0.0,0.0,0.0,0.0,0.0,0.0,0.0,0.0,0.0,0.0,0.0,0.0,0.0,0.0,0.0,0.0,0.0,0.0,0.0,0.0,0.0,0.0,0.0,0.0,0.0,0.0,0.0,0.0,0.0,0.0,0.0,0.0,0.0,0.0,0.0,0.0,0.0,0.0,0.0,0.0,0.0,0.0,0.0,0.0,0.0,0.0,0.0,0.0,0.0,0.0,0.0,0.0,0.0,0.0,0.0,0.0,0.0,0.0,0.0,0.0,0.0,0.0,0.0,0.0,0.0,0.0,0.0,0.0,0.0,0.0,0.0,0.0,0.0,0.0,0.0,0.0,0.0,0.0,0.0,0.0,0.0,0.0,0.0,0.0,0.0,0.0,0.0,0.0,0.0,0.0,0.0,0.0,-0.7857,-0.7807,0.0,0.0,0.0,-0.6048,-0.5572,0.0,0.0,0.0,0.0,0.0,0.0,0.0,0.0,0.0,0.0,0.0,0.0,0.0,0.0,0.0,0.0,0.0,0.0,0.0,0.0,0.0,0.0,0.0,0.0,0.0,0.0,0.0,0.0,0.0,0.0,0.0,0.0,0.0,0.0,0.0,0.0,0.0,0.0,0.0,0.0,0.0,0.0,0.0,0.0,0.0,0.0,0.0,0.0,0.0,0.0,0.0,0.0,0.0,0.0,0.0,0.0,0.0,0.0,0.0,0.0,0.0,0.0,0.0,0.0,0.0,0.0,0.0,0.0,0.0,0.0,0.0,0.0,0.0,0.0,0.0,0.0,0.0,0.0,0.0,0.0,0.0,0.0,0.0,0.0,0.0,0.0,0.0,0.0,0.0,0.0,0.0,0.0,-0.2674,0.0,0.0,0.0,0.0,0.0,0.0,0.0,0.0,0.0,0.0,0.0,0.0,0.0,0.0,-0.7537,-0.7088,-0.7617,-0.767,0.0,0.0,-0.6183,-0.6031,-0.6447,-0.6905,0.0,0.0,0.0,0.0,0.0,0.0,0.0,0.0,0.0,0.0,0.0,0.0,0.0,0.0,0.0,0.0,0.0,0.0,0.0,0.0,0.0,0.0,0.0,0.0,0.0,0.0,0.0,0.0,0.0,0.0,0.0,0.0,0.0,0.0,0.0,0.0,0.0,0.0,0.0,0.0,0.0,0.0,0.0,0.0,0.0,0.0,0.0,0.0,0.0,0.0,0.0,0.0,0.0,0.0,0.0,0.0,0.0,0.0,0.0,0.0,0.0,0.0,0.0,0.0,0.0,0.0,0.0,0.0,0.0,0.0,0.0,0.0,0.0,0.0,0.0,0.0,0.0,0.0,0.0,0.0,0.0,0.0,0.0,0.0,0.0,0.0,0.0,0.0,0.0,0.0,0.0,0.0,0.0,0.0,0.0,0.0,0.0,0.0,0.0,0.0,0.0,0.0,0.0,0.0,0.0,-0.6929,-0.6742,-0.6548,-0.6627,0.0,-0.6508,-0.6162,-0.6334,-0.7229,-0.7351,-0.5832,0.0,0.0,0.0,0.0,0.0,0.0,0.0,0.0,0.0,0.0,0.0,0.0,0.0,0.0,0.0,0.0,0.0,0.0,0.0,0.0,0.0,0.0,0.0,0.0,0.0,0.0,0.0,0.0,0.0,0.0,0.0,0.0,0.0,0.0,0.0,0.0,0.0,0.0,0.0,0.0,0.0,0.0,0.0,0.0,0.0,0.0,0.0,0.0,0.0,0.0,0.0,0.0,0.0,0.0,0.0,0.0,0.0,0.0,0.0,0.0,0.0,0.0,0.0,0.0,0.0,0.0,0.0,0.0,0.0,0.0,0.0,0.0,0.0,0.0,0.0,0.0,0.0,0.0,0.0,0.0,0.0,0.0,0.0,0.0,0.0,0.0,0.0,0.0,0.0,0.0,0.0,-0.3722,-0.4014,-0.4073,0.0,0.0,0.0,0.0,0.0,0.0,0.0,0.0,0.0,0.0,-0.6617,-0.6974,-0.691,0.0,0.0,-0.6778,-0.6468,-0.5934,-0.7087,-0.7572,-0.6163,-0.5217,0.0,0.0,0.0,0.0,0.0,0.0,0.0,0.0,0.0,0.0,0.0,0.0,0.0,0.0,0.0,0.0,0.0,0.0,0.0,0.0,0.0,0.0,0.0,0.0,0.0,0.0,0.0,0.0,0.0,0.0,0.0,0.0,0.0,0.0,0.0,0.0,0.0,0.0,0.0,0.0,0.0,0.0,0.0,0.0,0.0,0.0,0.0,0.0,0.0,0.0,0.0,0.0,0.0289,0.0,0.0,0.0,0.0,0.0,0.0,0.0,0.0,0.0,0.0,0.0,0.0,0.0,0.0,0.0,0.0,0.0,0.0,0.0,0.0,0.0,0.0,0.0,0.0,0.0,0.0,0.0,0.0,0.0,0.0,0.0,0.0,0.0,0.0,0.0,0.0,0.0,-0.3822,-0.383,-0.3918,0.0,0.0,0.0,0.0,0.0,0.0,0.0,0.0,0.0,0.0,-0.6581,-0.6817,-0.6938,-0.6836,-0.6743,-0.6663,-0.6453,-0.5826,-0.6871,-0.7315,-0.6172,0.0,0.0,0.0,0.0,0.0,0.0,0.0,0.0,0.0,0.0,0.0,0.0,0.0,0.0,0.0,0.0,0.0,0.0,0.0,0.0,0.0,0.0,0.0,0.0,0.0,0.0,0.0,0.0,0.0,0.0,0.2349,0.0,0.0,0.0,0.0,0.0,0.0,0.0,0.0,0.0,0.0,0.0,0.0,0.0,0.0,0.0,0.0,0.0,0.0,0.0,0.0,0.0,0.0,0.0851,0.0,0.0,0.0,0.0,0.0,0.0,0.0,0.0,0.0,0.0,0.0,0.0,0.0,0.0,0.0,0.0,0.0,0.0,0.0,0.0,0.0,0.0,0.0,0.0,0.0,0.0,0.0,0.0,0.0,0.0,0.0,0.0,0.0,0.0,0.0,0.0,-0.3781,-0.384,-0.3842,0.0,0.0,0.0,0.0,0.0,0.0,0.0,0.0,0.0,0.0,-0.6483,-0.6872,-0.6201,-0.6198,-0.6453,-0.6624,-0.6148,-0.5904,-0.623,-0.6698,-0.6723,0.0,0.0,0.0,0.0,0.0,0.0,0.0,0.0,0.0,0.0,0.0,0.0,0.0,0.0,0.0,0.0,0.0,0.0,0.0,0.0,0.0,0.0,0.0,0.0,0.0,0.0,0.0,0.2933,0.2935,0.0,0.0,0.0,0.0,0.0,0.0,0.0,0.0,0.0,0.0,0.0,0.1304,0.1146,0.0,0.0,0.0,0.0,0.0,0.0,0.0,0.0,0.0,0.0,0.0,0.0,0.1244,0.0,0.0,0.0,0.0,0.0,0.0,0.0,0.0,0.0,0.0,0.0,0.0,0.0,0.0,0.0,0.0,0.0,0.0,0.0,0.0,0.0,0.0,0.0,0.0,0.0,0.0,0.0,0.0,0.0,0.0,0.0,0.0,0.0,0.0,0.0,-0.3311,0.0,0.0,0.0,0.0,0.0,0.0,0.0,0.0,0.0,0.0,0.0,-0.4367,-0.5386,-0.6063,-0.6364,-0.6048,-0.6171,-0.6343,0.0,0.0,0.0,0.0,0.0,0.0,0.0,0.0,0.0,0.0,0.0,0.0,0.0,0.0,-0.5498,-0.579,-0.647,-0.6574,-0.5246,0.0,0.0,0.0,0.0,0.0,0.0,0.0,0.0,0.0,0.0,0.0,0.0,0.0,0.0,0.2424,0.0,0.28,0.0,0.0,0.0,0.0,0.0,0.0,0.0,0.0,0.1768,0.1532,0.1633,0.0828,0.1202,0.0,0.1734,0.1345,0.0,0.0,0.0,0.0,0.0,0.0,0.0,0.0,0.154,0.0295,0.0103,0.0,0.0,0.0,0.0,0.0,0.0,0.0,0.0,0.0,0.0,0.0,0.0,0.0,0.0,0.0,0.0,0.0,0.0,0.0,0.0,0.0,0.0,0.0,0.0,0.0,0.0,0.0,0.0,0.0,0.0,0.0,0.0,0.0,-0.262,0.0,0.0,0.0,0.0,0.0,0.0,0.0,0.0,0.0,-0.5218,-0.5122,-0.4944,-0.494,-0.5424,-0.5741,-0.5653,0.0,0.0,0.0,0.0,0.0,0.0,0.0,-0.5035,-0.5042,-0.53,-0.5725,-0.5996,-0.6147,-0.6081,-0.5943,0.0,0.0,-0.6689,-0.7204,-0.7224,-0.6233,-0.647,-0.7729,-1.0586,-1.0858,-1.0536,0.0,0.0,0.0,0.0,0.0,0.0,0.0,0.0,0.2104,0.1608,0.0,0.2557,0.0,0.0,0.0,0.0,0.0,0.2651,0.0,0.0,0.1021,0.0944,0.2228,0.0743,0.0928,0.2505,0.1669,0.1283,0.1345,0.138,0.0,0.0,0.0,0.0,0.0,0.0,0.1825,0.0686,0.0204,0.0,0.0,0.0,0.0,0.0,0.0,0.0,0.0,0.0,0.0,0.0,0.0,0.0,0.0,0.0,0.0,0.0,0.0,0.0,0.0,0.0,0.0,0.0,0.0,0.0,0.0,0.0,0.0,0.0,0.0,0.0,0.0,-0.1348,0.0,0.0,0.0,0.0,0.0,0.0,0.0,0.0,0.0,0.0,-0.6608,-0.6959,-0.6334,-0.4319,0.0,0.0,0.0,0.0,-0.577,-0.5181,-0.5616,-0.5871,-0.5524,-0.5194,-0.5035,-0.5056,0.0,0.0,-0.577,-0.6129,-0.6364,-0.5977,-0.6183,-0.6594,-0.7393,-0.7421,-0.7535,-0.8002,-0.8047,-0.892,-1.1564,-1.2512,-1.2342,0.6424,0.0,0.0,0.0,0.0,0.2696,0.2357,0.4055,0.2901,0.1784,0.0591,0.2216,0.0,0.0,0.0,0.0,0.0,0.0,0.215,0.2796,0.2306,0.1554,0.0676,0.0196,0.0294,0.0772,0.1142,0.131,0.1284,0.1341,0.1505,0.1688,0.0,0.0,0.0,0.0,0.3264,0.0882,0.0206,0.0,0.0,0.0,0.0,0.0,0.0,0.0,0.0,-0.3275,-0.4901,-0.4497,-0.1594,0.0,0.0,0.0,0.0,0.0,0.0,0.0,0.0,0.0,0.0,0.0,0.0,0.0,0.0,0.0,0.0,0.0,0.0,0.0,-0.1081,-0.16,-0.1935,0.0,0.0,0.0,0.0,0.0,0.0,0.0,0.0,0.0,-0.4672,-0.6092,-0.635,0.0,0.0,-0.4341,-0.4659,-0.5004,-0.5348,-0.543,-0.5505,0.0,-0.5975,-0.5386,-0.5165,-0.5671,-0.6242,-0.6486,-0.6076,-0.6344,-0.6583,-0.6351,-0.6943,-0.7689,-0.8534,-0.8537,-0.8819,-1.0031,-1.0367,-1.0773,-1.2005,-1.2471,-1.2371,0.6712,0.6427,0.6918,0.639,0.5054,0.1516,0.1026,0.2516,0.1957,0.1119,0.0101,0.1578,0.202,0.1405,0.2061,0.0,0.0,0.0,0.1916,0.1738,0.1759,0.1085,0.0,0.0,0.0,0.0,0.0491,0.0773,0.0758,0.0837,0.1197,0.1837,0.0,0.0,0.4156,0.5467,0.5281,0.3326,0.1128,0.0,0.0,0.0,0.0,0.0,0.0,0.0,0.0,-0.2757,-0.4883,-0.6201,-0.3916,-0.1734,0.0,0.0,0.0,0.0,0.0,0.0,0.0,0.0,0.0,0.0,0.0,-0.1826,-0.2594,0.0,0.0,0.0,-0.1847,-0.1356,-0.1175,-0.1861,0.0,0.0,0.0,0.0,0.0,0.0,0.0,-0.4522,-0.4143,-0.3827,-0.3876,-0.57,-0.6427,-0.4653,-0.4461,-0.4582,-0.4688,0.0,-0.5413,-0.555,-0.5536,-0.5583,-0.5996,-0.5946,-0.6028,-0.6446,-0.6515,-0.6499,-0.6367,-0.6471,-0.6556,-0.65,-0.6858,-0.7629,-0.9069,-0.91,-0.9563,-1.1378,-1.1748,-1.1867,-1.2281,-1.2271,-1.2335,0.7782,0.5397,0.6733,0.5998,0.3728,0.117,0.0,0.0,0.0,0.0,0.0,0.091,0.1287,0.1243,0.1243,0.0,0.2686,0.2685,0.1742,0.0,0.0,0.0,0.0,0.0,0.0,0.0,0.0,0.0,0.0,0.0,0.0956,0.2765,0.4133,0.4913,0.5194,0.6529,0.7327,0.7265,0.2948,0.0,0.0,0.0,0.0,0.0,0.0,0.0,0.0,0.0,-0.1863,-0.576,-0.6243,-0.4587,-0.0813,0.0,0.0,0.0,0.0,0.0,0.0,0.0,0.0,0.0,0.0,0.0,0.0,0.0,0.0,0.0,-0.2059,0.0,-0.1312,-0.2143,0.0,0.0,0.0,-0.4461,-0.4975,-0.5092,-0.5295,-0.5626,0.0,0.0,-0.4063,-0.5839,-0.659,-0.5304,-0.53,-0.5288,-0.5167,-0.5556,-0.5833,-0.5548,-0.558,-0.5666,-0.5913,-0.6447,-0.6885,-0.6874,-0.6625,-0.6423,-0.6455,-0.6502,-0.6441,-0.6322,-0.6423,-0.7099,-0.8993,-0.9437,-1.0126,-1.1977,-1.2285,-1.2298,-1.2298,-1.2309,-1.2464,0.712,0.8644,0.8991,0.8283,0.6551,0.1967,0.0,0.0,0.0,0.0,0.0,0.0205,0.0299,0.0293,0.0293,0.0492,0.0698,0.0698,0.04,0.0,0.0,0.0,0.0,0.0,0.0,0.0,0.0,0.0,0.0,0.0,0.1669,0.478,0.3868,0.4042,0.52,0.6449,0.7411,0.7862,0.6716,0.4136,0.0,0.0,0.0,0.0,0.0,0.0,0.0,0.0,-0.1166,-0.376,-0.5577,-0.6053,-0.4836,-0.1776,0.0,0.0,0.0,0.0,0.0,0.0,0.0,0.0,0.0,-0.1543,-0.5195,0.0,-0.4621,0.0,-0.1276,-0.0617,-0.1272,-0.2858,0.0,0.0,-0.4743,-0.5177,-0.4869,-0.5241,-0.5529,-0.5521,-0.5984,-0.629,-0.6331,-0.6388,-0.6393,-0.6053,-0.6,-0.593,-0.5488,-0.5562,-0.5724,-0.5761,-0.6,-0.6147,-0.6318,-0.6603,-0.6698,-0.6529,-0.6706,-0.6824,-0.6585,-0.6647,-0.66,-0.6607,-0.7639,-0.8708,-0.9221,-1.0501,-1.1626,-1.215,-1.2305,-1.2305,-1.2305,-1.2284,-1.2344,0.8149,0.966,0.8292,0.8011,0.8308,0.2478,0.0,0.0,0.0,0.0,0.0,0.0,0.0,0.0,0.0,0.0,0.0,0.0,0.0,0.0,0.0,0.0,0.0,0.0,0.0,0.0,0.0,0.0,0.0,0.0,0.2297,0.6583,0.5377,0.5153,0.608,0.6466,0.6819,0.715,0.6508,0.4242,0.0,0.0,0.0,0.0,0.0,0.0,0.0,0.0,-0.0537,-0.1691,-0.4289,-0.5735,-0.5442,-0.2864,-0.0989,0.0,0.0,0.0,0.0,0.0,0.0,0.0,0.0,0.0,0.0,0.0,-0.5775,-0.4612,-0.1812,-0.0702,-0.2422,-0.433,-0.5147,-0.4251,-0.4998,-0.5624,-0.58,-0.6101,-0.6313,-0.6251,-0.6701,-0.6975,-0.6816,-0.6515,-0.628,-0.6297,-0.6315,-0.622,-0.5965,-0.5914,-0.5948,-0.6103,-0.6169,-0.6297,-0.6376,-0.6447,-0.6445,-0.6335,-0.662,-0.7137,-0.7761,-0.7075,-0.6812,-0.7728,-0.8367,-0.8993,-0.982,-1.0789,-1.1694,-1.215,-1.2305,-1.2305,-1.2305,-1.2305,-1.2325,0.9875,0.948,0.6303,0.6345,0.8131,0.2417,0.0,0.0,0.0,0.0,0.0,0.0,0.0,0.0,0.0,0.0,0.0,0.0,0.0,0.0,0.0,0.0,0.0,0.0,0.0,0.0,0.0,0.0,0.0,0.0,0.252,0.7275,0.7153,0.7081,0.7259,0.6359,0.5932,0.5952,0.4816,0.2939,0.0,0.0,0.0,0.0,0.0,0.0,0.0,0.0,0.0,0.0,-0.2644,-0.4287,-0.4617,-0.3954,-0.2615,0.0,-0.0166,0.0,0.0,0.0,0.0,0.0,0.0,0.0,0.0,-0.3342,-0.5692,-0.6112,-0.2998,-0.1654,-0.3488,-0.551,-0.584,-0.4002,-0.4891,-0.599,-0.6539,-0.6923,-0.7104,-0.7104,-0.6602,-0.6108,-0.6319,-0.6329,-0.6255,-0.6295,-0.6268,-0.6264,-0.6261,-0.6264,-0.6257,-0.6261,-0.6261,-0.6278,-0.6271,-0.6271,-0.6322,-0.6347,-0.6489,-0.7344,-0.9055,-0.7844,-0.7188,-0.9013,-0.8899,-0.8917,-1.0484,-1.0932,-1.1316,-1.215,-1.2305,-1.2305,-1.2305,-1.2305,-1.2405,0.9859,0.9419,0.623,0.3696,0.1699,0.0562,0.0,0.0,0.0,0.0,0.0,0.0,0.0,0.0,0.0,0.0,0.0,0.0,0.0,0.0,0.0,0.0,0.0,0.0,0.0,0.0,0.0,0.0,0.0,0.0,0.1597,0.4728,0.681,0.7579,0.7136,0.0,0.0,0.0,0.5809,0.3912,0.0,0.0,0.0,0.0,0.0,0.0,0.0,0.0,0.0,0.0,-0.0593,0.0,0.0,0.0,0.0,0.0,0.0,0.0,0.0,0.0,0.0,0.0,0.0,0.0,0.0,-0.0764,-0.1201,-0.143,-0.3978,-0.4395,-0.1154,-0.2922,-0.3359,-0.1239,-0.4349,-0.6157,-0.4648,-0.593,-0.7121,-0.7088,-0.3767,-0.274,-0.5788,-0.6316,-0.6258,-0.6285,-0.6261,-0.6261,-0.6261,-0.6261,-0.6261,-0.6261,-0.6261,-0.6261,-0.6261,-0.6261,-0.6305,-0.6261,-0.6294,-0.7221,-0.8774,-0.8488,-0.8073,-0.9453,-0.9893,-1.026,-1.0783,-1.1459,-1.2003,-1.2305,-1.2305,-1.2305,-1.2305,-1.2305,-1.2385,0.9846,0.0,0.8002,0.6242,0.0,0.1379,0.0,0.0,0.0,0.0,0.0,0.0,0.0,0.0,0.0,0.0,0.0,0.0,0.0,0.0,0.0,0.0,0.0,0.0,0.0,0.0,0.0,0.0,0.0,0.0,0.2,0.5963,0.7362,0.7855,0.753,0.7051,0.6556,0.6009,0.5804,0.4718,0.2645,0.0925,0.0,0.0,0.0,0.0,0.0,0.0,0.0,0.0,0.0,0.0,0.0,0.0,0.0,-0.4257,-0.3765,-0.3536,-0.3484,-0.3489,-0.3027,-0.1852,-0.0705,0.0,0.0,0.0,0.0,0.0,-0.2225,-0.3558,-0.3494,-0.2508,-0.2327,-0.3317,-0.3585,-0.3044,-0.2149,-0.2871,-0.3573,-0.3703,-0.3573,-0.4451,-0.6381,-0.6448,-0.6334,-0.6285,-0.6261,-0.6261,-0.6261,-0.6261,-0.6261,-0.6261,-0.6261,-0.6261,-0.6261,-0.6261,-0.6278,-0.6352,-0.716,-0.8098,-0.9143,-0.8913,-0.9179,-1.0655,-1.1035,-1.0938,-1.1465,-1.2003,-1.2305,-1.2305,-1.2305,-1.2365,-1.2465,-1.2405,-1.2338,0.9605,0.9226,0.9597,0.9659,0.9023,0.3896,0.1058,0.0,0.0,0.0,0.0,0.0,0.0,0.0,0.0,0.0,0.0,0.0,0.0,0.0,0.0,0.0,0.0,0.0,0.0,0.0,0.0,0.0,0.0,0.0908,0.3621,0.7578,0.7975,0.7959,0.7949,0.7556,0.7018,0.6419,0.6032,0.5665,0.5088,0.186,0.0103,0.0,0.0,0.0,0.0,0.0,0.0,0.0,0.0,-0.018,-0.0713,-0.34,-0.4989,-0.5254,-0.639,-0.7152,-0.7088,-0.7098,-0.629,-0.4401,-0.1616,0.0,0.0,0.0,0.0,0.0,0.0,-0.1617,-0.5402,-0.2873,-0.1976,-0.5515,-0.2698,-0.0628,-0.018,-0.0898,-0.1426,-0.0699,-0.4017,-0.6987,-0.7022,-0.662,-0.6284,-0.6298,-0.6261,-0.6261,-0.6261,-0.6261,-0.6274,-0.6302,-0.6288,-0.6268,-0.6291,-0.6271,-0.6261,-0.6345,-0.8022,-0.9503,-0.9891,-0.9797,-1.0515,-1.2235,-1.1803,-1.1571,-1.2077,-1.2305,-1.2305,-1.2305,-1.2311,-1.2392,-1.2714,-1.2722,-1.2621,0.8778,0.7225,0.9023,0.9822,0.9631,0.8753,0.5217,0.0,0.0,0.0,0.0,0.0,0.0,0.0,0.0,0.0,0.0,0.0,0.0,0.0,0.0,0.0,0.0,0.0,0.0,0.0,0.0,0.0,0.0,0.4572,0.7272,0.7882,0.7959,0.7955,0.7775,0.5737,0.508,0.6233,0.7364,0.6785,0.4667,0.2008,0.042,0.0,0.0,0.0,0.0,0.0,0.0,0.0,0.0,-0.0906,-0.2969,-0.3631,-0.4725,-0.658,-0.6939,-0.7139,-0.7088,-0.7088,-0.7058,-0.6813,-0.2664,0.0,0.0,0.0,0.0,0.0,0.0,-0.018,-0.1078,-0.2329,-0.2685,-0.1618,-0.2327,-0.2325,-0.0449,-0.3414,-0.4297,-0.0885,-0.373,-0.6663,-0.6971,-0.6654,-0.6303,-0.625,-0.6274,-0.6268,-0.6274,-0.6261,-0.6312,-0.6311,-0.6257,-0.6318,-0.6304,-0.6254,-0.6285,-0.6261,-0.836,-1.0572,-1.218,-1.1576,-1.1467,-1.2579,-1.2368,-1.219,-1.2311,-1.2305,-1.2318,-1.2325,-1.2331,-1.2405,-1.2788,-1.3251,-1.3628,0.9185,0.8518,0.9379,0.9844,0.9813,0.9834,0.6073,0.0,0.0,0.0,0.0,0.0,0.0,0.0,0.0,0.0,0.0,0.0,0.0,0.0,0.0,0.0,0.0,0.0,0.0,0.0,0.0,0.0,0.0,0.5458,0.7988,0.8012,0.7982,0.8019,0.7913,0.6771,0.5064,0.3044,0.657,0.7761,0.6396,0.2444,0.0211,0.0,0.0,0.0,0.0,0.0,0.0,0.0,-0.2502,-0.4316,-0.5415,-0.5471,-0.5994,-0.6979,-0.7149,-0.7146,-0.7153,-0.7234,-0.7259,-0.7224,-0.5293,-0.278,0.0,0.0,0.0,0.0,0.0,0.0,0.0,-0.3337,-0.5046,-0.401,-0.3783,-0.3126,-0.2415,-0.3673,-0.4814,-0.4136,-0.5505,-0.684,-0.7047,-0.6647,-0.6335,-0.6329,-0.6318,-0.6373,-0.638,-0.6447,-0.6458,-0.6383,-0.6427,-0.6478,-0.6311,-0.6261,-0.6297,-0.6294,-0.8501,-1.0937,-1.3073,-1.2876,-1.2544,-1.2696,-1.2694,-1.2485,-1.2365,-1.2305,-1.2365,-1.2505,-1.2392,-1.2485,-1.2929,-1.3468,-1.3646,0.9846,0.9846,0.9846,0.9852,0.9609,0.8161,0.4694,0.0,0.0,0.0,0.0,0.0,0.0,0.0,0.0,0.0,0.0,0.0,0.0,0.0,0.0,0.0,0.0,0.0,0.0,0.0,0.0,0.0,0.0,0.4275,0.618,0.6382,0.7415,0.8011,0.8033,0.7969,0.538,0.064,0.4327,0.7095,0.7861,0.3978,0.1388,0.0,0.0,0.0,0.0,0.0,0.0,0.0,-0.4643,-0.724,-0.7073,-0.7125,-0.7121,-0.7084,-0.7149,-0.7156,-0.7197,-0.7396,-0.7455,-0.7253,-0.7373,-0.5756,-0.23,-0.0568,0.0,0.0,0.0,0.0,0.0,-0.4416,-0.7262,-0.7044,-0.5559,-0.4495,-0.4383,-0.4378,-0.4977,-0.6766,-0.7099,-0.7101,-0.7051,-0.6592,-0.6312,-0.6374,-0.6458,-0.6519,-0.6539,-0.6654,-0.663,-0.6575,-0.6559,-0.6637,-0.6458,-0.6404,-0.6371,-0.6354,-0.8471,-1.1084,-1.3114,-1.3618,-1.324,-1.3033,-1.2906,-1.2792,-1.2572,-1.2532,-1.2625,-1.2792,-1.2705,-1.2712,-1.3101,-1.3527,-1.3674,0.9825,0.9825,0.9825,0.9836,0.9114,0.3696,0.0863,0.0,0.0,0.0,0.0,0.0,0.0,0.0,0.0,0.0,0.0,0.0,0.0,0.0,0.0,0.0,0.0,0.0,0.0,0.0,0.0,0.0,0.0,0.0,0.0,0.1309,0.5539,0.7814,0.7849,0.7871,0.5279,0.0,0.0544,0.3154,0.7683,0.8014,0.5548,0.0,0.0,0.0,0.0,0.0,0.0,0.0,-0.5087,-0.7627,-0.7188,-0.7305,-0.7312,-0.7071,-0.7143,-0.72,-0.7521,-0.7643,-0.7684,-0.7756,-0.7491,-0.7252,-0.6575,-0.2645,0.0,0.0,0.0,0.0,0.0,-0.4643,-0.7363,-0.7184,-0.6854,-0.6775,-0.6585,-0.6818,-0.6897,-0.7068,-0.7153,-0.7075,-0.7076,-0.6688,-0.647,-0.6641,-0.6647,-0.6681,-0.6692,-0.6807,-0.6861,-0.6795,-0.6705,-0.6791,-0.6922,-0.681,-0.6548,-0.6516,-0.8409,-1.1049,-1.3039,-1.3858,-1.3486,-1.3407,-1.3307,-1.314,-1.3093,-1.312,-1.31,-1.3126,-1.314,-1.3121,-1.327,-1.3609,-1.3915,0.9903,0.9822,0.9836,0.9856,0.9265,0.6806,0.358,0.0,0.0,0.0,0.0,0.0,0.0,0.0,0.0,0.0,0.0,0.0,0.1978,0.4641,0.0,0.0,0.0,0.0,0.0,0.0,0.0,0.0,0.0,0.0,0.0,0.0,0.2311,0.3287,0.3321,0.3242,0.2077,0.0,0.0,0.1115,0.3376,0.6985,0.6024,0.0,0.0,0.0,0.0,0.0,-0.1443,-0.4365,-0.5367,-0.6238,-0.7387,-0.748,-0.7448,-0.7288,-0.719,-0.7158,-0.7297,-0.7509,-0.7657,-0.7678,-0.7674,-0.766,-0.7619,-0.563,-0.4532,-0.4307,-0.1913,0.0,0.0,-0.3445,-0.6075,-0.7079,-0.7436,-0.7369,-0.7316,-0.7292,-0.7198,-0.7098,-0.7111,-0.7092,-0.7042,-0.6936,-0.686,-0.6895,-0.6857,-0.6834,-0.6841,-0.6959,-0.7017,-0.698,-0.6959,-0.7008,-0.7102,-0.6878,-0.6583,-0.675,-0.8175,-1.0625,-1.3246,-1.3831,-1.3641,-1.3654,-1.3547,-1.3394,-1.3206,-1.3233,-1.324,-1.336,-1.3467,-1.3514,-1.3722,-1.3748,-1.3868,0.9924,0.971,0.8854,0.788,0.7276,0.9072,0.7067,0.271,0.0863,0.0,0.0,0.0,0.0,0.0,0.0,0.0,0.0,0.0,0.2314,0.5957,0.3485,0.0,0.0,0.0,0.0,0.0,0.0,0.0,0.0,0.0,0.0,0.0,0.0,0.0,0.0,0.0,0.0,0.0,0.0,0.0,0.0,0.4233,0.4403,0.0,0.0,0.0,0.0,0.0,-0.1677,-0.5509,-0.5253,-0.594,-0.7657,-0.7729,-0.759,-0.7352,-0.7238,-0.7285,-0.725,-0.7462,-0.7675,-0.7719,-0.7821,-0.7879,-0.7774,-0.7787,-0.7831,-0.7601,-0.4415,0.0,-0.0391,-0.3108,-0.5787,-0.7495,-0.7668,-0.7597,-0.7458,-0.7434,-0.7339,-0.7139,-0.7077,-0.7121,-0.7078,-0.7066,-0.7086,-0.7048,-0.7011,-0.699,-0.6993,-0.7071,-0.7132,-0.7139,-0.7136,-0.7075,-0.7128,-0.6993,-0.6722,-0.7133,-0.8439,-1.1421,-1.3467,-1.3559,-1.3768,-1.3848,-1.3788,-1.3734,-1.3621,-1.3534,-1.3474,-1.3674,-1.3761,-1.3754,-1.3987,-1.3877,-1.3861,0.9825,0.9332,0.651,0.3683,0.0982,0.6936,0.9585,0.8304,0.2716,0.0,0.0,0.0,0.0,0.0,0.0,0.0,0.0,0.0,0.0,0.0,0.5607,0.5276,0.0,0.0,0.0,0.0,0.0,0.0,0.0,0.0,0.0,0.0,0.0,0.0,0.0,0.0,0.0,0.0,0.0,0.0,0.0,0.0,0.0,0.0,0.0,0.0,0.0,0.0,0.0,0.0,-0.4961,-0.7652,-0.8014,-0.7831,-0.7627,-0.7227,-0.7383,-0.7537,-0.7568,-0.7591,-0.7741,-0.797,-0.7991,-0.8021,-0.7912,-0.7991,-0.7997,-0.7939,-0.7422,-0.5196,-0.1796,-0.4783,-0.7451,-0.7838,-0.7911,-0.7736,-0.7604,-0.7587,-0.7396,-0.7198,-0.7172,-0.7178,-0.7161,-0.707,-0.7135,-0.7129,-0.7115,-0.7119,-0.7112,-0.7129,-0.7139,-0.7139,-0.7132,-0.7095,-0.7135,-0.7034,-0.685,-0.8028,-1.0658,-1.2858,-1.3252,-1.3631,-1.3878,-1.4041,-1.4008,-1.4001,-1.4035,-1.4021,-1.3968,-1.4008,-1.3995,-1.4092,-1.4052,-1.4119,-1.4068,0.9951,0.9652,0.8535,0.4928,0.0492,0.2591,0.5816,0.9063,0.284,0.0,0.0,0.0,0.0,0.0,0.0,0.0,0.0,0.0,0.0,0.0,0.2242,0.4042,0.539,0.0,0.0,0.0,0.0,0.0,0.0,0.0,0.0,0.0,0.0,0.0,0.0,0.0,0.0,0.0,0.0,0.0,0.0,0.0,0.0,0.0,0.0,0.0,0.0,0.0,0.0,0.0,-0.3539,-0.6246,-0.772,-0.7882,-0.7738,-0.7657,-0.7607,-0.7662,-0.7687,-0.7814,-0.7834,-0.7889,-0.7987,-0.8038,-0.8038,-0.8038,-0.8038,-0.8041,-0.7945,-0.6825,-0.6121,-0.6942,-0.8011,-0.799,-0.7913,-0.7896,-0.778,-0.7736,-0.7733,-0.7719,-0.7662,-0.7729,-0.7533,-0.7373,-0.7125,-0.7084,-0.7139,-0.7139,-0.7139,-0.7139,-0.7139,-0.7139,-0.7139,-0.7115,-0.7128,-0.709,-0.7754,-1.06,-1.3016,-1.3444,-1.3878,-1.3692,-1.3841,-1.4035,-1.4082,-1.4082,-1.4068,-1.4068,-1.4088,-1.4088,-1.4088,-1.4088,-1.4082,-1.4088,-1.4088,0.898,0.9698,0.9818,0.6056,0.0,0.0,0.2468,0.606,0.0,0.0,0.0,0.0,0.0,0.0,0.0,0.0,0.0,0.0,0.0,0.0,0.0,0.2148,0.4757,0.1931,0.0,0.0,0.0,0.0,0.0,0.0,0.0,0.0,0.0,0.0,0.0,0.0,0.0,0.0,0.0,0.0,0.0,0.0,0.0,0.0,0.0,0.0,0.0,0.0,-0.11,-0.2686,-0.3683,-0.5257,-0.7669,-0.795,-0.7929,-0.8001,-0.7858,-0.778,-0.7768,-0.7983,-0.7986,-0.7889,-0.7977,-0.8038,-0.8038,-0.8038,-0.8038,-0.8038,-0.8038,-0.8038,-0.8041,-0.7952,-0.8021,-0.8038,-0.7987,-0.7997,-0.7902,-0.7885,-0.7885,-0.7976,-0.7918,-0.7981,-0.7927,-0.7475,-0.7194,-0.7141,-0.7088,-0.7143,-0.7139,-0.7139,-0.7139,-0.7139,-0.7139,-0.7119,-0.7425,-0.7861,-0.9383,-1.2218,-1.3354,-1.3905,-1.4056,-1.3837,-1.3814,-1.4008,-1.4088,-1.4088,-1.4088,-1.4088,-1.4088,-1.4088,-1.4088,-1.4088,-1.4088,-1.4088,-1.4102,0.6912,0.906,0.9691,0.5686,0.0,0.0,0.0,0.0,0.0,0.0,0.0,0.0,0.0,0.0,0.0,0.0,0.0,0.0,0.0,0.0,0.0,0.0,0.0,0.0,0.0,0.0,0.0,0.0,0.0,0.0,0.0,0.0,0.0,0.0,0.0,0.0,0.0,0.0,0.0,0.0,0.0,0.0,0.0,0.0,0.0,0.0,0.0,0.0,-0.316,-0.7259,-0.5694,-0.5424,-0.7601,-0.8031,-0.8031,-0.8035,-0.8024,-0.8028,-0.8024,-0.8021,-0.8014,-0.8014,-0.8035,-0.8237,-0.8233,-0.8127,-0.8124,-0.8428,-0.8428,-0.823,-0.8127,-0.8329,-0.8233,-0.8038,-0.8035,-0.8028,-0.8024,-0.8031,-0.8035,-0.8021,-0.7994,-0.7963,-0.7921,-0.7577,-0.7246,-0.709,-0.7155,-0.7071,-0.7153,-0.716,-0.7156,-0.7156,-0.718,-0.7187,-0.7929,-0.9013,-1.1235,-1.3284,-1.3711,-1.4079,-1.4129,-1.3961,-1.3948,-1.4088,-1.4088,-1.4088,-1.4088,-1.4088,-1.4088,-1.4088,-1.4088,-1.4088,-1.4088,-1.4095,-1.4128,0.6304,0.321,0.3087,0.1975,0.0,0.0,0.0,0.0,0.0,0.0,0.0,0.0,0.0,0.0,0.0,0.0,0.0,0.0,0.0,0.0,0.0,0.0,0.0,0.0,0.0,0.0,0.0,0.0,0.0,0.0,0.0,0.0,0.0,0.0,0.0,0.0,0.0,0.0,0.0,0.0,0.0,0.0,0.0,0.0,0.0,0.0,0.0,-0.3957,-0.6927,-0.8838,-0.7843,-0.7557,-0.8044,-0.8099,-0.8041,-0.8038,-0.8038,-0.8038,-0.8038,-0.8038,-0.8038,-0.8134,-0.8825,-0.9316,-0.9205,-0.8561,-0.8947,-1.0271,-1.0676,-1.0062,-0.8728,-0.9747,-0.9797,-0.8237,-0.8038,-0.8038,-0.8038,-0.8038,-0.8038,-0.8038,-0.8038,-0.7974,-0.7955,-0.7753,-0.7547,-0.7155,-0.7148,-0.7091,-0.7098,-0.7251,-0.7295,-0.7299,-0.7299,-0.7309,-0.7753,-0.8613,-1.046,-1.2964,-1.4051,-1.428,-1.4253,-1.4088,-1.4088,-1.4088,-1.4088,-1.4088,-1.4088,-1.4088,-1.4088,-1.4088,-1.4088,-1.4088,-1.4088,-1.4102,-1.4128,0.3829,0.0,0.0,0.0,0.0,0.0,0.0,0.0,0.0,0.0,0.0,0.0,0.0,0.0,0.0,0.0,0.0,0.0,0.0,0.0,0.0,0.0,0.0,0.0,0.0,0.0,0.0,0.0,0.0,0.0,0.0,0.0,0.0,0.0,0.0,0.0,0.0,0.0,0.0,0.0,0.0,0.0,0.0,0.0,0.0,0.0,0.0,-0.5684,-0.8931,-0.8886,-0.8716,-0.8498,-0.8367,-0.8258,-0.8079,-0.8032,-0.8016,-0.8002,-0.7952,-0.8038,-0.8038,-0.8233,-0.9213,-0.9998,-1.0002,-0.9665,-1.1002,-1.1648,-1.2247,-1.1727,-1.0214,-1.0807,-1.0979,-0.9739,-0.9031,-0.8531,-0.8233,-0.8038,-0.8038,-0.8038,-0.8038,-0.7987,-0.8028,-0.8025,-0.7849,-0.7473,-0.7297,-0.725,-0.7262,-0.74,-0.7434,-0.7455,-0.7455,-0.7475,-0.7413,-0.8375,-0.966,-1.2071,-1.4381,-1.4509,-1.4507,-1.4247,-1.4088,-1.4088,-1.4088,-1.4088,-1.4088,-1.4088,-1.4088,-1.4088,-1.4088,-1.4088,-1.4088,-1.4088,-1.4135,0.0,0.0,0.0,0.0,0.0,0.0,0.0,0.0,0.0,0.0,0.0,0.0,0.0,0.0,0.0,0.0,0.0,0.0,0.0,0.0,0.0,0.0,0.0,0.0,0.0,0.0,0.0,0.0,0.0,0.0,0.0,0.0,0.0,0.0,0.0,0.0,0.0,0.0,0.0,0.0,0.0,0.0,0.0,0.0,0.0,0.0,0.0,-0.4816,-0.808,-0.8755,-0.8789,-0.8679,-0.853,-0.8489,-0.8391,-0.8074,-0.8067,-0.7991,-0.7995,-0.7975,-0.7959,-0.8141,-0.9213,-1.0109,-1.0439,-1.2167,-1.3193,-1.2824,-1.338,-1.3413,-1.2381,-1.2328,-1.217,-1.1742,-1.0224,-0.9118,-0.8134,-0.8038,-0.8038,-0.8038,-0.8038,-0.8035,-0.8018,-0.8014,-0.7942,-0.7866,-0.7668,-0.7506,-0.7466,-0.756,-0.76,-0.7611,-0.7607,-0.7658,-0.7597,-0.7688,-0.8918,-1.0635,-1.3446,-1.4716,-1.4596,-1.4302,-1.4188,-1.4175,-1.4168,-1.4142,-1.4122,-1.4142,-1.4115,-1.4088,-1.4088,-1.4088,-1.4155,-1.4314,-1.4396,0.0,0.0,0.0,0.0,0.0,0.0,0.0,0.0,0.0,0.0,0.0,0.0,0.0,0.0,0.0,0.0,0.0,0.0,0.0,0.0,0.0,0.0,0.0,0.0,0.0,0.0,0.0,0.0,0.0,0.0,0.0,0.0,0.0,0.0,0.0,0.0,0.0,0.0,0.0,0.0,0.0,0.0,0.0,0.0,0.0,0.0,0.0,-0.1454,-0.4621,-0.8632,-0.8903,-0.8828,-0.8679,-0.857,-0.8499,-0.8452,-0.8209,-0.8043,-0.8139,-0.8103,-0.8052,-0.8151,-0.9248,-1.0452,-1.1785,-1.3899,-1.5004,-1.5095,-1.5347,-1.507,-1.4737,-1.4567,-1.3811,-1.197,-1.0006,-0.8528,-0.8137,-0.8038,-0.8038,-0.8038,-0.8038,-0.8038,-0.8028,-0.8001,-0.8031,-0.7945,-0.7883,-0.7729,-0.7695,-0.7716,-0.7756,-0.7756,-0.777,-0.7834,-0.7748,-0.7644,-0.8237,-0.9435,-1.2015,-1.5057,-1.4783,-1.4396,-1.4342,-1.4416,-1.4342,-1.4329,-1.4322,-1.4282,-1.4208,-1.4215,-1.4097,-1.411,-1.4576,-1.4771,-1.483,0.0,0.0,0.0,0.0,0.0,0.0,0.0,0.0,0.0,0.0,0.0,0.0,0.0,0.0,0.0,0.0,0.0,0.0,0.0,0.0,0.0,0.0,0.0,0.0,0.0,0.0,0.0,0.0,0.0,0.0,0.0,0.0,0.0,0.0,0.0,0.0,0.0,0.0,0.0,0.0,0.0,0.0,0.0,0.0,0.0,0.0,0.0,0.0,0.0,-0.6345,-0.8308,-0.8994,-0.8994,-0.8849,-0.874,-0.8686,-0.8508,-0.8404,-0.8391,-0.825,-0.8213,-0.8449,-0.9427,-1.0479,-1.1697,-1.3718,-1.5181,-1.5201,-1.5757,-1.5914,-1.5625,-1.4854,-1.3499,-1.195,-0.9604,-0.8038,-0.8038,-0.8038,-0.8038,-0.8038,-0.8038,-0.8038,-0.8038,-0.8038,-0.7997,-0.8041,-0.8021,-0.7872,-0.7831,-0.7872,-0.7896,-0.7885,-0.7889,-0.7936,-0.7957,-0.7778,-0.8475,-0.9594,-1.2197,-1.5114,-1.5077,-1.4668,-1.4661,-1.475,-1.4628,-1.4588,-1.4609,-1.4563,-1.4482,-1.4414,-1.4265,-1.4405,-1.4878,-1.5102,-1.5261,0.0,0.0,0.0,0.0,0.0,0.0,0.0,0.0,0.0,0.0,0.0,0.0,0.0,0.0,0.0,0.0,0.0,0.0,0.0,0.0,0.0,0.0,0.0,0.0,0.0,0.0,0.0,0.0,0.0,0.0,0.0,0.0,0.0,0.0,0.0,0.0,0.0,0.0,0.0,0.0,0.0,0.0,0.0,0.0,0.0,0.0,0.0,0.0,-0.1613,-0.4821,-0.7721,-0.9169,-0.9354,-0.9225,-0.91,-0.896,-0.8832,-0.8703,-0.8543,-0.8506,-0.8489,-0.8661,-0.948,-1.0356,-1.0889,-1.2314,-1.3404,-1.4572,-1.5563,-1.5868,-1.5268,-1.3409,-1.215,-1.1272,-0.9312,-0.8233,-0.8038,-0.8038,-0.8038,-0.8038,-0.8038,-0.8038,-0.8038,-0.8038,-0.8035,-0.7997,-0.7991,-0.7967,-0.7943,-0.7963,-0.7984,-0.7994,-0.8004,-0.8021,-0.8024,-0.8007,-0.8924,-1.0132,-1.3237,-1.5577,-1.5357,-1.5157,-1.5137,-1.5117,-1.5044,-1.5003,-1.4983,-1.4867,-1.4821,-1.4615,-1.4493,-1.495,-1.5438,-1.5484,-1.5602,0.0,0.0,0.0,0.0,0.0,0.0,0.0,0.0,0.0,0.0,0.0,0.0,0.0,0.0,0.0,0.0,0.0,0.0,0.0,0.0,0.0,0.0,0.0,0.0,0.0,0.0,0.0,0.0,0.0,0.0,0.0,0.0,0.0,0.0,0.0,0.0,0.0,0.0,0.0,0.0,0.0,0.0,0.0,0.0,0.0,0.0,0.0,0.0,0.0,-0.4782,-0.7739,-0.9557,-0.9435,-0.9364,-0.9269,-0.915,-0.8957,-0.8816,-0.8726,-0.8769,-0.8721,-0.8632,-0.8839,-0.9467,-1.0644,-1.0095,-1.1663,-1.3778,-1.5503,-1.5395,-1.4413,-1.2894,-1.1511,-1.0408,-0.9118,-0.8038,-0.8038,-0.8038,-0.8038,-0.8038,-0.8038,-0.8038,-0.8038,-0.8038,-0.8038,-0.8038,-0.8038,-0.8038,-0.8038,-0.8038,-0.8038,-0.8038,-0.8038,-0.8038,-0.823,-0.8718,-1.036,-1.139,-1.4159,-1.5759,-1.5531,-1.5451,-1.5398,-1.5463,-1.5528,-1.5508,-1.5304,-1.5248,-1.5077,-1.4896,-1.4845,-1.5237,-1.5555,-1.569,-1.5844,0.3846,0.2416,0.0757,0.0,0.0,0.0,0.0,0.0,0.0,0.0,0.0,0.0,0.0,0.0,0.0,0.0,0.0,0.0,0.0,0.0,0.0,0.0,0.0,0.3343,0.5062,0.4934,0.0,0.3628,0.1608,0.3219,0.0,0.4435,0.1879,0.0,0.0,0.0,0.0,0.0,0.0,0.0,0.0,0.0,0.0,0.0,0.0,0.0,0.0,0.0,0.0,-0.482,-0.7958,-0.973,-0.9602,-0.9523,-0.9445,-0.9378,-0.9087,-0.899,-0.8947,-0.8852,-0.8893,-0.8703,-0.8696,-0.9589,-1.0154,-0.9574,-1.089,-1.3733,-1.4774,-1.4315,-1.3675,-1.1189,-1.0091,-1.013,-0.8924,-0.8038,-0.8038,-0.8038,-0.8038,-0.8038,-0.8038,-0.8038,-0.8038,-0.8038,-0.8038,-0.8038,-0.8038,-0.8038,-0.8038,-0.8038,-0.8038,-0.8038,-0.8038,-0.8134,-0.8329,-0.9604,-1.196,-1.321,-1.4949,-1.5785,-1.5718,-1.5658,-1.5611,-1.5678,-1.5651,-1.5705,-1.5571,-1.5503,-1.5429,-1.5438,-1.5425,-1.5578,-1.5618,-1.5765,-1.5806,0.8386,0.5931,0.2828,0.0,0.0,0.0,0.0,0.0,0.0,0.0,0.0,0.0,0.0,0.0,0.0,0.0,0.0,0.0,0.0,0.0,0.0,0.0,0.0,0.6057,0.9719,1.0699,0.9875,0.6859,0.5091,0.7116,0.9163,0.9043,0.3355,0.0,0.0,0.0,0.0,0.0,0.0,0.0,0.0,0.0,0.0,0.0,0.0,0.0,0.0,0.0,-0.2542,-0.5567,-0.8401,-0.9496,-0.9808,-0.9724,-0.9622,-0.9602,-0.9252,-0.9128,-0.9041,-0.9052,-0.8853,-0.886,-0.9258,-0.9794,-1.0522,-1.0662,-1.1875,-1.3177,-1.4348,-1.3307,-1.2783,-1.0331,-0.9234,-0.9458,-0.8733,-0.8137,-0.8038,-0.8038,-0.8038,-0.8038,-0.8038,-0.8038,-0.8038,-0.8038,-0.8038,-0.8038,-0.8038,-0.8038,-0.8038,-0.8038,-0.8038,-0.8038,-0.8038,-0.8014,-0.8202,-0.9797,-1.2252,-1.4027,-1.5599,-1.5763,-1.5737,-1.5778,-1.5725,-1.5765,-1.5772,-1.5785,-1.5778,-1.5678,-1.5678,-1.5818,-1.5805,-1.5732,-1.5758,-1.5818,-1.5825,1.0163,0.9459,0.9086,0.5569,0.0,0.0,0.0,0.0,0.0,0.0,0.0,0.0,0.0,0.0,0.0,0.0,0.0,0.0,0.0,0.0,0.0,0.0,0.0,0.6875,1.028,1.0682,1.0675,0.9555,0.8856,1.0216,1.0648,0.916,0.3483,0.0,0.0,0.0,0.0,0.0,0.0,0.0,0.0,0.0,0.0,0.0,-0.4714,-0.7624,-0.7512,-0.5829,-0.5736,-0.8792,-0.9558,-0.9744,-0.9822,-0.9788,-0.9724,-0.9635,-0.9547,-0.9439,-0.9225,-0.9087,-0.8901,-0.9195,-0.978,-1.0578,-1.121,-1.1946,-1.2984,-1.3901,-1.3963,-1.266,-1.0918,-0.9075,-0.8278,-0.8396,-0.834,-0.8038,-0.8038,-0.8038,-0.8038,-0.8038,-0.8038,-0.8038,-0.8038,-0.8038,-0.8038,-0.8038,-0.8038,-0.8038,-0.8038,-0.8038,-0.8038,-0.8038,-0.8038,-0.8004,-0.8072,-1.0062,-1.215,-1.3937,-1.521,-1.5573,-1.5648,-1.5737,-1.5825,-1.5825,-1.5825,-1.5812,-1.5818,-1.5825,-1.5825,-1.5825,-1.5825,-1.5825,-1.5825,-1.5825,-1.5825,1.0595,1.0501,1.0507,0.8668,0.5829,0.5579,0.4402,0.2951,0.2819,0.2819,0.2148,0.0,0.0,0.0,0.0,0.0,0.0,0.0,0.0,0.0,0.0,0.2423,0.4307,0.7684,0.9024,1.0232,1.0765,1.0758,1.0738,1.0601,1.0768,0.9018,0.0,0.0,0.0,0.0,0.0,0.0,0.0,0.0,0.0,0.0,0.0,0.0,-0.6464,-1.0345,-1.0346,-0.9329,-0.8503,-0.9741,-1.0015,-0.9927,-0.9856,-0.9812,-0.9791,-0.972,-0.9775,-0.971,-0.949,-0.9357,-0.9245,-0.9147,-0.985,-1.0867,-1.191,-1.2876,-1.3547,-1.3851,-1.3809,-1.2288,-0.9882,-0.8626,-0.82,-0.8079,-0.8096,-0.8048,-0.8038,-0.8038,-0.8038,-0.8038,-0.8038,-0.8038,-0.8038,-0.8038,-0.8038,-0.8038,-0.8038,-0.8038,-0.8038,-0.8038,-0.8038,-0.8038,-0.8038,-0.8014,-0.7977,-0.9253,-1.1361,-1.3249,-1.4208,-1.4573,-1.5261,-1.5248,-1.554,-1.5825,-1.5825,-1.5825,-1.5825,-1.5825,-1.5825,-1.5825,-1.5825,-1.5825,-1.5825,-1.5825,-1.5825,1.0501,1.0711,1.0484,1.0511,1.0615,1.0648,0.9018,0.6849,0.6445,0.6445,0.604,0.0,0.0,0.0,0.0,0.0,0.0,0.0,0.0,0.0,0.0,0.5524,0.7273,0.8344,0.8187,1.0485,1.0738,1.0738,1.0775,1.0741,1.0768,0.877,0.0,0.0,0.0,0.0,0.0,0.0,0.0,0.0,0.0,0.0,0.0,0.0,-0.6868,-1.0765,-1.0646,-1.0293,-1.0035,-1.0239,-1.0107,-1.0012,-0.9893,-0.9836,-0.9819,-0.9802,-0.9834,-0.9789,-0.9737,-0.9756,-0.9624,-0.9303,-0.9529,-1.0858,-1.2083,-1.2821,-1.3034,-1.2716,-1.3059,-1.2059,-0.954,-0.8485,-0.8229,-0.8176,-0.8157,-0.8075,-0.8048,-0.8038,-0.8038,-0.8038,-0.8038,-0.8038,-0.8038,-0.8038,-0.8038,-0.8038,-0.8038,-0.8038,-0.8038,-0.8038,-0.8038,-0.8038,-0.8035,-0.8021,-0.7994,-0.7967,-1.0066,-1.1991,-1.2425,-1.2566,-1.3663,-1.4573,-1.4956,-1.5242,-1.5825,-1.5825,-1.5825,-1.5825,-1.5825,-1.5825,-1.5825,-1.5825,-1.5825,-1.5825,-1.5825,1.0707,1.0717,1.0704,1.0721,1.0751,1.0761,1.0505,0.998,0.9841,1.012,0.9567,0.9297,0.7257,0.4696,0.1475,0.0,0.0,0.0,0.3228,0.6738,0.7962,0.7543,0.7123,0.927,0.9534,1.0748,1.0731,1.0668,1.0712,1.0782,1.0689,0.9264,0.0,0.0,0.0,0.0,0.0,0.0,0.0,0.0,0.0,0.0,0.0,0.0,-0.6449,-1.0648,-1.07,-1.0605,-1.0477,-1.0422,-1.0185,-1.0063,-1.0002,-0.9886,-0.9836,-0.9819,-0.9802,-0.9791,-0.9758,-0.9779,-0.9683,-0.969,-1.0219,-1.1068,-1.1603,-1.237,-1.2082,-0.9625,-1.1463,-1.166,-0.9425,-0.8807,-0.8537,-0.8294,-0.8275,-0.8167,-0.8099,-0.8099,-0.8092,-0.8038,-0.8038,-0.8038,-0.8038,-0.8038,-0.8038,-0.8038,-0.8038,-0.8038,-0.8038,-0.8038,-0.8038,-0.8038,-0.8038,-0.8024,-0.8018,-0.7991,-0.8788,-1.0815,-1.0756,-1.0789,-1.1788,-1.2989,-1.398,-1.4364,-1.5045,-1.573,-1.5825,-1.5825,-1.5825,-1.5825,-1.5825,-1.5825,-1.5825,-1.5825,-1.5825,1.0721,1.0721,1.0721,1.0724,1.0734,1.0734,1.0744,1.0755,1.0758,1.0758,1.0761,1.0638,0.9692,0.7663,0.4695,0.0,0.3087,0.3088,0.4431,0.7945,0.9582,0.9844,0.9273,0.994,1.0618,1.0734,1.0744,1.0668,1.0735,1.0907,1.0921,0.9591,0.0,0.0,0.0,0.0,0.0,0.0,0.0,0.0,0.0,0.0,0.0,0.0,0.0,-1.0095,-1.0727,-1.0677,-1.0571,-1.0507,-1.0337,-1.0212,-1.009,-0.9981,-0.992,-0.9819,-0.9819,-0.9815,-0.9808,-0.9758,-0.9693,-0.9585,-0.9972,-1.0004,-1.0293,-1.105,-1.1315,-0.923,-1.0033,-1.0006,-0.9156,-0.8872,-0.8773,-0.8543,-0.8425,-0.8306,-0.8214,-0.8184,-0.8163,-0.8099,-0.7952,-0.7982,-0.7992,-0.7972,-0.7962,-0.8038,-0.8038,-0.8038,-0.8038,-0.8038,-0.8038,-0.8038,-0.8038,-0.8035,-0.8031,-0.8018,-0.8014,-0.9221,-0.9178,-0.9335,-1.0032,-1.1021,-1.2404,-1.3584,-1.4262,-1.4943,-1.5534,-1.5825,-1.5825,-1.5825,-1.5825,-1.5825,-1.5825,-1.5825,-1.5825,1.0721,1.0721,1.0721,1.0721,1.0721,1.0721,1.0721,1.0721,1.0721,1.0721,1.0724,1.0738,1.0765,1.0241,0.7925,0.6708,0.6715,0.6715,0.6711,0.7791,0.9149,1.0502,1.0345,1.0741,1.0734,1.0721,1.0721,1.0699,1.0823,1.0866,1.1009,1.0464,0.3546,0.0,0.0,0.0,0.0,0.0,0.0,0.0,0.0,0.0,0.0,0.0,-0.6174,-1.0648,-1.0738,-1.0714,-1.0643,-1.0582,-1.049,-1.0344,-1.0164,-1.0063,-0.9958,-0.9859,-0.9819,-0.9819,-0.9819,-0.9795,-0.9758,-0.9646,-0.9479,-0.9509,-0.9342,-0.9994,-1.0394,-0.9106,-0.9058,-0.9168,-0.8916,-0.8941,-0.8865,-0.8786,-0.8701,-0.8469,-0.8364,-0.8333,-0.8206,-0.8067,-0.8031,-0.8001,-0.7991,-0.8036,-0.7992,-0.7952,-0.8038,-0.8038,-0.8041,-0.8045,-0.8048,-0.8052,-0.8055,-0.8055,-0.7949,-0.8045,-0.8045,-0.8041,-0.8007,-0.8181,-0.8981,-1.0164,-1.1546,-1.2619,-1.3488,-1.4555,-1.5534,-1.5629,-1.5825,-1.5825,-1.5825,-1.5825,-1.5825,-1.5825,-1.5825,1.0721,1.0721,1.0721,1.0721,1.0721,1.0721,1.0721,1.0721,1.0721,1.0721,1.0721,1.0724,1.0738,1.0482,1.0216,0.9816,1.012,1.0261,0.9828,0.9946,1.0618,1.0744,1.0731,1.0724,1.0724,1.0724,1.0727,1.0739,1.0783,1.0793,1.1067,1.0334,0.3697,0.0,0.0,0.0,0.0,0.0,0.0,0.0,0.0,0.0,0.0,0.0,-0.6313,-1.0655,-1.0618,-1.0731,-1.0711,-1.067,-1.0582,-1.0456,-1.0287,-1.0154,-1.0022,-0.99,-0.9829,-0.9825,-0.9819,-0.9819,-0.9812,-0.9724,-0.9571,-0.9367,-0.9114,-0.9052,-0.9143,-0.9332,-0.9052,-0.8893,-0.8863,-0.892,-0.8876,-0.8815,-0.874,-0.8625,-0.853,-0.8482,-0.8354,-0.8131,-0.8092,-0.8143,-0.8227,-0.8275,-0.8076,-0.8029,-0.8041,-0.8038,-0.8055,-0.8062,-0.8069,-0.8075,-0.8079,-0.8079,-0.7972,-0.7989,-0.8042,-0.8026,-0.7985,-0.7952,-0.823,-0.9509,-1.0583,-1.194,-1.3006,-1.4268,-1.5337,-1.5629,-1.5825,-1.5825,-1.5825,-1.5825,-1.5825,-1.5825,-1.5825,1.0721,1.0721,1.0721,1.0721,1.0721,1.0721,1.0721,1.0721,1.0721,1.0721,1.0721,1.0721,1.0724,1.0731,1.0734,1.0741,1.0755,1.0751,1.0744,1.0738,1.0731,1.0727,1.0721,1.0724,1.0727,1.0738,1.0748,1.0648,1.0776,1.0646,1.108,0.91,0.3722,0.0,0.0,0.0,0.0,0.0,0.0,0.0,0.0,0.0,0.0,0.0,0.0,-0.6702,-0.9664,-1.0598,-1.0724,-1.0704,-1.0653,-1.0541,-1.0409,-1.0263,-1.0124,-0.9971,-0.99,-0.9849,-0.9829,-0.9819,-0.9785,-0.9686,-0.9574,-0.9339,-0.9099,-0.9084,-0.9164,-0.9181,-0.9071,-0.8937,-0.8967,-0.8897,-0.8927,-0.8866,-0.8889,-0.8777,-0.8693,-0.8638,-0.8591,-0.8358,-0.8299,-0.8448,-0.8543,-0.8636,-0.8316,-0.8109,-0.8016,-0.8052,-0.8096,-0.8133,-0.816,-0.8194,-0.8208,-0.8139,-0.8143,-0.8051,-0.8057,-0.8008,-0.8062,-0.8036,-0.8106,-0.8141,-0.9316,-1.0872,-1.2549,-1.3727,-1.4802,-1.5547,-1.5825,-1.5825,-1.5825,-1.5825,-1.5825,-1.5825,-1.5825,1.0721,1.0721,1.0721,1.0721,1.0721,1.0721,1.0721,1.0721,1.0721,1.0721,1.0721,1.0721,1.0721,1.0721,1.0721,1.0721,1.0724,1.0724,1.0721,1.0721,1.0721,1.0721,1.0721,1.0724,1.0731,1.0755,1.0678,1.0722,1.0779,1.0649,1.1007,0.9209,0.0,0.0,0.0,0.0,0.0,0.0,0.0,0.0,0.0,0.0,0.0,0.0,0.0,-0.4286,-0.8859,-1.0748,-1.0731,-1.0724,-1.0694,-1.0633,-1.0514,-1.0392,-1.0273,-1.0137,-0.9898,-0.9818,-0.9893,-0.9829,-0.9781,-0.9717,-0.9632,-0.9396,-0.9305,-0.9262,-0.931,-0.9456,-0.9242,-0.8907,-0.9026,-0.9273,-0.9054,-0.9096,-0.9045,-0.8944,-0.8845,-0.8774,-0.873,-0.8582,-0.8652,-0.8648,-0.8728,-0.8718,-0.8584,-0.8277,-0.8309,-0.8255,-0.8262,-0.8296,-0.8319,-0.835,-0.8381,-0.8317,-0.8357,-0.832,-0.827,-0.8392,-0.835,-0.8235,-0.8194,-0.814,-0.9045,-1.132,-1.2798,-1.3459,-1.4479,-1.5652,-1.5885,-1.5825,-1.5825,-1.5832,-1.5825,-1.5825,-1.5825,1.0721,1.0721,1.0721,1.0721,1.0721,1.0721,1.0721,1.0721,1.0721,1.0721,1.0721,1.0721,1.0721,1.0721,1.0721,1.0721,1.0721,1.0721,1.0721,1.0721,1.0721,1.0721,1.0721,1.0724,1.0741,1.0655,1.0601,1.0548,0.9615,0.8815,0.9599,0.8487,0.0,0.0,0.0,0.0,0.0,0.0,0.0,0.0,0.0,0.0,0.0,0.0,0.0,0.0,-0.6846,-1.0352,-1.0605,-1.0731,-1.0721,-1.0653,-1.0541,-1.049,-1.0395,-1.028,-0.9992,-0.9913,-0.9925,-0.9903,-0.9819,-0.9781,-0.97,-0.9635,-0.9676,-0.9473,-0.9332,-0.961,-0.9369,-0.9312,-0.9521,-0.9736,-0.9306,-0.9249,-0.9201,-0.9127,-0.9028,-0.8984,-0.8954,-0.8803,-0.8806,-0.8913,-0.8862,-0.8907,-0.8766,-0.856,-0.8499,-0.8459,-0.8428,-0.8455,-0.8476,-0.8411,-0.855,-0.8577,-0.8598,-0.8543,-0.8587,-0.8702,-0.8663,-0.8467,-0.846,-0.8433,-0.9784,-1.1991,-1.2824,-1.338,-1.4667,-1.6059,-1.5976,-1.5886,-1.5777,-1.5832,-1.5832,-1.5825,-1.5825,1.0721,1.0721,1.0721,1.0721,1.0721,1.0721,1.0721,1.0721,1.0721,1.0721,1.0721,1.0721,1.0721,1.0721,1.0721,1.0721,1.0721,1.0721,1.0721,1.0721,1.0721,1.0721,1.0724,1.0738,1.0625,1.0692,1.0393,0.7705,0.3293,0.0,0.0,0.256,0.0,0.0,0.0,0.0,0.0,0.0,0.0,0.0,0.0,0.0,0.0,0.0,0.0,0.0,0.0,-0.7646,-0.98,-1.0601,-1.0731,-1.0687,-1.0612,-1.0575,-1.0477,-1.0395,-1.0223,-1.0076,-0.9932,-0.9791,-0.9825,-0.9802,-0.9781,-0.972,-0.9673,-0.9707,-0.9659,-0.9642,-0.9523,-0.9622,-0.9803,-0.9581,-0.9386,-0.9586,-0.9531,-0.9327,-0.9249,-0.9249,-0.9228,-0.8957,-0.894,-0.8933,-0.8856,-0.894,-0.8828,-0.8723,-0.8655,-0.8557,-0.8506,-0.8584,-0.8635,-0.8572,-0.8608,-0.8737,-0.8845,-0.9233,-0.8941,-0.8741,-0.873,-0.8652,-0.8533,-0.9133,-1.0356,-1.2442,-1.2874,-1.3185,-1.5016,-1.6353,-1.6104,-1.6058,-1.5965,-1.5956,-1.5899,-1.5896,-1.5832,1.0721,1.0721,1.0721,1.0721,1.0721,1.0721,1.0721,1.0721,1.0721,1.0721,1.0721,1.0721,1.0721,1.0721,1.0721,1.0721,1.0721,1.0721,1.0721,1.0721,1.0721,1.0721,1.0727,1.0482,0.9582,0.9654,0.9505,0.0,0.0,0.0,0.0,0.0,0.0,0.0,0.0,0.0,0.0,0.0,0.0,0.0,0.0,0.0,0.0,0.0,0.0,0.0,0.0,0.0,-0.8315,-0.9661,-1.0605,-1.0727,-1.0687,-1.0639,-1.0568,-1.0531,-1.0382,-1.0096,-0.9932,-0.9781,-0.9832,-0.9815,-0.9819,-0.9778,-0.971,-0.9754,-0.9747,-0.9747,-0.9785,-0.9795,-0.9791,-0.9566,-0.9659,-0.9741,-0.9676,-0.9466,-0.9391,-0.9378,-0.9378,-0.9116,-0.9083,-0.9071,-0.8974,-0.893,-0.888,-0.8789,-0.8699,-0.8713,-0.8735,-0.8817,-0.8981,-0.9103,-0.9251,-0.9584,-0.9941,-1.0401,-0.9973,-0.9098,-0.9319,-0.9781,-1.0396,-1.1212,-1.2111,-1.2799,-1.3593,-1.447,-1.5796,-1.6567,-1.6493,-1.6327,-1.6269,-1.6203,-1.6091,-1.6025,-1.6005,1.0721,1.0721,1.0721,1.0721,1.0721,1.0721,1.0721,1.0721,1.0721,1.0721,1.0721,1.0721,1.0721,1.0721,1.0721,1.0721,1.0721,1.0721,1.0721,1.0721,1.0721,1.0721,1.0731,1.0618,0.946,0.8224,0.7081,0.0,0.0,0.0,0.0,0.0,0.0,0.0,0.0,0.0,0.0,0.0,0.0,0.0,0.0,0.0,0.0,0.0,0.0,0.0,0.0,0.0,0.0,-0.7777,-1.0478,-1.0605,-1.0727,-1.0717,-1.0721,-1.0643,-1.0439,-1.0136,-0.9995,-0.9858,-0.9873,-0.9869,-0.9852,-0.9832,-0.9829,-0.9836,-0.9815,-0.9815,-0.9839,-0.9825,-0.9802,-0.9778,-0.9751,-0.97,-0.9649,-0.9561,-0.9469,-0.9445,-0.9449,-0.9435,-0.9422,-0.9347,-0.9168,-0.9114,-0.9157,-0.8984,-0.9022,-0.8981,-0.902,-0.9537,-0.9673,-0.9907,-1.0163,-1.0639,-1.1109,-1.1664,-1.0124,-0.8987,-1.1302,-1.2238,-1.2744,-1.3021,-1.3285,-1.3879,-1.471,-1.5701,-1.6645,-1.7001,-1.6872,-1.6786,-1.6746,-1.6767,-1.676,-1.6388,-1.6319,1.0721,1.0721,1.0721,1.0721,1.0721,1.0721,1.0721,1.0721,1.0721,1.0721,1.0721,1.0721,1.0721,1.0721,1.0721,1.0721,1.0721,1.0721,1.0721,1.0721,1.0721,1.0731,1.0611,1.0368,0.974,0.7927,0.5539,0.0,0.0,0.0,0.0,0.0,0.0,0.0,0.0,0.0,0.0,0.0,0.0,0.0,0.0,0.0,0.0,0.0,0.0,0.0,0.0,0.0,0.0,-0.6166,-0.9401,-1.0608,-1.0724,-1.0721,-1.0717,-1.0704,-1.0544,-1.027,-1.0196,-0.9995,-0.9858,-0.9981,-0.9981,-0.9981,-0.9958,-0.993,-0.9907,-0.9907,-0.9886,-0.9744,-0.9832,-0.9805,-0.9791,-0.9761,-0.9724,-0.9686,-0.9612,-0.9612,-0.9612,-0.9602,-0.9585,-0.9631,-0.9452,-0.9497,-0.9428,-0.9273,-0.9232,-0.9298,-0.9359,-0.9868,-1.0362,-1.07,-1.1577,-1.2188,-1.2635,-1.3048,-1.0833,-0.9448,-1.2121,-1.4375,-1.4985,-1.5154,-1.4685,-1.499,-1.5949,-1.6647,-1.7206,-1.7388,-1.7291,-1.7382,-1.7335,-1.7324,-1.7286,-1.6901,-1.6633,1.0666,1.0717,1.0721,1.0721,1.0721,1.0721,1.0721,1.0721,1.0721,1.0721,1.0721,1.0721,1.0721,1.0721,1.0721,1.0721,1.0721,1.0721,1.0721,1.0721,1.0721,1.0734,1.0622,0.957,0.939,0.7415,0.0,0.0,0.0,0.0,0.0,0.0,0.0,0.0,0.0,0.0,0.0,0.0,0.0,0.0,0.0,0.0,0.0,0.0,0.0,0.0,0.0,0.0,0.0,-0.5232,-0.8731,-1.0618,-1.0731,-1.0721,-1.0663,-1.0636,-1.0678,-1.0568,-1.0479,-1.0369,-1.0161,-1.0141,-1.0141,-1.0178,-1.0164,-1.0141,-1.0073,-1.0022,-0.9831,-0.9774,-0.9856,-0.9819,-0.9819,-0.9815,-0.9815,-0.9815,-0.9808,-0.9808,-0.9802,-0.9791,-0.9741,-0.9786,-0.9713,-0.9759,-1.0292,-1.0961,-1.0997,-1.0433,-1.025,-1.0292,-1.1019,-1.1492,-1.2736,-1.3899,-1.432,-1.4667,-1.3254,-1.2558,-1.4202,-1.6121,-1.7003,-1.6933,-1.6166,-1.646,-1.713,-1.7628,-1.7809,-1.7849,-1.7755,-1.7776,-1.7615,-1.7566,-1.7392,-1.7197,-1.6994,1.0585,1.0721,1.0721,1.0721,1.0721,1.0721,1.0721,1.0721,1.0721,1.0721,1.0721,1.0721,1.0721,1.0721,1.0721,1.0721,1.0721,1.0721,1.0721,1.0721,1.0721,1.0734,0.9679,0.7536,0.7093,0.6533,0.0,0.0,0.0,0.0,0.0,0.0,0.0,0.0,0.0,0.0,0.0,0.0,0.0,0.0,0.0,0.0,0.0,0.0,0.0,0.0,0.0,0.0,-0.1613,-0.5237,-0.8339,-1.0502,-1.0738,-1.0717,-1.0774,-1.073,-1.0692,-1.064,-1.0697,-1.0604,-1.0441,-1.0424,-1.03,-1.0341,-1.0331,-1.0263,-1.0175,-1.011,-0.9921,-0.9804,-0.9741,-0.9829,-0.9819,-0.9819,-0.9819,-0.9819,-0.9819,-0.9815,-0.9805,-0.9795,-0.9761,-0.9816,-1.0144,-1.0303,-1.198,-1.2917,-1.2463,-1.1496,-1.1117,-1.0803,-1.1276,-1.2123,-1.376,-1.5155,-1.6416,-1.6539,-1.6217,-1.6205,-1.6634,-1.7092,-1.7323,-1.7523,-1.7742,-1.7809,-1.7784,-1.7991,-1.8223,-1.8203,-1.7955,-1.7709,-1.7569,-1.7609,-1.7468,-1.7301,-1.7288,1.0582,1.0721,1.0721,1.0721,1.0721,1.0721,1.0721,1.0721,1.0721,1.0721,1.0721,1.0721,1.0721,1.0721,1.0721,1.0721,1.0721,1.0721,1.0721,1.0721,1.0721,1.0748,0.9984,0.7172,0.5066,0.2494,0.0,0.0,0.0,0.0,0.0,0.0,0.0,0.0,0.0,0.0,0.0,0.0,0.0,0.0,0.0,0.0,0.0,0.0,0.0,0.0,0.0,0.0,-0.2283,-0.5233,-0.8756,-1.0365,-1.0724,-1.0721,-1.0704,-1.0673,-1.0649,-1.0743,-1.0702,-1.0757,-1.0582,-1.0575,-1.0446,-1.046,-1.0432,-1.0341,-1.0266,-1.0209,-1.0124,-0.9998,-0.9761,-0.9856,-0.9836,-0.9836,-0.9819,-0.9819,-0.9819,-0.9805,-0.9795,-0.9771,-0.9751,-1.0459,-1.0913,-1.1873,-1.3337,-1.3514,-1.256,-1.1779,-1.137,-1.1095,-1.1177,-1.2276,-1.463,-1.6142,-1.7185,-1.7864,-1.7164,-1.6247,-1.591,-1.6574,-1.7583,-1.7776,-1.7909,-1.8136,-1.8207,-1.843,-1.8464,-1.837,-1.8196,-1.7809,-1.7589,-1.7602,-1.7589,-1.7462,-1.7495,1.0483,1.0622,1.0694,1.0721,1.0721,1.0721,1.0721,1.0721,1.0721,1.0721,1.0721,1.0721,1.0721,1.0721,1.0721,1.0721,1.0721,1.0721,1.0721,1.0721,1.0727,1.0761,0.9186,0.7193,0.3705,0.0,0.0,0.0,0.0,0.0,0.0,0.0,0.0,0.0,0.0,0.0,0.0,0.0,0.0,0.0,0.0,0.0,0.0,0.0,0.0,0.0,0.0,-0.1211,-0.3495,-0.5769,-0.8731,-1.0349,-1.0724,-1.0721,-1.0721,-1.0714,-1.0711,-1.0717,-1.0694,-1.0649,-1.0716,-1.0582,-1.0588,-1.0602,-1.0605,-1.0524,-1.046,-1.0402,-1.0483,-1.0366,-0.9908,-0.9828,-0.9954,-1.0077,-0.9873,-0.9819,-0.9802,-0.9781,-0.9764,-0.9861,-1.1575,-1.5199,-1.5541,-1.5666,-1.677,-1.6065,-1.4713,-1.2872,-1.2354,-1.1307,-1.1414,-1.1804,-1.3698,-1.4487,-1.4494,-1.6011,-1.7633,-1.6563,-1.5758,-1.6811,-1.8116,-1.805,-1.7994,-1.8384,-1.8591,-1.8671,-1.8671,-1.8557,-1.842,-1.8245,-1.7896,-1.7589,-1.7602,-1.7642,-1.7622,1.0334,1.048,1.0629,1.069,1.0697,1.0714,1.0721,1.0721,1.0721,1.0721,1.0721,1.0721,1.0721,1.0721,1.0721,1.0721,1.0721,1.0721,1.0721,1.0721,1.0724,1.0761,0.971,0.7709,0.4126,0.0,0.0,0.0,0.0,0.0,0.0,0.0,0.0,0.0,0.0,0.0,0.0,0.0,0.0,0.0,0.0,0.0,0.0,0.0,0.0,0.0,0.0,-0.243,-0.4316,-0.7123,-0.9125,-1.0057,-1.0727,-1.0721,-1.0721,-1.0721,-1.0721,-1.0721,-1.0714,-1.0707,-1.0697,-1.0707,-1.0721,-1.0717,-1.0711,-1.0677,-1.0612,-1.0568,-1.0651,-1.0524,-1.0188,-0.9952,-1.0208,-1.0184,-0.9954,-1.0079,-1.0169,-1.013,-1.0098,-1.0317,-1.4143,-1.8339,-1.8976,-1.9233,-1.8931,-1.822,-1.7079,-1.5353,-1.3641,-1.2072,-1.1291,-1.0998,-1.1589,-1.2018,-1.2072,-1.4195,-1.6523,-1.8143,-1.7607,-1.8197,-1.8524,-1.843,-1.8477,-1.8718,-1.8891,-1.8925,-1.8838,-1.8718,-1.8554,-1.8381,-1.8185,-1.7929,-1.7862,-1.7869,-1.7736,1.0314,1.06,1.061,1.0538,1.0692,1.0663,1.0721,1.0721,1.0721,1.0721,1.0721,1.0721,1.0721,1.0721,1.0721,1.0721,1.0721,1.0721,1.0721,1.0721,1.0758,1.0782,0.9759,0.7394,0.5153,0.0,0.0,0.0,0.0,0.0,0.0,0.0,0.0,0.0,0.0,0.0,0.0,0.0,0.0,0.0,0.0,0.0,0.0,0.0,0.0,0.0,0.0,0.0,-0.4489,-0.7983,-1.0098,-1.0608,-1.0724,-1.0721,-1.0721,-1.0721,-1.0721,-1.0721,-1.0721,-1.0721,-1.0721,-1.0721,-1.0721,-1.0717,-1.0717,-1.0714,-1.067,-1.0653,-1.0716,-1.0715,-1.0421,-1.0246,-1.0359,-1.0181,-1.0097,-1.0808,-1.119,-1.111,-1.1036,-1.3086,-1.6155,-1.8412,-1.9245,-1.9376,-1.9376,-1.87,-1.788,-1.6279,-1.4718,-1.3048,-1.1261,-1.0755,-1.0492,-1.0109,-1.0415,-1.2777,-1.5155,-1.7436,-1.9092,-1.8937,-1.8857,-1.8771,-1.8865,-1.9005,-1.9092,-1.9145,-1.9032,-1.8824,-1.8519,-1.8287,-1.841,-1.8337,-1.8237,-1.8103,-1.7976]}]]